GFSNW_850_thetae_000.txt.gz
Theta_e
311 313 314 314 315 322 325 326 316 318 323 321 319 314 316 317 317 318 318 318 318 319 319 319 320 320 318 317 317 319 316 313 314 317 315 316 317 318 316 312 319 313 312 319
310 312 315 314 315 318 322 322 321 321 323 310 308 316 317 317 318 317 318 318 318 318 319 318 319 319 318 317 317 317 316 311 312 314 314 315 318 317 316 314 308 313 310 314
310 312 314 315 315 318 322 320 312 319 321 322 316 317 318 317 318 317 318 318 318 317 318 316 317 318 318 317 318 317 315 314 313 314 314 316 317 317 316 314 306 315 316 315
309 311 314 315 315 316 321 321 317 320 311 316 316 317 318 318 319 318 317 318 317 318 315 315 318 317 316 317 317 317 314 314 314 314 315 316 317 317 317 316 314 313 313 313
309 311 314 315 315 316 319 320 322 319 318 319 315 313 317 318 316 318 317 317 317 317 319 317 319 317 316 316 316 315 314 311 313 315 316 315 316 315 314 313 313 312 312 312
310 312 314 315 315 319 318 318 319 319 316 314 310 311 317 317 317 318 317 317 315 312 318 318 318 318 317 317 315 312 313 307 307 316 311 312 315 312 312 312 311 310 311 310
311 314 315 316 315 319 318 319 319 317 307 311 311 317 317 316 317 317 317 316 312 317 318 317 316 315 312 311 312 314 306 304 305 311 311 317 314 311 311 311 311 311 313 312
313 315 316 316 316 316 318 316 319 318 305 313 318 317 317 316 316 317 317 317 317 317 316 306 305 304 304 305 313 314 312 307 309 310 314 313 313 312 313 312 312 312 312 313
315 315 315 316 315 316 316 316 318 319 316 310 317 316 316 309 310 314 317 317 316 316 308 302 303 304 307 311 311 311 307 302 304 310 312 315 309 309 313 313 312 313 313 312
315 315 315 315 315 315 315 316 316 318 317 317 318 317 312 317 316 310 315 317 316 315 306 307 309 307 309 310 305 304 303 306 306 299 305 306 307 310 313 307 310 312 311 311
315 315 316 316 316 317 316 316 317 316 317 317 318 317 317 317 317 306 315 313 312 306 307 307 305 310 305 308 308 307 307 304 308 306 310 313 311 311 311 310 311 310 310 311
315 315 315 316 317 317 317 317 316 317 317 316 317 317 317 316 317 317 316 315 314 314 305 305 300 308 307 303 312 309 312 308 307 307 307 309 310 311 311 311 310 310 311 311
314 314 315 316 316 317 317 317 316 316 316 316 316 315 315 315 316 317 317 316 316 316 315 310 305 309 306 312 310 310 309 310 307 308 310 310 310 311 311 310 311 310 309 306
314 314 314 315 315 316 316 316 315 315 315 314 315 314 314 314 314 314 315 316 315 316 315 315 305 308 310 309 311 311 311 311 310 310 310 310 310 310 310 310 309 306 304 304
314 314 315 315 315 315 315 315 315 314 315 311 313 313 313 313 314 313 314 314 314 315 315 309 307 310 308 308 305 308 311 311 311 312 311 310 310 310 309 307 305 302 301 301
314 314 314 314 314 313 313 313 313 313 312 313 307 312 312 313 312 312 312 312 313 314 315 314 313 313 312 308 309 311 312 311 311 311 311 311 310 309 306 303 303 302 301 300
311 311 312 313 313 313 312 312 312 312 312 312 311 310 309 309 310 311 311 311 312 313 314 313 314 313 312 304 313 311 311 311 311 310 310 309 307 303 301 300 300 300 299 299
310 311 313 313 313 313 312 313 312 311 311 312 306 306 308 309 309 310 309 311 312 313 313 310 311 310 310 308 311 311 310 310 309 309 306 305 302 300 299 297 298 299 299 298
308 310 311 311 309 309 310 310 310 310 311 308 305 305 307 307 308 308 307 307 304 306 304 306 308 303 308 308 309 309 309 308 307 306 303 302 300 299 298 298 299 299 298 297
307 308 309 308 307 307 308 307 307 308 307 306 302 304 304 306 306 303 304 301 301 304 302 304 303 307 308 308 308 308 306 306 304 302 301 299 297 296 295 295 296 297 297 297
306 306 305 304 304 304 305 304 303 302 301 300 300 302 304 304 303 302 302 301 300 302 297 303 296 301 303 305 305 306 304 303 302 298 297 296 295 293 293 294 294 295 296 297
304 304 302 302 303 303 301 300 300 300 300 300 300 301 303 303 302 301 300 299 298 301 298 300 301 296 302 304 302 302 300 299 298 298 298 297 296 294 293 294 295 295 295 295
303 302 301 301 300 302 300 301 301 299 300 300 302 301 301 301 301 299 297 299 298 299 299 300 295 300 301 301 301 300 300 299 298 298 297 297 296 293 294 295 295 294 294 294
299 299 297 298 296 296 295 297 298 300 301 301 301 300 298 298 296 297 297 293 292 295 299 295 293 298 299 298 298 296 297 297 297 297 296 296 294 293 293 295 295 295 294 292
298 297 294 293 298 298 298 299 299 300 301 300 298 298 298 294 290 289 289 291 298 297 293 290 297 296 295 295 295 297 296 294 294 295 295 295 294 293 293 294 293 295 295 293
298 297 292 297 297 296 297 298 298 299 299 298 298 294 289 290 287 289 288 290 292 290 290 296 296 295 295 295 295 295 294 293 294 295 294 294 294 294 294 294 294 295 293 292
293 295 296 297 297 296 295 296 298 298 296 291 294 289 292 291 285 288 291 289 288 297 295 295 295 295 294 293 293 293 294 294 293 293 293 294 294 294 294 293 293 293 292 291

GFSNW_850_thetae_003.txt.gz
Theta_e
311 313 314 314 320 324 326 325 315 321 323 321 314 312 315 316 317 318 317 317 317 318 317 318 319 319 318 317 317 317 315 311 312 316 313 314 316 315 314 315 315 311 308 316
310 312 315 315 317 322 321 320 320 322 323 311 305 315 316 316 316 316 317 317 317 317 317 318 318 318 317 316 317 317 314 311 311 312 312 312 316 315 314 310 307 313 310 312
310 311 314 315 316 321 321 319 311 319 321 317 314 315 316 316 317 317 317 316 317 316 316 314 316 317 317 317 317 316 315 312 312 313 312 313 316 315 315 313 305 312 313 314
309 310 313 315 315 319 320 318 316 318 310 314 316 316 317 317 318 317 316 316 316 316 314 314 317 316 315 316 316 315 312 314 313 312 313 314 315 316 316 315 313 315 314 312
308 309 312 314 314 318 319 319 319 317 317 317 313 310 316 317 316 317 316 316 316 316 317 316 318 317 315 315 315 314 312 310 314 313 313 314 315 314 313 313 313 311 311 310
308 308 311 314 314 317 318 319 319 317 313 310 309 309 315 316 316 316 316 316 313 312 317 318 317 317 317 316 314 311 312 306 307 309 309 308 310 310 312 311 310 310 310 309
308 309 311 314 314 317 317 318 317 316 306 306 309 316 316 315 316 316 316 315 311 316 317 317 316 315 312 310 311 313 305 304 304 305 311 313 311 310 310 310 310 309 309 310
308 310 312 315 315 318 317 317 317 316 304 309 316 315 315 315 315 316 316 317 317 317 316 305 304 304 303 303 311 311 307 307 309 314 313 310 312 311 311 310 309 310 311 311
310 311 313 315 316 316 316 315 317 316 316 310 316 315 315 307 308 312 316 316 316 316 307 302 303 304 306 310 309 308 305 300 304 308 312 315 309 308 310 312 312 310 312 311
312 313 314 315 315 315 316 315 315 317 316 315 316 316 311 314 313 308 313 316 315 314 306 306 302 306 308 309 304 303 302 305 308 308 309 306 306 308 310 312 311 311 311 310
313 314 315 315 315 315 314 316 316 316 316 316 317 316 316 316 315 306 313 312 311 306 306 303 304 298 304 307 307 306 307 307 304 306 308 310 310 311 311 311 311 311 310 310
314 315 315 315 316 316 316 316 315 315 314 315 316 316 316 316 316 315 314 314 313 314 306 304 300 304 305 302 312 307 311 308 306 309 308 308 310 310 310 310 310 309 310 309
313 314 315 315 316 316 317 316 316 315 315 316 316 316 316 316 315 316 316 315 316 315 314 309 304 309 304 312 310 310 310 311 306 308 310 310 311 311 311 310 310 309 305 304
313 314 314 315 315 316 316 316 316 315 314 314 314 314 314 314 313 313 313 314 315 315 315 313 304 307 309 308 311 310 312 311 310 311 311 311 311 310 310 309 309 306 304 302
313 313 313 314 314 315 315 316 315 314 314 310 313 313 313 313 313 313 313 313 314 315 314 309 307 309 308 307 305 307 311 311 310 312 312 310 311 310 307 304 302 301 300 299
314 314 314 314 314 314 314 313 313 313 313 311 308 312 312 312 313 313 313 313 313 313 313 313 313 313 312 307 309 312 312 312 313 311 311 310 309 306 302 302 299 299 298 299
313 314 314 314 314 314 314 312 312 311 311 310 310 309 309 310 310 311 311 311 312 312 313 313 312 312 312 304 311 311 312 311 310 310 309 309 306 305 300 298 296 296 296 297
313 313 312 313 312 312 312 312 311 311 311 311 307 305 308 307 308 309 309 310 311 312 312 310 308 310 310 308 310 311 310 308 308 307 307 307 305 300 298 296 295 295 297 298
310 310 311 312 311 310 310 311 311 311 309 310 305 305 308 307 307 307 307 307 304 306 304 305 307 304 309 308 309 308 308 307 307 305 303 301 300 299 295 293 293 293 294 294
308 309 309 308 307 308 308 308 309 308 308 306 304 305 304 308 307 305 305 303 302 304 302 304 302 305 307 307 305 305 306 306 305 303 301 298 295 297 296 295 294 293 293 294
307 307 305 304 305 306 306 305 305 304 302 302 301 303 304 304 304 302 302 301 300 302 296 302 299 300 302 302 305 305 304 303 298 298 298 298 297 296 295 294 292 293 294 294
305 305 304 304 304 304 303 301 300 300 302 300 300 301 303 303 303 302 299 299 298 299 297 300 298 296 300 300 300 300 299 298 298 298 297 297 297 296 295 293 292 294 294 294
304 304 303 302 301 303 302 302 301 299 300 300 300 300 301 301 301 299 297 298 298 297 297 297 295 298 296 295 295 294 296 298 297 295 293 294 295 295 295 293 293 293 294 293
300 300 300 300 299 300 297 292 292 299 301 301 301 299 298 298 295 296 296 292 291 298 298 293 292 296 294 294 294 294 294 294 292 292 293 294 294 294 294 294 293 294 294 293
298 297 293 295 296 297 299 299 300 301 301 301 299 297 297 293 289 292 289 291 294 296 292 288 296 295 295 295 295 294 293 292 293 293 293 292 292 292 293 293 293 293 293 293
297 296 291 296 297 296 298 298 299 300 300 299 298 291 287 288 285 287 291 289 290 289 288 295 295 295 295 293 293 293 293 293 292 292 292 293 293 293 293 293 293 293 293 293
294 295 295 296 296 296 297 298 298 298 298 294 293 289 290 289 284 287 289 287 286 296 293 295 295 294 292 292 293 293 293 292 292 292 292 293 293 293 293 293 293 292 293 293

GFSNW_850_thetae_006.txt.gz
Theta_e
311 313 314 315 321 320 325 321 313 323 322 317 310 311 314 316 316 317 316 316 316 317 316 318 318 318 316 316 316 316 313 310 311 314 313 314 314 314 312 309 312 309 307 312
310 311 314 314 320 324 322 319 320 321 321 310 304 314 315 316 316 315 315 316 316 315 316 317 317 317 316 316 316 316 313 310 309 309 311 311 315 315 312 307 307 312 309 312
309 310 314 314 317 321 320 318 313 319 317 314 312 314 315 316 317 315 316 315 315 315 315 313 316 317 316 316 316 315 314 310 310 310 310 310 314 315 313 313 313 312 312 313
308 310 312 315 315 320 318 317 316 316 310 313 314 315 315 317 316 315 316 315 315 315 314 314 317 316 314 314 315 314 311 314 312 311 311 311 313 314 313 312 312 315 314 312
308 309 310 314 314 318 318 318 318 316 315 315 313 309 315 317 315 315 316 315 315 315 315 315 317 316 315 314 314 313 310 309 312 311 311 311 312 312 312 312 312 311 312 312
307 308 309 313 314 316 318 319 317 318 310 308 308 309 314 315 315 315 315 315 312 311 315 316 316 317 316 314 313 311 311 305 307 308 308 307 307 308 310 311 310 310 310 309
307 308 309 312 314 315 316 318 317 315 306 303 308 314 315 314 315 314 314 315 310 315 317 317 315 314 309 309 311 313 305 303 304 306 310 314 310 310 309 309 308 308 307 306
307 308 310 313 314 315 316 317 316 314 303 308 314 314 314 314 315 315 315 316 315 316 316 305 303 303 302 303 308 308 306 305 308 313 313 310 312 310 311 309 308 308 308 310
308 309 311 314 315 316 317 317 317 315 314 309 315 314 314 306 307 310 315 316 316 315 306 301 302 304 306 310 308 305 304 299 303 308 312 314 309 307 308 310 309 310 311 311
309 311 313 314 315 315 316 315 315 316 314 314 315 314 311 314 312 307 311 315 314 314 300 304 301 306 306 309 303 301 302 305 312 312 311 308 306 307 309 312 310 310 310 310
310 312 313 314 315 315 315 316 315 316 315 315 316 315 315 314 314 306 312 311 310 305 307 304 305 296 303 306 306 305 305 303 301 305 308 308 307 310 311 310 311 310 310 308
312 313 314 314 315 315 314 315 315 315 315 314 316 316 316 315 315 315 313 312 312 312 304 303 299 302 300 304 311 305 308 307 308 310 307 307 309 311 311 310 310 309 308 306
313 314 314 315 315 315 315 315 316 315 315 316 316 315 315 315 316 316 315 314 315 314 313 307 301 303 301 311 309 305 309 311 309 309 309 311 312 311 310 310 309 307 305 304
313 313 314 314 315 316 316 317 316 316 315 314 314 314 314 315 315 314 314 315 314 314 313 312 302 307 309 308 310 310 310 310 310 309 311 311 311 310 309 307 306 306 302 300
313 313 313 314 314 315 316 316 316 316 315 310 313 313 312 312 313 313 313 313 315 315 313 309 306 309 308 306 305 307 311 309 308 311 311 311 311 310 308 306 304 301 298 298
313 313 313 313 314 314 314 314 314 315 315 314 305 311 312 312 311 312 313 313 313 314 314 312 312 313 311 306 308 311 311 311 311 311 311 309 309 307 304 302 297 298 297 296
313 313 313 313 313 313 313 313 312 313 313 312 308 308 310 310 310 310 311 312 312 312 312 311 311 311 311 304 311 310 310 311 310 308 307 308 306 303 298 298 296 294 295 294
312 313 313 314 314 314 314 313 311 311 311 310 306 305 308 308 308 308 308 309 310 310 311 309 308 308 309 308 309 309 308 306 306 306 306 306 302 299 296 296 296 294 293 292
312 313 313 313 312 311 312 313 313 312 311 310 306 306 308 307 307 307 307 306 304 305 304 305 306 303 308 307 303 303 304 304 305 304 302 300 297 297 297 297 295 294 292 292
311 310 310 307 308 309 310 308 310 309 307 306 304 306 304 307 307 305 307 303 302 305 302 303 302 304 304 301 303 304 304 304 302 301 298 298 297 296 296 296 295 294 293 292
307 308 306 305 305 307 306 305 304 303 303 303 303 304 304 305 304 303 304 302 300 299 296 302 301 299 300 299 299 298 298 298 297 297 296 295 295 295 295 295 295 294 293 293
306 307 304 304 303 304 304 301 300 301 301 300 300 302 303 303 303 303 299 300 298 300 296 298 295 295 298 297 296 295 296 296 296 295 293 292 292 293 294 294 295 294 294 293
304 304 304 303 301 303 303 301 301 301 299 300 300 300 302 301 302 299 298 297 296 295 294 295 294 296 293 293 293 293 293 293 292 291 292 292 293 293 292 292 292 292 293 292
302 302 301 299 299 300 299 298 294 299 299 300 301 299 298 297 297 296 294 292 291 297 295 292 290 294 294 294 295 294 293 292 292 292 293 292 291 292 292 292 293 293 293 293
298 297 296 297 296 297 299 299 300 300 301 301 299 297 297 293 292 292 290 294 295 294 291 287 295 295 295 295 293 292 291 292 293 293 292 292 292 292 292 292 293 293 293 293
297 295 291 295 296 296 298 298 299 300 300 299 298 291 291 290 287 289 292 291 291 289 288 294 294 295 295 292 291 291 293 293 293 292 292 292 292 292 292 292 292 292 292 292
294 294 294 296 295 296 297 297 298 299 299 295 294 289 290 288 284 288 288 287 285 294 293 294 294 293 291 291 291 292 293 292 292 292 292 292 292 292 292 291 291 291 291 291

GFSNW_850_thetae_009.txt.gz
Theta_e
311 313 314 318 317 320 324 319 317 322 323 315 309 312 313 316 315 316 316 315 316 317 316 317 318 318 316 314 315 317 313 313 315 315 313 314 314 315 313 316 314 315 315 316
310 312 314 315 321 324 324 320 320 320 320 313 308 313 314 315 315 314 315 316 315 314 315 317 317 316 315 315 315 316 313 314 314 311 313 312 316 315 312 311 312 317 318 316
308 310 314 314 320 321 319 318 316 317 316 313 313 314 314 316 315 315 315 314 315 315 315 315 317 316 315 315 315 314 313 312 312 313 311 312 314 315 313 315 317 316 316 315
308 310 312 314 316 319 317 317 315 314 312 314 313 313 314 316 315 315 315 315 314 315 315 315 316 316 314 313 314 314 314 316 313 313 313 313 314 314 314 315 316 316 316 315
308 309 310 314 314 318 317 318 317 315 313 313 313 309 315 316 315 314 316 316 315 314 315 314 315 316 314 314 313 313 310 314 312 313 311 311 312 312 312 313 314 314 315 315
307 308 309 312 314 316 317 318 317 317 308 307 310 310 314 315 314 314 315 314 313 311 314 315 315 315 314 313 313 312 312 311 311 312 309 310 312 309 311 312 312 312 313 312
307 308 309 310 314 315 316 317 316 317 308 305 309 313 314 313 314 314 314 314 311 314 316 316 314 312 308 308 310 311 307 308 308 314 311 315 313 310 310 311 311 310 309 309
307 308 309 311 314 315 316 317 315 314 305 308 312 313 313 314 314 313 313 314 314 316 315 308 307 307 304 305 307 308 307 308 311 313 314 313 313 312 310 311 311 309 311 310
307 308 308 311 314 316 316 317 316 314 313 310 314 313 313 309 308 310 314 315 315 315 306 307 309 310 308 311 309 305 305 303 311 311 315 316 312 308 308 309 313 310 310 311
308 308 309 311 314 315 316 316 316 315 313 314 314 314 313 313 311 309 311 314 314 313 305 309 311 314 306 312 307 304 306 307 310 312 313 313 309 308 308 314 314 311 310 310
309 309 310 311 314 315 315 315 315 315 314 314 315 314 314 313 313 310 311 312 311 306 308 309 309 308 308 309 308 307 309 310 308 307 310 311 307 309 312 312 311 309 309 307
310 310 311 312 313 314 315 315 315 315 315 315 316 316 315 315 314 314 313 311 311 312 306 304 304 306 301 306 314 305 311 310 311 310 311 307 308 309 310 310 309 308 307 306
312 312 312 313 314 314 314 314 315 315 315 315 315 315 316 316 315 315 314 313 313 313 312 306 304 309 304 309 308 308 308 308 311 310 311 310 311 311 310 309 307 306 305 302
312 313 313 314 314 315 315 316 315 315 315 314 313 314 315 315 315 315 315 315 314 314 312 308 303 306 307 308 311 311 311 310 310 309 311 310 310 311 311 308 306 303 298 298
312 313 313 314 314 315 315 316 316 316 316 312 314 313 313 313 313 313 313 314 314 314 312 308 307 308 307 306 305 308 310 311 311 312 311 310 310 307 307 305 299 298 298 295
313 313 313 313 314 314 314 315 315 316 316 315 306 311 312 312 312 312 312 312 313 314 314 311 312 313 311 307 309 310 311 310 310 311 309 306 307 307 300 298 298 296 295 295
312 313 313 313 313 314 314 313 312 314 315 314 310 307 310 310 310 311 311 312 313 313 313 311 312 311 311 304 309 310 310 309 308 307 307 306 304 301 298 296 295 296 296 297
312 312 313 313 313 312 312 313 312 312 313 312 304 305 307 307 308 308 308 309 309 310 310 308 308 308 308 308 308 305 305 305 305 305 306 305 299 297 296 297 297 296 295 294
313 312 313 313 312 312 313 313 312 311 311 310 307 306 308 307 306 307 306 307 305 306 305 305 306 305 308 303 301 303 304 303 302 300 300 298 297 298 296 295 295 294 295 294
312 312 311 310 310 311 312 312 311 311 310 307 306 306 306 308 304 304 305 304 303 305 303 302 302 304 299 300 302 301 301 301 300 298 297 295 295 294 293 293 294 295 295 295
308 306 304 305 306 308 307 305 305 303 303 303 303 304 304 306 305 304 304 302 301 303 300 303 303 303 299 297 297 297 297 296 295 293 292 292 292 292 292 292 292 292 292 292
302 302 301 302 302 301 301 301 300 302 303 301 301 302 304 303 304 303 299 301 299 299 296 301 302 298 298 297 295 295 295 293 292 291 291 291 292 292 292 291 291 292 292 292
302 303 301 300 301 303 304 304 302 302 299 300 301 300 302 301 302 299 298 299 299 294 298 299 297 295 293 294 294 294 293 292 291 291 291 292 292 291 291 291 291 292 292 292
302 302 302 300 301 300 296 296 296 298 300 300 301 299 299 298 297 295 297 293 293 298 296 297 294 294 294 294 294 293 292 291 291 292 292 292 292 291 291 291 292 291 292 292
299 299 299 298 296 297 298 299 299 299 300 300 299 297 297 293 294 293 293 296 296 295 296 293 294 294 294 294 294 292 291 291 292 292 292 292 292 292 292 291 291 291 291 291
297 295 293 295 296 296 298 299 299 299 300 299 298 292 296 294 292 293 293 294 293 294 291 295 294 294 294 292 291 290 291 291 292 292 292 292 292 292 291 291 291 291 290 290
295 293 293 295 295 297 297 298 299 299 299 296 292 294 295 289 291 292 290 291 291 294 292 292 293 292 292 291 290 291 292 292 293 292 292 292 291 291 291 291 291 290 290 289

GFSNW_850_thetae_012.txt.gz
Theta_e
312 314 316 316 318 322 321 317 323 321 322 322 318 321 319 317 318 318 319 320 321 321 321 322 321 321 320 317 318 319 318 319 317 317 317 317 318 319 318 319 318 319 320 317
310 314 315 320 317 322 323 322 322 321 320 327 324 318 318 317 319 318 320 320 320 319 321 322 321 320 317 317 319 319 318 318 316 317 318 318 319 318 317 317 317 319 321 318
309 312 314 319 322 324 319 321 329 319 318 316 320 320 320 319 317 318 318 318 319 320 321 320 321 321 318 317 317 314 316 318 317 314 314 315 315 315 316 317 320 318 318 317
308 310 314 315 320 319 318 319 322 318 325 321 320 320 320 320 319 318 318 319 320 320 321 320 321 320 318 316 315 317 319 317 317 316 316 315 316 315 315 316 317 318 317 316
308 309 311 314 316 318 317 321 321 317 317 317 319 318 320 319 318 319 319 320 319 318 318 316 318 316 316 315 317 317 316 318 315 315 314 315 315 315 315 315 316 316 316 316
307 308 310 313 314 316 316 318 317 320 312 317 322 321 320 319 318 317 318 319 318 319 317 316 317 317 316 316 316 317 318 318 317 320 314 315 318 316 315 315 315 315 316 315
307 308 309 311 314 315 316 317 317 318 321 319 320 318 318 319 318 319 316 317 319 315 315 315 314 312 313 315 315 315 314 317 314 319 316 321 315 314 314 314 314 314 314 313
307 308 309 310 313 315 316 317 315 316 315 318 316 318 318 317 316 317 317 316 314 315 316 318 318 315 314 313 312 313 314 316 315 316 316 315 314 313 314 313 314 313 314 314
307 307 308 310 313 315 316 317 315 313 315 320 316 317 317 320 320 318 316 313 315 314 316 318 320 318 314 314 313 309 311 311 318 315 317 317 316 312 310 312 316 313 312 312
307 308 308 310 313 316 316 316 315 314 313 314 315 318 318 316 317 320 317 316 314 314 316 319 321 319 312 315 316 314 311 311 314 314 316 315 313 311 311 316 317 313 310 310
308 308 309 310 313 315 316 315 315 314 314 314 314 314 315 314 317 321 315 317 315 315 313 315 316 316 316 314 313 314 316 317 314 313 313 315 311 311 315 313 312 309 308 307
309 309 310 311 312 314 315 315 315 315 314 315 315 314 314 314 314 315 314 317 316 317 317 312 310 311 308 317 317 312 315 314 314 314 316 313 312 313 311 311 311 307 307 306
310 309 311 312 313 314 314 315 315 315 314 315 316 316 315 315 315 314 317 313 314 314 314 313 312 312 314 314 315 316 314 311 314 314 313 313 313 312 312 310 308 306 305 303
311 311 311 312 313 314 314 315 315 315 315 315 315 315 316 316 315 315 315 315 314 313 311 309 308 312 313 313 316 315 314 313 313 313 313 312 312 311 310 308 306 304 301 301
312 312 312 313 314 315 315 315 315 315 315 315 314 313 314 315 315 315 315 315 315 313 311 307 311 313 312 309 310 314 313 313 313 314 313 311 311 308 306 306 303 301 300 298
312 312 313 313 314 314 315 315 316 316 316 315 317 312 312 312 313 312 314 315 314 314 314 312 312 313 314 308 312 311 312 312 312 311 310 309 307 307 304 302 300 298 297 297
311 312 313 313 313 314 314 314 313 315 316 315 313 311 310 310 310 311 311 312 313 313 313 311 312 313 311 309 311 311 310 308 307 308 307 306 305 304 300 298 298 298 297 296
311 311 312 312 313 313 313 313 311 313 315 314 309 307 308 308 308 308 308 309 310 311 311 309 309 308 309 310 310 306 305 304 305 305 305 304 301 299 299 299 297 296 295 295
311 312 312 313 313 312 312 313 312 312 312 310 306 308 309 307 305 305 306 307 309 306 306 306 307 307 310 308 304 304 304 305 302 301 301 299 298 297 296 295 294 294 294 294
312 311 312 312 311 311 313 312 311 312 311 309 308 308 310 308 305 304 306 304 308 309 306 303 303 306 300 301 302 302 303 301 300 299 298 296 294 294 293 294 294 293 293 292
308 308 309 307 307 311 310 307 307 304 304 304 304 305 305 305 308 307 304 304 303 307 306 306 307 307 302 300 298 298 297 296 295 294 293 293 293 293 293 293 293 291 291 291
304 303 303 304 304 303 302 302 300 301 306 301 302 303 304 304 305 304 300 305 303 307 301 303 305 305 300 298 297 296 295 294 293 292 292 292 293 293 292 291 291 291 291 291
301 302 300 300 299 304 306 307 305 305 300 300 301 301 302 302 303 300 302 305 305 299 300 304 304 301 299 298 296 295 294 292 291 291 292 292 292 292 292 291 292 291 291 291
300 300 302 303 303 303 303 304 304 299 300 300 302 298 301 299 299 299 304 299 299 302 302 303 302 298 296 295 295 294 293 291 291 291 291 292 292 292 292 292 291 291 291 291
300 300 302 301 296 298 298 298 299 300 300 301 300 298 300 298 298 298 298 299 301 302 303 301 298 295 295 295 294 294 291 290 291 291 292 292 292 292 292 291 291 291 291 290
296 295 297 295 298 297 298 299 299 300 300 300 299 299 301 300 299 299 301 301 301 301 299 298 295 294 294 293 292 291 290 291 291 292 292 292 292 292 291 291 290 290 291 291
295 295 295 296 297 299 298 299 299 300 300 300 298 301 300 294 298 299 297 299 299 297 296 294 292 292 292 292 291 290 290 291 291 292 292 292 292 291 291 291 290 290 290 290

GFSNW_850_thetae_015.txt.gz
Theta_e
313 315 317 317 318 315 316 320 323 317 316 322 325 325 321 319 320 321 322 322 323 323 323 323 323 323 323 319 320 321 319 320 320 318 319 320 320 321 320 320 318 319 320 320
312 314 319 316 321 319 324 321 323 319 321 329 329 322 321 321 321 321 322 323 323 323 323 324 323 322 320 320 321 322 320 321 319 319 321 320 320 319 318 318 318 318 324 320
310 314 317 318 320 323 323 323 329 322 323 322 323 323 322 322 320 321 321 322 322 323 323 323 323 323 320 320 320 315 318 319 318 319 317 316 316 316 316 317 320 320 319 318
309 312 314 320 321 324 320 323 326 323 327 324 323 323 322 322 321 321 321 322 322 323 323 323 323 322 321 319 316 318 319 319 319 318 316 315 316 316 316 316 316 318 318 318
308 310 313 315 318 318 322 321 323 322 324 322 323 319 322 321 321 321 321 322 322 321 322 319 321 320 317 317 318 318 318 320 318 317 316 315 316 315 315 316 316 317 317 317
308 309 310 314 316 317 322 318 320 323 319 323 324 323 322 321 321 320 320 321 320 321 319 319 319 318 318 317 318 319 319 320 318 320 318 317 320 318 315 316 316 316 317 316
307 308 309 313 314 316 319 320 321 323 325 324 323 321 320 321 321 321 320 319 320 319 317 317 317 317 317 318 318 318 320 319 319 321 317 323 318 316 316 315 315 315 316 315
308 308 309 310 314 315 316 317 320 320 325 322 321 320 321 320 319 320 319 319 318 318 318 320 318 315 312 316 316 316 317 319 317 320 318 316 316 315 315 315 316 315 316 315
308 307 308 310 314 315 317 316 315 319 318 324 320 321 321 323 323 321 319 317 318 319 320 320 320 321 316 317 316 313 315 317 320 317 318 319 317 315 313 314 317 315 315 313
307 307 308 309 313 316 316 316 314 319 322 319 319 321 322 321 320 322 320 318 318 319 320 319 323 320 316 317 318 313 315 315 320 317 318 316 315 314 313 316 318 314 313 312
307 307 308 309 312 315 316 315 315 318 319 318 318 318 319 320 320 324 320 320 320 321 317 319 321 319 318 318 316 316 316 318 315 316 317 316 313 313 316 315 314 313 310 308
308 308 308 309 311 313 315 318 315 314 319 320 316 315 317 318 319 320 319 319 320 319 322 319 320 321 314 318 319 315 316 316 317 317 317 314 313 313 314 314 313 311 308 308
309 308 309 310 311 313 314 315 315 315 316 318 318 319 314 314 315 317 320 319 318 319 320 318 314 315 317 315 318 319 315 314 316 316 314 313 313 313 313 312 310 308 306 306
310 310 310 311 311 312 314 315 315 317 317 317 320 316 316 315 314 314 318 318 316 318 317 313 309 318 317 317 318 317 316 315 316 317 315 313 313 312 311 310 308 307 305 303
311 311 311 312 313 313 314 314 315 315 321 318 319 315 315 316 315 316 315 316 317 317 313 308 314 317 318 315 314 317 314 315 318 317 314 314 313 311 309 309 307 304 303 301
311 312 312 312 313 314 316 318 315 315 315 315 315 315 313 314 315 317 318 318 318 318 317 312 316 316 316 313 315 313 313 313 313 314 313 311 309 308 308 306 304 301 300 300
311 312 313 313 313 314 317 316 317 316 316 316 315 317 311 311 313 314 315 315 316 315 315 315 315 315 314 314 315 312 312 312 309 309 309 307 307 306 304 302 301 300 299 297
311 311 312 312 313 313 314 313 312 315 316 315 313 312 310 309 312 311 310 311 312 313 314 311 312 313 313 313 312 312 311 308 307 306 306 308 306 303 302 301 298 297 296 296
310 311 312 312 312 313 312 313 312 314 315 315 308 310 311 309 307 307 307 308 312 310 308 309 311 311 313 312 312 310 309 308 307 305 304 303 301 300 298 296 296 296 295 294
311 312 313 312 312 313 311 312 312 312 312 310 308 311 311 310 305 305 306 305 311 310 308 305 303 307 308 306 307 307 306 306 304 303 301 299 297 296 296 296 295 294 293 293
309 310 309 308 309 312 312 310 310 308 306 307 308 309 309 307 309 307 306 307 306 310 308 309 309 309 308 305 304 304 303 302 300 298 296 295 295 295 295 295 294 294 293 293
306 306 305 306 305 305 307 305 301 303 308 302 302 303 306 305 306 304 301 305 305 311 305 306 307 308 306 304 302 301 298 297 296 295 295 295 295 295 295 294 293 293 292 291
302 302 301 301 299 304 306 306 306 305 301 301 301 301 302 303 303 301 303 306 309 303 303 305 308 306 303 302 300 299 297 295 293 294 294 294 294 293 292 291 291 292 291 291
300 300 302 303 304 303 304 306 305 300 301 302 301 300 301 300 302 301 306 302 303 304 304 306 306 304 302 301 299 298 296 295 291 291 291 291 291 292 292 291 292 291 291 290
300 300 303 302 298 298 298 299 299 299 300 301 301 301 303 301 302 303 301 302 304 304 306 306 302 301 300 298 297 296 294 293 292 292 292 291 291 292 292 292 291 291 291 290
298 298 299 298 299 298 299 299 299 300 300 301 301 301 304 303 303 302 304 305 304 305 303 302 299 297 297 296 296 294 293 292 291 290 291 291 291 292 292 291 291 291 290 290
297 297 297 298 299 299 299 299 300 300 300 302 301 303 303 298 302 302 302 303 303 301 300 298 297 296 294 293 293 293 291 291 291 291 292 291 292 292 292 291 292 292 291 290

GFSNW_850_thetae_018.txt.gz
Theta_e
313 315 315 318 315 314 317 321 322 321 316 320 322 328 323 320 321 322 323 323 322 323 323 323 323 323 323 320 320 321 318 320 326 319 319 319 319 320 320 327 321 326 324 320
313 315 317 319 316 314 319 321 326 316 316 329 334 324 322 322 321 321 322 323 323 324 324 325 324 324 321 321 322 322 319 323 325 321 322 321 319 319 318 319 321 320 322 320
311 314 318 318 317 317 325 325 329 321 322 326 325 325 323 323 322 322 323 323 323 323 324 324 324 324 322 321 319 315 319 320 319 322 318 317 316 316 316 317 323 322 321 318
310 313 317 317 320 320 323 326 326 321 326 325 324 323 323 323 323 322 322 322 322 323 324 323 324 323 321 320 316 318 320 320 320 318 316 316 316 316 316 316 317 318 318 317
308 311 314 319 319 322 321 326 324 323 324 322 324 321 323 323 322 322 322 322 322 323 324 322 323 322 320 319 318 319 319 322 320 319 317 316 315 315 315 316 316 316 317 317
308 309 313 315 318 319 323 322 322 324 323 324 327 325 323 322 322 322 322 322 323 323 321 320 320 319 318 318 320 319 320 324 321 322 317 317 323 320 316 316 316 316 318 317
307 308 310 314 315 319 324 323 323 326 328 326 324 323 322 322 322 321 321 321 323 320 318 317 318 318 318 318 318 319 320 320 319 321 318 321 317 315 316 316 316 315 315 317
308 308 309 311 314 315 316 318 325 323 321 325 323 322 321 322 321 321 321 320 320 318 319 322 316 317 314 317 317 317 319 320 317 321 319 316 316 317 316 315 316 315 317 316
308 308 309 310 314 315 315 317 321 324 321 327 322 321 322 324 325 322 320 320 320 319 322 321 320 324 319 319 316 315 317 320 322 316 319 318 318 316 315 314 317 316 315 315
308 307 308 310 313 315 316 315 316 322 325 321 322 323 324 322 323 324 320 320 320 321 320 316 328 323 317 320 319 314 313 316 318 318 317 317 315 315 314 315 318 315 314 313
308 307 308 309 312 315 316 316 314 321 322 321 321 321 323 322 322 326 321 322 321 324 316 320 324 320 322 320 318 316 315 317 314 317 317 317 314 314 315 316 314 315 313 310
308 307 308 309 311 314 316 320 314 315 322 321 320 320 321 320 320 322 320 320 322 322 322 322 322 314 314 318 323 316 319 320 321 318 318 315 315 314 314 314 314 312 310 309
308 308 308 309 310 313 316 321 314 317 317 320 318 320 316 318 320 321 321 321 319 319 322 317 314 311 318 315 320 318 316 315 321 319 316 314 315 314 313 312 311 309 308 307
308 308 308 309 310 312 314 320 315 320 317 318 321 319 317 314 315 317 320 320 319 321 319 311 309 312 317 319 319 320 318 316 317 317 316 315 315 314 312 310 309 307 307 305
310 310 309 310 311 311 313 314 315 317 321 316 321 317 317 315 315 318 316 318 318 319 314 307 311 318 320 318 316 319 315 315 317 318 315 315 315 312 310 309 308 307 304 302
311 311 311 311 312 312 313 319 314 315 318 316 315 318 316 315 316 319 319 319 319 319 318 313 317 317 318 314 315 314 313 312 313 314 314 313 311 310 309 307 306 303 302 301
311 311 312 312 312 314 318 317 319 315 315 315 314 318 313 314 317 317 318 318 318 318 317 317 316 317 316 310 314 313 312 312 313 312 311 310 309 308 306 304 303 301 299 297
310 311 312 312 313 313 315 315 313 315 318 316 314 314 312 311 314 314 313 313 314 314 315 313 313 315 313 313 314 312 312 312 310 309 309 309 308 307 304 302 300 297 297 296
310 310 311 311 312 312 314 314 312 314 317 317 309 311 312 311 309 309 309 310 312 311 311 310 312 311 312 312 312 313 312 310 309 308 307 308 305 302 300 298 297 297 296 295
311 311 313 313 313 311 311 312 312 313 313 313 308 312 313 311 307 307 307 307 311 310 309 307 306 308 310 311 310 311 310 309 308 306 304 301 299 298 297 297 296 295 294 293
311 311 310 310 312 312 312 312 312 310 309 309 310 310 310 310 308 308 307 307 306 311 310 310 310 309 308 309 308 307 308 307 305 304 301 297 297 296 296 296 295 293 293 292
308 308 307 307 307 306 308 305 304 306 311 305 304 307 309 307 309 307 304 307 305 309 306 307 309 309 309 307 306 305 304 301 298 297 296 296 296 296 295 294 292 292 291 291
305 305 304 303 300 304 306 307 305 305 301 301 302 302 303 304 305 302 302 305 307 304 306 306 308 307 306 305 304 301 299 297 295 295 295 295 294 292 291 291 291 291 291 291
302 300 303 302 304 303 303 303 302 300 301 301 302 300 302 301 301 300 306 303 304 306 307 306 309 305 304 303 301 299 297 296 294 292 292 291 291 291 291 291 291 291 291 291
300 301 303 302 298 298 298 299 299 300 301 301 301 300 301 300 302 301 303 304 306 306 307 305 303 303 303 300 299 298 296 295 294 293 292 291 290 291 291 291 291 291 291 291
300 299 301 299 300 299 299 299 299 300 300 300 301 300 303 303 303 303 305 306 306 307 305 301 300 299 298 298 297 296 295 293 292 291 291 291 291 291 291 291 292 291 291 291
299 298 299 299 299 299 299 299 300 300 300 301 301 304 302 300 303 304 303 305 303 302 301 299 298 297 296 295 293 294 294 293 292 291 291 291 292 291 291 291 292 292 293 292

GFSNW_850_thetae_021.txt.gz
Theta_e
313 315 315 315 314 313 314 322 319 324 316 319 323 323 326 320 320 321 323 323 321 323 322 323 323 323 321 320 321 319 316 318 315 319 318 318 318 319 319 314 318 313 313 315
313 315 316 317 314 313 318 322 323 321 317 317 317 324 322 321 320 321 321 323 323 322 324 323 324 323 321 321 319 319 318 318 316 320 320 319 317 318 317 318 311 314 309 311
312 314 317 319 314 314 319 326 320 320 323 326 326 325 322 322 322 322 323 322 322 323 323 323 324 322 321 318 316 315 318 318 316 316 317 315 315 315 314 316 313 314 314 316
310 313 318 319 315 315 322 325 323 318 316 318 322 324 322 323 322 322 322 322 322 323 323 323 323 322 321 320 316 318 317 318 318 317 315 315 314 314 313 314 313 313 312 316
309 312 316 318 318 316 322 325 326 318 319 316 322 320 322 323 322 321 322 321 321 322 322 321 323 321 319 319 317 318 317 316 315 315 316 314 314 313 314 314 315 315 314 316
308 310 314 318 319 320 322 324 321 326 324 320 321 321 323 323 322 321 322 321 319 316 319 319 319 318 317 319 317 318 318 311 310 315 314 313 312 315 315 315 315 315 314 315
307 309 312 315 318 320 325 323 323 324 317 321 322 323 322 322 321 321 321 321 318 318 317 317 317 317 316 318 317 319 313 313 308 308 306 305 316 314 314 314 314 313 314 313
307 308 310 314 315 319 321 320 325 322 311 324 323 322 322 321 321 321 320 320 319 318 319 311 309 308 305 311 315 316 317 309 305 308 311 311 315 316 314 314 313 315 314 313
307 308 309 312 314 314 314 319 324 322 321 317 324 321 321 319 319 319 319 319 319 320 314 305 309 312 312 315 315 312 314 308 306 309 306 305 311 314 314 314 310 315 314 311
308 308 309 311 314 315 316 316 319 323 322 321 322 322 321 322 321 317 320 319 320 321 306 311 310 312 315 314 313 307 310 311 306 304 302 308 312 314 314 311 309 315 313 312
308 308 308 310 314 315 316 314 319 321 322 321 321 322 323 322 322 313 320 314 317 311 312 309 309 308 309 313 314 310 307 307 305 309 311 309 313 313 310 310 314 314 312 310
308 308 308 309 312 315 317 315 316 317 319 319 321 321 321 322 322 321 319 316 320 319 311 306 308 310 311 310 310 313 313 310 310 309 308 310 314 314 314 314 314 311 310 308
308 308 308 308 310 314 317 317 315 316 315 317 317 318 319 319 322 321 319 321 320 320 320 314 312 307 309 307 309 314 314 314 309 312 314 315 314 314 314 314 313 310 308 305
308 308 308 308 309 312 314 315 317 318 316 316 320 319 316 316 320 321 320 319 320 320 319 309 308 305 314 307 309 308 312 315 314 310 313 314 314 314 312 310 310 309 306 306
308 308 308 308 309 310 312 314 316 319 318 314 320 318 318 316 314 316 318 319 319 320 315 306 306 311 311 313 307 308 316 312 309 308 314 314 312 312 311 310 310 306 306 302
310 309 309 309 310 311 312 314 314 315 320 316 309 317 316 315 316 319 317 318 318 318 316 312 314 318 314 308 308 313 314 314 314 314 314 314 313 311 309 308 306 304 302 301
310 310 310 310 310 312 317 316 318 314 315 315 311 314 314 315 317 319 319 319 319 319 318 316 316 316 316 305 308 312 313 312 312 312 312 310 309 308 306 306 303 302 298 297
311 311 311 311 312 313 315 316 314 315 315 316 309 309 312 314 315 314 314 315 316 315 315 314 313 314 312 308 312 313 313 313 312 311 311 310 308 307 304 303 299 297 297 296
310 310 311 311 312 313 313 314 313 315 316 314 310 305 306 312 310 310 311 312 306 311 310 310 312 305 310 310 312 312 312 311 310 309 308 306 305 306 299 298 297 297 296 295
310 310 311 313 311 312 313 313 313 312 314 313 309 310 308 309 308 307 307 307 305 308 305 308 304 307 309 310 311 311 311 310 309 308 308 306 299 298 297 297 297 296 295 292
311 311 312 312 312 311 311 312 310 309 307 311 310 311 308 308 304 304 307 304 303 308 303 306 306 306 306 308 309 309 309 309 307 305 302 299 298 297 296 296 296 294 291 290
310 310 309 309 309 308 308 305 305 305 307 305 307 308 309 309 308 305 304 305 303 308 306 306 307 303 308 308 307 305 305 302 300 298 297 296 296 296 295 293 291 291 291 290
307 307 306 304 301 304 306 307 304 304 302 303 304 303 305 306 307 303 302 305 306 305 305 303 301 306 306 306 304 300 298 297 296 296 295 295 293 292 291 290 290 291 290 291
303 301 302 302 302 301 300 301 301 300 300 301 301 300 302 302 302 300 305 302 302 305 304 299 303 305 304 303 301 299 297 297 295 294 294 293 291 290 290 291 291 290 291 291
301 301 302 300 298 298 298 299 299 300 300 300 300 300 300 300 301 300 300 302 304 304 304 301 302 303 302 301 299 298 297 296 296 294 292 291 291 291 291 291 291 290 291 291
299 298 299 298 299 299 299 299 299 300 300 300 300 300 302 301 301 302 304 304 304 303 300 300 300 300 299 299 298 297 296 294 293 293 292 291 291 291 291 291 291 291 292 291
299 297 299 299 299 299 299 299 299 300 300 300 301 302 300 299 301 302 301 302 300 301 300 299 299 298 297 296 294 294 294 294 292 292 291 291 291 291 291 292 292 292 293 293

GFSNW_850_thetae_024.txt.gz
Theta_e
314 315 313 313 313 314 315 319 315 322 321 313 318 320 323 320 319 321 321 321 322 320 320 323 322 322 320 320 320 316 316 314 313 319 316 317 317 318 315 311 316 311 310 312
314 315 314 313 313 314 316 320 325 323 317 310 310 319 321 320 319 320 321 321 321 321 322 323 323 321 319 317 317 319 315 314 313 318 318 317 317 317 317 313 309 313 308 310
313 316 315 315 313 313 319 323 317 321 321 323 317 323 320 321 321 321 321 321 321 321 321 321 322 321 320 316 314 315 318 315 314 316 317 314 314 314 315 314 310 312 311 313
313 316 317 316 313 314 321 324 320 316 313 315 320 321 320 321 321 321 321 320 321 321 322 322 321 320 320 318 315 317 314 316 316 315 313 314 313 313 312 312 312 312 311 313
312 315 317 318 314 314 318 324 324 317 314 314 318 319 321 321 321 320 321 320 320 320 320 319 321 319 318 317 315 316 315 313 312 313 315 313 312 311 312 313 313 313 314 315
310 313 317 318 315 314 320 323 322 320 319 313 316 318 320 321 320 320 320 319 316 315 318 316 318 317 318 317 315 317 314 309 307 309 311 310 309 313 315 314 312 313 312 312
309 312 315 318 318 316 322 323 324 322 314 316 316 322 321 320 319 320 320 319 316 318 317 316 317 316 315 316 316 316 311 309 303 304 302 302 311 312 313 312 313 312 312 310
308 310 314 316 318 320 323 322 325 322 308 320 320 320 319 319 319 319 319 318 317 316 313 306 307 306 308 310 313 315 312 304 305 303 308 306 312 314 313 312 312 313 311 310
308 309 312 315 316 320 319 320 323 321 318 315 322 319 319 316 316 315 319 318 319 318 306 303 307 308 307 313 315 311 310 304 303 307 301 302 306 313 314 312 311 314 313 310
307 309 311 313 314 314 315 320 322 320 321 321 322 318 319 320 317 313 318 319 319 317 300 309 304 312 311 313 311 306 307 303 305 296 299 305 306 313 313 311 309 314 313 312
307 308 310 312 314 315 315 316 319 321 321 321 321 322 322 321 319 312 318 314 315 308 306 303 310 303 307 310 311 309 308 307 304 302 300 307 309 312 310 309 314 314 313 311
308 308 309 311 314 316 315 316 319 319 318 320 320 321 321 321 320 319 318 313 316 315 307 306 309 304 309 306 310 310 310 307 308 309 309 308 312 313 313 313 314 314 313 310
308 308 308 309 312 314 316 314 315 315 316 318 318 319 320 322 322 320 318 320 318 317 315 310 304 303 305 309 309 312 310 310 308 310 311 311 313 313 313 313 313 312 311 308
308 308 308 308 310 313 316 315 315 315 314 314 318 318 316 320 322 321 320 319 319 319 317 309 305 303 309 303 306 305 308 313 312 308 311 313 313 313 313 313 312 310 308 306
308 308 308 308 309 311 312 314 315 316 315 314 318 318 318 315 317 321 320 319 320 319 315 306 305 307 307 305 303 305 313 311 309 308 312 312 312 312 312 311 310 309 306 303
308 308 308 308 309 311 311 312 314 316 318 316 306 316 315 315 317 316 319 318 318 318 317 311 312 316 312 307 311 312 315 315 315 314 314 314 313 311 311 310 307 306 302 301
309 309 308 309 310 311 312 312 315 316 317 314 311 312 314 316 318 319 318 318 318 318 318 315 314 315 315 304 308 312 313 312 313 312 313 311 311 310 308 306 305 301 299 297
310 310 310 310 310 314 315 315 315 315 314 315 304 303 312 315 316 316 316 317 317 316 315 315 312 312 307 309 310 314 314 314 312 312 312 312 310 307 306 306 300 298 297 296
311 311 311 311 311 312 314 315 314 316 315 313 307 304 306 313 310 311 312 313 305 310 307 309 310 304 308 309 311 312 312 312 312 310 310 309 307 304 301 298 297 297 297 296
310 310 310 311 311 312 312 313 312 312 314 314 308 308 305 309 307 306 307 307 303 307 306 308 304 307 309 309 310 310 311 312 311 309 307 306 305 298 298 297 297 298 296 294
310 310 310 312 311 311 311 310 308 309 307 310 310 310 307 307 305 305 307 303 303 307 302 303 302 304 304 308 307 309 310 309 309 308 306 300 298 297 297 299 297 294 292 291
310 311 311 311 311 310 307 305 305 304 307 305 307 308 308 308 307 305 304 303 302 306 304 306 307 303 305 305 304 304 305 304 302 299 298 298 299 299 296 294 292 291 290 290
309 308 308 306 302 305 308 309 305 305 302 303 304 304 307 307 307 304 302 305 306 304 306 306 303 305 301 298 298 298 299 300 298 298 299 297 294 293 291 291 290 290 290 290
306 303 302 302 302 301 300 301 301 300 301 301 302 300 302 302 302 300 305 302 301 305 303 298 303 304 303 301 299 298 297 297 295 294 295 293 292 291 290 290 290 290 290 290
300 300 301 298 296 297 297 298 299 299 299 300 300 300 301 300 300 300 300 302 303 303 302 301 300 302 301 297 297 298 297 297 296 294 293 292 291 291 291 291 291 291 291 291
299 298 298 297 298 298 298 299 299 299 300 300 300 300 302 300 300 301 302 303 302 301 300 301 300 299 298 299 298 296 295 294 294 292 291 291 291 291 291 291 291 291 292 292
298 298 298 299 298 297 298 298 298 299 300 299 299 298 298 298 299 301 300 300 300 300 300 299 299 299 298 297 295 294 295 293 292 291 291 291 291 291 291 291 291 291 291 291

GFSNW_850_thetae_030.txt.gz
Theta_e
312 312 312 313 313 316 317 317 312 320 316 312 311 316 319 322 317 319 319 318 317 316 318 320 319 319 318 317 318 315 314 311 314 317 314 314 315 315 310 308 312 308 308 310
312 312 313 313 313 316 318 317 324 323 316 309 308 313 319 319 317 318 319 320 319 318 319 320 319 319 317 315 316 314 312 313 314 314 312 313 316 314 310 308 307 312 307 308
312 312 313 313 313 314 319 319 317 322 320 310 311 315 320 319 319 319 318 318 318 318 320 317 319 319 317 313 313 315 313 312 313 314 313 312 313 314 312 310 308 309 309 310
312 313 313 313 313 314 320 319 316 318 314 316 311 315 317 319 319 319 318 318 318 318 320 320 319 319 317 313 315 314 310 313 313 312 311 311 311 310 312 312 310 311 310 309
313 314 313 313 313 315 322 323 316 313 312 319 315 315 318 318 319 319 319 318 318 318 318 317 318 317 315 312 314 314 310 311 310 314 311 309 312 310 308 309 309 309 310 309
313 314 313 313 313 315 320 323 319 316 310 311 313 315 318 318 318 318 317 317 315 316 316 317 316 315 314 313 313 312 309 307 307 308 306 305 305 308 308 308 309 308 310 309
314 315 313 312 313 314 318 323 320 317 308 308 315 316 318 317 317 318 317 316 314 314 316 315 315 314 314 314 312 311 306 304 299 302 301 303 307 308 308 309 309 308 310 309
315 316 314 313 313 315 318 322 323 319 304 309 314 316 316 317 317 317 317 317 315 314 311 306 310 305 308 308 309 306 306 302 302 301 303 304 308 309 310 310 310 309 309 308
316 316 316 314 313 314 317 322 323 319 313 313 317 316 316 313 313 313 317 314 313 315 301 302 306 309 310 311 313 308 304 301 302 299 301 300 305 307 311 310 310 309 310 308
316 317 317 315 312 313 316 321 322 319 320 320 318 316 316 316 313 311 316 315 316 313 298 299 303 306 306 309 308 307 305 300 301 296 298 303 303 309 310 310 308 310 312 311
316 317 317 314 313 314 319 321 321 319 321 320 320 318 318 316 316 311 315 313 314 305 305 302 302 300 306 308 308 309 309 309 309 302 299 308 306 310 310 310 309 312 313 313
316 318 318 317 316 320 320 321 320 319 320 319 320 320 319 318 318 318 316 316 314 312 303 297 300 304 306 304 308 307 309 306 305 306 307 307 308 310 312 311 310 312 312 313
315 317 317 316 316 316 318 319 318 318 320 318 319 319 320 319 318 318 317 313 315 313 311 304 301 302 300 304 306 308 307 306 304 307 308 307 309 310 311 311 312 312 312 313
312 315 316 316 315 315 316 316 316 316 316 316 317 318 320 320 320 318 317 318 315 314 312 307 300 300 305 300 303 304 307 307 307 305 307 309 311 312 312 311 311 312 312 313
309 311 314 316 315 315 315 315 313 313 312 311 317 316 316 318 321 321 320 319 317 315 313 303 303 303 302 303 300 304 308 307 306 306 309 310 310 312 313 313 313 312 312 311
308 310 311 313 314 314 313 313 315 313 312 313 307 314 315 317 319 320 319 318 318 317 316 311 310 308 308 307 309 310 311 311 311 310 310 312 312 312 313 313 312 311 310 308
308 308 309 310 310 311 309 310 316 315 313 312 308 309 314 317 317 318 318 318 318 317 314 309 307 310 309 303 306 310 312 312 312 312 311 312 312 312 312 311 310 308 306 301
308 308 308 308 309 309 311 314 316 315 312 312 302 301 311 314 316 315 315 317 316 313 310 309 306 307 306 308 308 310 311 311 312 312 311 311 311 311 310 309 308 302 297 298
308 308 308 309 309 311 314 314 315 314 312 310 302 303 305 311 310 309 311 311 307 310 306 308 308 304 308 305 303 306 308 308 309 310 310 310 310 308 304 301 296 299 298 295
309 309 310 310 311 312 313 313 313 314 313 313 302 304 304 307 308 305 306 305 304 308 304 307 304 306 304 298 299 303 306 307 308 308 304 303 300 298 297 299 298 295 294 297
310 310 310 311 312 311 311 309 306 307 306 308 305 306 305 306 305 304 303 303 302 307 300 306 304 304 300 297 299 301 302 304 303 303 300 299 298 298 296 296 297 298 295 293
310 311 311 311 310 309 304 302 304 304 305 305 306 306 307 306 306 303 303 301 301 303 301 305 304 298 296 298 300 300 299 300 299 299 299 298 298 297 295 295 294 293 291 290
310 310 310 308 305 306 309 309 306 305 302 303 304 303 305 306 306 303 302 305 305 302 304 306 302 298 298 299 298 297 295 295 296 298 295 293 292 291 291 290 290 290 290 290
309 306 305 303 303 301 300 302 301 300 301 303 304 302 303 303 302 301 305 302 301 305 304 299 300 298 297 294 295 295 295 295 295 295 293 292 291 291 291 290 290 290 290 290
302 301 300 298 296 297 298 299 299 299 300 302 303 301 302 300 301 299 300 301 299 298 296 298 297 297 294 295 297 294 294 294 293 292 292 291 291 290 290 290 290 290 291 291
298 298 298 297 298 298 298 299 298 300 300 301 301 300 299 298 299 299 299 298 294 295 297 298 298 298 298 298 298 295 295 295 292 292 291 291 291 291 291 290 291 291 291 290
298 297 298 298 298 298 298 299 299 299 299 299 297 297 297 296 296 298 297 294 297 298 298 298 298 298 298 297 295 296 294 293 293 292 292 292 292 291 291 291 291 291 291 291

GFSNW_850_thetae_033.txt.gz
Theta_e
312 310 312 312 312 312 311 316 313 323 319 312 310 315 314 322 318 318 318 316 316 317 317 319 319 320 318 317 317 318 314 315 319 318 314 314 315 316 315 317 313 313 314 316
310 311 312 312 313 312 315 317 321 321 319 313 311 312 318 318 316 318 318 319 317 318 319 320 319 319 315 315 314 316 314 316 319 318 315 314 317 315 311 310 312 315 322 315
309 311 312 312 313 313 319 318 319 321 319 311 312 316 317 319 318 318 317 317 318 319 320 318 320 319 316 313 313 313 313 313 317 321 316 314 315 315 312 314 316 314 315 313
310 310 312 313 313 315 319 318 316 319 315 313 311 312 317 318 319 318 317 318 318 319 320 319 319 318 315 313 314 313 313 316 313 312 312 311 311 313 313 313 313 317 313 312
309 311 312 313 313 316 318 318 315 313 312 313 313 314 317 318 318 318 318 319 317 317 319 318 320 318 315 312 313 314 310 315 311 314 311 310 312 311 311 312 311 312 311 312
310 312 313 313 313 314 318 320 317 315 308 312 312 314 317 317 318 317 316 317 316 317 316 316 314 313 313 312 315 313 311 312 312 313 307 307 312 312 312 310 310 313 313 314
311 312 313 313 313 314 318 320 317 313 308 311 312 315 317 317 317 318 316 315 315 314 315 315 314 313 312 312 310 309 308 307 304 310 305 310 311 309 309 311 311 309 310 310
312 313 314 313 313 314 318 320 319 316 305 309 313 316 316 316 317 316 316 316 314 314 311 312 313 311 311 310 308 307 306 306 306 313 309 307 308 306 310 312 312 310 310 310
313 314 314 312 313 314 318 322 322 319 310 310 315 316 315 315 314 314 314 313 312 312 304 308 313 317 314 312 313 308 305 304 311 305 310 310 308 306 310 310 315 309 310 309
314 315 314 312 313 315 318 320 322 319 316 315 317 316 316 315 313 313 313 312 313 311 305 309 312 313 307 312 310 311 312 308 311 302 311 309 306 306 309 314 314 308 310 310
316 316 314 313 313 315 316 319 321 319 320 318 318 317 316 315 316 315 314 314 314 307 311 312 309 310 310 310 309 311 313 313 311 304 309 314 305 310 314 312 309 310 311 312
316 316 315 314 313 314 315 320 320 320 320 318 318 318 317 317 317 317 314 315 313 312 309 304 303 308 306 307 314 307 312 311 312 310 313 307 307 311 311 311 310 310 311 311
317 317 316 314 313 313 318 319 319 319 319 317 319 319 319 317 317 317 316 313 315 313 311 304 304 308 306 311 311 309 308 306 310 309 309 307 308 309 310 310 310 311 311 312
319 318 315 313 314 318 318 318 318 319 319 315 316 318 319 319 318 317 317 318 316 313 311 306 304 308 304 306 307 309 309 307 308 308 309 309 310 310 311 311 312 311 310 311
318 317 317 318 318 319 316 317 316 316 313 311 315 316 318 320 319 318 318 316 315 313 311 305 308 302 305 303 303 307 307 310 311 312 309 308 309 311 312 312 313 312 311 311
317 317 316 317 318 317 316 314 313 312 313 318 309 313 316 317 318 318 316 316 316 316 315 307 306 306 307 308 310 308 309 310 309 309 310 310 311 312 312 312 312 311 310 308
315 316 316 316 315 314 312 312 314 312 312 312 307 308 314 317 318 318 317 317 317 316 310 304 306 307 307 305 311 307 308 309 311 311 311 311 310 310 310 310 309 307 305 302
312 312 312 312 311 310 315 315 314 312 311 311 304 304 311 314 314 312 314 316 314 311 308 307 305 306 306 309 303 302 304 307 310 308 309 309 309 308 306 304 302 300 297 298
310 310 309 309 309 311 315 315 314 311 310 308 303 306 308 309 308 308 309 310 308 308 306 307 308 305 306 298 297 299 302 304 306 306 306 305 303 299 297 298 297 297 296 297
310 308 309 310 313 313 312 310 311 312 312 312 301 302 305 307 308 305 306 307 305 310 305 307 305 304 296 298 299 299 302 305 306 305 299 299 298 298 298 297 298 298 296 295
309 310 311 312 311 310 310 308 306 307 304 306 305 305 304 305 306 304 302 304 303 308 305 307 305 304 296 298 298 299 300 301 300 300 299 298 298 298 297 296 295 294 294 293
311 311 311 310 310 309 305 303 303 302 305 304 306 305 305 305 306 303 303 302 302 306 301 305 305 296 298 298 298 298 299 299 298 298 297 296 295 294 294 293 292 291 291 290
310 311 310 308 305 305 302 307 305 305 302 304 304 303 305 305 305 302 303 306 306 302 305 306 301 297 298 297 296 295 296 296 294 293 293 292 292 291 291 291 290 291 291 291
309 306 301 299 304 302 301 302 302 300 301 303 305 302 303 303 303 301 307 302 303 306 306 301 299 297 296 296 295 295 294 294 292 292 292 291 291 291 291 291 291 291 291 290
303 301 300 298 296 297 298 299 300 300 301 303 303 302 303 301 302 300 301 302 301 300 299 299 296 297 295 296 293 294 294 293 292 291 291 291 291 291 291 291 291 291 291 291
299 298 298 297 298 298 298 299 299 299 301 302 302 300 301 300 300 299 300 301 299 299 299 296 296 296 295 296 294 295 294 293 292 292 292 292 292 291 291 291 291 291 291 291
298 297 298 298 298 298 298 299 299 299 300 299 297 298 299 296 298 299 298 297 297 298 297 297 297 298 298 296 295 295 294 293 293 292 292 292 292 292 291 290 290 289 289 288

GFSNW_850_thetae_036.txt.gz
Theta_e
302 308 312 313 309 312 312 315 318 316 313 322 323 321 319 320 320 321 319 319 319 320 321 321 319 320 320 319 320 322 320 323 325 322 318 318 320 321 320 318 318 320 320 317
304 304 309 312 310 312 313 316 320 321 321 325 323 319 319 322 320 321 321 321 321 321 322 322 322 323 318 318 320 322 320 323 324 322 320 319 320 320 319 317 319 319 326 316
303 303 305 311 310 312 315 316 322 321 317 317 320 319 320 321 319 321 321 322 322 323 323 323 324 323 319 316 318 313 316 322 322 322 321 320 321 320 319 319 319 317 318 316
301 306 307 310 311 312 318 318 320 321 323 318 319 319 319 321 322 321 321 322 323 324 325 323 324 322 317 317 315 318 320 322 320 318 316 316 317 318 319 318 318 318 317 316
301 305 311 310 312 312 319 319 320 317 319 316 318 317 320 321 321 322 322 324 323 323 324 323 325 323 320 321 318 320 317 321 318 319 316 316 316 317 316 318 318 318 318 317
304 308 310 309 312 312 319 318 317 318 314 317 319 319 321 321 323 320 320 323 323 324 322 320 321 318 318 318 321 320 320 320 318 317 313 314 319 318 317 317 318 318 318 318
307 310 309 311 312 315 319 318 316 319 319 317 316 318 321 322 322 323 319 320 323 317 316 316 316 316 316 316 315 315 317 317 316 319 312 324 314 312 313 317 317 316 316 316
310 309 309 312 312 316 318 318 316 315 320 317 316 319 322 320 320 321 320 318 317 315 316 321 321 321 321 318 314 313 313 315 315 324 315 314 313 311 311 313 313 315 314 315
309 309 311 313 312 316 319 319 319 315 318 318 316 319 321 323 323 322 316 313 313 311 317 322 326 325 322 320 319 313 311 313 319 314 328 330 314 312 313 313 315 312 314 315
308 311 312 313 312 316 320 320 321 318 321 315 319 319 321 320 322 323 316 314 315 312 321 330 327 324 314 319 318 317 319 317 322 318 324 318 313 310 312 315 314 313 314 314
311 312 313 313 312 315 319 320 320 320 320 318 318 317 319 318 321 325 317 318 317 318 326 327 322 325 316 316 315 317 319 321 321 315 323 323 310 313 317 316 314 312 314 314
312 314 314 313 312 316 318 320 320 319 319 319 318 317 317 318 319 320 316 322 319 320 323 320 317 319 312 318 322 313 318 318 319 317 318 313 311 314 314 313 313 313 313 313
315 315 314 312 313 317 318 318 319 319 318 318 320 319 317 316 317 317 319 316 318 316 317 317 317 319 317 319 319 317 314 311 315 314 314 313 312 312 311 311 311 312 312 312
316 315 313 313 314 317 318 318 319 319 319 318 318 317 319 318 317 317 317 318 316 314 313 316 313 321 311 317 315 317 314 312 314 314 314 312 312 311 311 312 313 312 312 312
317 316 314 313 314 317 318 317 318 318 316 315 318 316 317 319 317 318 316 316 316 314 315 314 321 311 313 309 312 315 311 314 316 316 311 311 312 312 312 312 312 312 312 309
317 316 315 314 315 317 316 316 316 313 318 318 318 314 315 315 315 315 314 314 314 316 317 311 310 308 314 315 318 311 310 311 311 313 312 312 312 311 310 310 307 306 305 303
318 315 315 316 316 316 315 315 315 314 313 315 313 316 315 316 317 317 317 317 316 316 311 308 310 310 313 311 319 307 306 307 309 309 311 312 308 306 303 302 300 301 299 297
316 316 316 316 317 315 314 313 312 311 311 311 314 313 315 314 312 311 313 314 314 310 308 308 309 308 310 313 303 303 304 305 308 304 307 305 302 301 300 298 298 298 297 297
313 313 313 313 313 314 313 312 311 310 310 313 307 317 316 309 308 309 310 311 311 309 309 309 312 308 309 300 300 301 301 302 303 302 302 301 299 297 296 297 298 297 296 296
310 310 309 310 313 313 311 310 310 310 311 310 305 305 308 309 308 306 309 307 310 312 309 307 310 301 298 298 299 300 300 301 301 302 298 297 297 297 298 297 297 295 295 294
309 310 311 312 310 310 310 308 310 310 310 306 305 307 308 306 309 308 304 309 307 312 310 312 309 304 298 298 298 299 299 299 300 300 298 298 298 298 296 295 294 294 294 294
311 311 310 310 310 309 308 307 306 309 309 304 306 305 305 304 305 306 305 306 305 308 305 310 308 300 298 298 298 298 298 298 297 297 297 296 296 296 295 293 291 291 290 291
310 310 310 309 306 311 315 312 310 309 303 303 304 305 305 304 305 304 306 307 309 305 308 308 303 299 298 297 297 297 296 295 295 294 292 291 291 291 291 291 291 291 291 291
310 307 307 307 309 307 305 307 306 300 302 304 305 303 305 304 305 303 310 304 305 308 308 306 300 298 297 297 297 296 294 292 292 292 291 291 291 291 291 291 291 291 291 291
302 302 304 302 297 298 298 299 300 300 302 304 304 303 304 303 304 303 305 306 308 307 306 302 298 297 297 295 294 293 293 292 291 291 291 291 291 291 291 291 291 291 291 291
299 298 300 298 299 299 299 299 298 300 301 303 303 303 307 304 305 306 307 308 307 303 300 297 297 296 296 294 294 295 293 292 292 292 292 292 292 292 291 291 289 287 286 285
298 297 298 298 298 298 298 299 299 300 301 302 302 306 304 301 304 304 303 304 302 299 297 296 296 296 296 295 295 294 293 293 292 292 292 291 290 288 287 287 286 285 284 283

GFSNW_850_thetae_042.txt.gz
Theta_e
302 302 301 301 303 304 311 312 315 312 313 318 316 322 321 321 323 321 321 320 320 319 321 320 318 318 320 320 321 322 322 323 325 323 322 322 321 322 323 332 324 325 329 323
302 302 301 301 303 304 311 312 315 317 315 319 319 318 321 321 322 322 321 321 320 320 321 321 320 320 324 323 321 322 323 323 324 322 322 323 321 320 320 322 325 324 331 324
302 301 301 301 302 304 311 314 319 320 319 316 317 320 321 322 322 321 321 321 320 320 322 322 322 321 323 322 323 319 322 322 321 323 320 322 324 322 321 322 329 324 323 320
301 300 300 301 302 303 311 314 317 319 320 321 318 323 321 322 323 320 321 321 320 321 321 322 321 321 324 322 320 320 322 320 320 319 320 321 322 322 321 321 322 324 323 320
299 300 300 302 302 303 310 315 318 318 319 319 319 320 324 323 322 321 322 322 321 321 321 320 321 322 325 323 322 323 322 324 323 324 322 321 321 320 319 319 320 319 319 320
299 299 301 301 301 304 309 313 317 319 319 321 319 323 324 324 323 321 321 322 322 323 324 324 325 324 324 323 325 324 324 326 327 326 320 318 319 320 319 319 319 320 320 321
297 298 299 300 301 305 309 312 318 320 323 320 320 322 323 324 323 325 323 323 324 324 323 323 323 323 323 324 324 324 326 327 328 327 317 323 318 317 315 315 315 316 317 316
295 296 297 299 301 301 305 311 316 322 322 320 320 321 324 324 321 323 324 325 324 323 324 326 325 325 320 321 321 321 323 325 325 326 322 319 318 316 316 316 316 315 315 315
295 296 297 300 300 301 304 311 314 316 323 322 320 323 323 324 326 324 322 323 323 324 329 331 328 329 323 323 321 317 317 323 327 323 327 324 320 315 315 315 319 316 315 315
295 295 298 299 301 304 303 309 313 312 322 322 320 322 323 323 322 325 322 320 321 323 330 325 333 329 321 326 326 320 322 324 323 323 326 325 318 315 315 319 322 316 315 315
295 297 299 300 303 304 304 312 315 312 321 321 320 319 320 322 318 322 323 325 324 330 330 334 332 328 327 325 322 323 323 327 324 327 324 323 315 315 318 319 315 315 315 315
298 300 300 303 306 308 307 308 317 322 319 324 319 321 322 322 322 324 322 324 324 325 329 329 333 322 318 326 327 320 324 324 327 324 324 317 314 314 314 314 314 315 315 315
301 302 302 307 308 309 310 310 317 322 322 321 321 323 320 322 322 324 324 325 323 323 325 328 329 320 328 322 329 326 320 318 322 319 316 316 315 315 316 315 315 315 315 316
302 306 308 309 309 310 310 310 317 324 322 321 322 321 319 319 322 323 325 325 324 325 324 328 317 321 323 329 326 326 320 318 317 318 317 316 316 316 315 315 315 314 315 312
308 308 309 309 309 311 312 315 316 323 323 320 320 319 319 318 320 320 323 323 323 324 323 314 328 321 324 322 323 327 317 318 323 323 317 317 315 312 311 311 309 309 309 306
309 310 310 311 312 312 313 316 316 320 322 321 321 318 320 320 321 321 322 322 322 323 324 322 320 318 323 321 326 318 316 315 315 317 315 315 310 308 306 305 305 304 304 303
312 312 312 313 313 314 315 318 316 318 321 319 318 318 318 320 320 320 322 323 323 323 321 319 320 317 321 317 326 315 312 312 313 312 313 310 310 306 303 302 301 302 301 299
313 314 313 313 313 314 315 315 315 315 318 320 317 313 318 318 320 317 319 322 320 317 315 315 317 316 319 323 314 312 310 311 309 309 309 307 305 303 302 301 299 298 298 297
315 314 313 314 315 317 315 313 314 315 312 318 311 317 317 315 314 314 315 318 315 314 315 315 316 314 317 315 311 309 309 309 307 305 305 304 303 301 300 300 299 298 298 298
314 313 315 316 315 312 313 312 312 312 314 312 311 314 316 314 313 312 312 311 315 317 312 312 315 309 306 305 305 305 306 306 305 303 303 302 301 300 300 299 298 298 297 296
315 314 313 313 312 313 312 312 315 313 314 309 311 313 314 312 313 311 311 312 314 315 314 314 312 311 305 303 303 303 305 304 304 303 302 301 299 299 298 298 296 294 292 290
313 312 311 311 311 311 310 308 310 313 312 306 309 310 309 309 312 310 311 308 310 313 311 315 314 305 302 302 303 303 302 302 301 300 299 299 298 297 296 295 292 291 291 290
312 311 310 312 308 313 315 311 311 308 305 305 308 307 307 308 308 307 308 309 312 310 312 312 308 301 301 301 301 301 300 299 299 298 296 295 294 294 292 291 292 293 290 290
310 309 308 310 308 306 305 306 305 301 304 307 306 306 307 306 306 308 309 307 307 310 311 311 302 300 300 300 300 299 297 296 295 295 293 291 291 291 290 290 290 290 290 288
304 304 305 303 298 298 299 299 300 302 304 306 306 307 307 306 307 308 306 308 310 310 311 305 300 300 300 299 298 296 294 294 294 292 291 291 291 291 290 290 290 288 286 286
299 299 301 299 301 300 299 300 299 301 303 306 307 309 308 307 307 308 311 311 312 307 302 300 299 300 299 298 295 293 294 295 294 292 291 291 291 291 290 288 287 286 286 285
299 298 298 299 298 297 297 298 299 302 302 305 307 310 307 305 308 307 305 306 303 299 299 299 299 298 297 296 295 295 295 294 293 292 291 291 290 287 287 286 286 283 283 282

GFSNW_850_thetae_045.txt.gz
Theta_e
299 299 300 303 302 302 303 311 313 314 313 315 315 317 317 319 320 321 322 321 321 319 318 320 317 318 318 319 320 321 321 320 323 324 321 320 319 320 322 317 320 319 315 317
298 299 299 302 302 302 305 311 313 314 312 312 314 315 316 318 320 320 322 321 320 320 319 322 319 318 323 322 320 321 322 320 321 322 321 321 320 320 319 320 319 320 315 316
298 299 300 302 302 302 306 312 314 315 315 310 312 315 316 317 318 320 321 322 321 320 319 320 321 323 323 322 319 319 322 322 320 318 317 318 321 321 319 319 316 318 317 319
297 299 299 302 302 302 307 312 313 316 318 315 313 314 315 318 320 319 321 322 320 320 320 320 321 323 322 322 320 320 320 320 319 318 320 320 320 320 320 320 320 318 318 319
297 298 300 302 302 302 304 312 315 317 318 317 317 314 316 318 319 320 322 322 321 319 320 319 320 323 323 322 320 320 320 320 320 322 321 318 317 317 318 317 317 318 317 317
296 297 298 302 301 302 305 309 314 316 318 317 318 316 317 317 320 321 321 320 321 319 320 321 324 321 322 321 321 319 321 320 316 321 314 315 312 315 316 317 317 316 316 315
295 296 300 301 301 302 304 307 312 317 317 318 318 315 316 319 320 322 321 320 321 321 323 323 323 321 322 323 322 321 321 321 314 314 311 311 316 314 313 313 313 312 312 311
296 298 301 301 301 302 303 307 310 316 310 318 318 315 316 319 320 321 323 323 323 324 322 320 320 317 315 320 320 320 322 316 315 312 313 316 316 314 315 314 314 313 312 312
298 299 300 301 301 301 302 306 307 305 316 318 318 315 316 320 321 321 322 324 323 323 323 318 320 320 320 321 318 317 318 317 311 313 314 311 315 314 314 314 314 314 314 313
299 299 300 300 300 301 301 302 304 304 312 319 317 315 319 321 321 319 321 321 323 323 310 317 314 317 320 319 317 314 311 312 311 308 309 314 317 314 314 311 313 315 315 315
297 297 298 298 299 301 301 302 304 306 310 316 319 316 320 322 320 317 322 321 321 321 318 317 314 314 316 318 321 317 314 314 309 313 316 317 314 314 313 315 315 315 315 314
295 295 295 296 297 299 300 301 304 306 308 314 320 321 322 321 321 320 321 322 320 323 320 317 313 319 311 315 315 319 318 318 316 316 315 316 315 315 315 315 315 315 315 315
295 295 295 296 298 299 300 302 304 306 309 310 312 321 320 321 318 320 320 321 321 325 324 319 316 315 312 311 313 316 318 318 316 313 316 313 316 315 315 315 315 315 315 314
295 295 295 298 299 300 302 303 304 308 309 305 315 320 323 318 318 318 320 325 325 325 321 315 309 313 320 311 315 315 316 315 316 314 316 315 313 314 314 314 312 312 311 311
297 298 299 300 300 301 302 303 306 309 309 315 319 319 320 322 322 324 321 325 324 322 313 307 313 318 314 312 311 311 316 316 310 312 314 313 309 309 310 310 308 307 309 307
298 299 301 302 304 304 303 306 309 310 310 318 314 319 321 321 321 320 317 324 323 323 320 316 318 318 316 308 307 315 315 316 317 315 315 310 308 307 307 307 305 305 305 304
303 303 305 305 306 306 307 312 316 315 318 318 312 313 319 320 321 322 322 324 322 321 319 319 316 317 315 308 310 313 313 313 312 312 310 307 307 303 304 305 303 302 300 299
305 307 305 307 307 307 308 313 313 317 319 317 311 310 315 319 319 317 320 321 317 315 314 316 312 314 315 308 311 311 311 309 309 310 311 307 303 303 301 300 299 299 298 297
309 308 308 309 310 313 314 314 313 311 315 310 309 312 314 316 314 315 317 316 311 313 307 312 310 309 311 311 309 310 309 308 306 306 304 303 302 300 299 298 298 298 297 297
312 310 314 315 314 313 314 313 313 312 311 310 307 313 311 313 311 310 310 312 308 309 308 312 308 305 305 306 307 308 307 306 306 303 302 301 300 300 299 298 297 297 297 296
314 313 313 313 313 312 312 311 309 312 305 308 310 312 311 312 307 307 310 306 305 307 306 307 307 307 304 304 305 305 306 305 304 303 302 301 300 299 298 297 297 295 291 290
314 311 312 312 313 310 305 305 306 304 306 306 307 309 309 311 311 306 308 307 302 308 308 308 308 303 303 303 303 304 304 304 302 302 300 299 298 298 297 294 291 291 290 290
312 311 310 310 307 306 306 305 308 307 304 306 308 305 308 307 307 306 306 308 303 307 308 308 304 302 302 303 302 301 301 300 299 299 298 297 296 296 292 292 292 291 290 289
310 307 305 305 306 302 301 303 303 301 304 306 306 306 305 306 304 303 307 304 305 308 308 305 301 301 302 301 300 299 298 298 298 297 296 294 292 291 291 292 291 290 288 287
302 302 303 300 298 299 299 300 300 302 305 306 306 305 305 303 305 303 304 306 307 305 303 302 301 301 301 299 298 297 296 296 295 291 291 291 290 290 290 289 288 287 286 286
299 298 301 300 301 300 299 300 300 302 305 306 307 303 305 305 304 307 307 304 304 304 300 300 300 300 298 297 295 295 295 294 291 291 291 292 291 290 289 287 286 286 286 285
298 297 297 298 297 297 297 298 300 302 303 303 302 305 304 302 305 304 302 302 300 299 299 300 300 298 295 296 294 295 294 293 291 291 292 291 289 287 287 286 284 283 284 282

GFSNW_850_thetae_051.txt.gz
Theta_e
296 301 301 301 301 302 304 303 306 307 310 313 312 313 314 315 316 316 318 319 321 321 315 315 315 315 315 315 315 316 316 315 317 318 318 318 317 318 317 315 317 314 313 314
295 300 301 301 301 301 304 302 306 310 309 314 313 311 313 314 316 317 317 319 320 318 316 316 315 315 316 318 315 317 317 317 318 317 316 318 320 319 318 315 312 315 314 315
296 299 300 300 299 301 303 303 306 310 311 312 312 312 314 315 314 314 315 316 317 319 319 315 316 316 320 319 317 317 317 317 317 318 317 316 320 319 316 316 314 315 314 316
297 300 300 299 298 301 302 304 305 309 311 311 314 312 312 315 315 314 314 314 316 319 320 317 317 321 320 319 316 317 316 317 316 315 315 315 317 317 316 317 315 316 315 315
297 299 298 296 300 301 302 304 307 310 310 310 312 312 312 313 315 314 314 314 318 316 318 318 318 320 319 319 318 317 315 316 316 319 316 317 317 316 315 315 315 315 315 315
297 299 297 296 299 301 302 303 307 310 309 309 310 312 311 312 314 314 313 313 314 315 318 318 319 318 318 317 317 315 315 315 313 316 312 314 313 314 315 314 314 314 314 312
297 299 298 295 296 301 301 302 305 310 307 310 311 310 311 311 312 313 313 312 313 315 318 319 318 318 318 318 317 316 314 313 309 311 310 312 314 313 313 312 311 309 310 310
298 298 297 295 296 298 300 301 303 309 303 311 311 310 311 311 311 312 312 312 313 312 313 317 318 313 317 317 316 318 315 310 310 312 312 312 315 311 311 311 312 311 310 309
298 298 297 294 294 297 299 301 302 305 309 312 313 311 311 311 311 311 312 312 312 317 315 311 318 319 319 320 316 314 312 310 312 307 312 314 314 313 312 311 311 311 311 310
296 295 294 293 295 297 298 301 302 304 306 311 313 313 313 312 312 311 311 317 320 321 308 312 313 314 317 318 316 314 311 309 313 306 309 311 310 311 312 311 310 312 313 313
295 294 293 294 296 296 300 300 303 305 305 307 311 314 315 313 312 312 314 318 317 312 314 313 310 307 314 313 315 313 316 313 308 307 307 315 312 312 310 309 312 313 313 314
293 293 295 295 297 297 299 300 302 302 305 306 308 311 314 313 313 313 316 316 317 318 316 311 309 311 305 312 315 314 315 314 314 313 312 311 313 312 313 314 314 313 313 313
296 297 297 297 298 298 298 300 302 302 302 303 306 311 315 316 315 313 316 318 319 320 319 312 312 313 309 312 311 314 315 313 313 313 314 313 312 313 313 313 313 313 314 313
295 296 296 296 297 297 298 302 302 302 304 305 308 311 315 318 320 317 315 317 320 321 320 311 308 310 313 307 314 314 315 313 312 312 311 311 312 312 313 313 313 314 313 312
297 297 297 298 299 299 301 302 301 301 302 308 310 311 314 318 320 318 318 318 320 319 312 305 310 313 313 309 311 311 312 313 312 311 312 312 310 310 311 312 311 312 312 309
299 301 300 301 301 300 301 299 301 302 303 304 307 311 312 317 320 319 320 319 321 319 315 310 315 317 314 311 313 313 314 313 313 313 313 312 309 308 308 310 309 308 308 307
298 299 300 300 300 300 300 301 302 301 306 306 306 307 312 319 319 320 320 320 320 319 316 312 311 314 311 300 309 311 312 313 313 314 312 305 306 305 306 307 305 304 303 301
296 296 297 298 299 300 300 305 307 302 306 306 306 308 311 316 316 316 318 317 315 315 314 313 305 311 305 309 309 309 308 308 307 309 311 309 306 304 303 303 302 301 299 298
297 298 298 299 298 298 299 303 304 304 305 305 305 309 311 313 314 313 314 314 309 311 308 308 311 306 310 306 307 307 307 309 305 307 308 305 305 302 300 300 299 298 296 295
298 299 300 302 300 302 303 306 306 307 306 307 305 310 310 311 309 307 306 309 307 310 309 310 307 307 305 306 307 307 306 308 307 302 299 300 299 299 298 297 297 297 296 294
299 302 304 304 306 306 305 304 306 305 304 306 308 310 310 310 308 307 305 305 304 312 310 311 308 308 305 306 307 307 307 307 308 308 305 303 302 299 298 296 296 295 294 294
303 308 306 306 307 307 304 303 302 303 306 304 306 308 309 309 309 304 305 306 301 310 306 308 310 304 305 305 305 304 305 305 305 305 303 301 299 298 298 297 295 294 292 290
309 309 308 306 302 306 304 306 305 304 302 305 306 305 307 306 307 301 299 301 303 303 308 309 303 303 305 304 303 303 303 303 302 301 300 299 298 298 297 296 293 290 290 289
306 303 302 302 303 301 301 302 302 300 302 305 306 303 303 304 303 301 301 304 304 299 301 302 302 302 301 302 303 302 300 301 301 300 299 298 297 295 295 292 290 290 289 287
300 301 301 300 299 299 299 300 300 301 304 305 304 303 304 302 303 301 303 305 306 300 300 302 301 300 301 300 300 301 300 300 299 298 297 296 294 291 290 289 289 288 287 286
299 297 300 298 300 298 298 299 300 302 304 303 303 298 299 304 302 304 304 300 301 302 300 299 299 298 298 299 298 298 298 298 297 296 295 292 292 291 291 289 286 285 285 285
297 296 296 297 297 297 297 297 298 302 303 302 299 304 304 301 303 302 300 300 299 298 298 297 299 299 297 297 296 296 297 296 294 292 291 292 291 290 287 286 284 284 284 283

GFSNW_850_thetae_054.txt.gz
Theta_e
301 299 295 300 304 301 301 303 303 304 305 313 313 315 312 314 316 315 316 317 319 320 313 314 313 314 314 313 313 314 315 312 314 317 317 316 315 316 315 315 317 313 312 313
301 299 297 297 303 301 301 303 303 307 305 310 312 313 313 313 315 315 315 317 318 318 317 315 314 313 314 314 313 314 315 314 314 314 315 317 319 317 316 313 311 315 313 315
301 300 298 297 302 301 301 302 302 308 308 309 310 313 313 312 313 314 314 314 315 318 318 315 315 314 316 316 314 315 315 315 313 315 314 314 319 318 316 315 313 315 313 315
301 299 298 297 302 301 301 302 302 308 309 308 310 310 311 312 313 313 314 314 314 317 319 316 316 318 319 317 316 315 314 315 314 314 314 315 315 315 314 315 314 315 315 313
301 299 298 297 302 301 301 302 303 307 307 306 309 311 311 312 312 313 313 314 315 314 316 317 318 319 318 317 314 315 313 315 314 317 315 315 317 315 313 314 315 313 314 313
300 299 298 297 301 301 302 302 304 308 307 308 306 309 311 311 312 313 313 312 313 313 315 315 316 317 317 316 316 314 313 313 312 316 312 314 314 314 313 313 312 313 314 312
300 299 296 297 300 300 301 301 304 307 305 309 307 307 310 310 311 312 313 313 312 313 312 314 317 316 315 315 316 314 312 311 308 310 309 312 315 312 312 313 311 310 308 309
300 298 296 300 300 299 300 302 304 307 305 307 308 308 308 310 311 312 312 313 312 312 312 312 315 314 317 316 314 316 312 308 309 313 312 312 313 311 311 311 311 309 308 308
299 297 298 299 300 299 300 302 303 306 307 307 309 308 309 310 309 309 311 312 312 312 312 310 313 317 318 319 317 313 311 308 311 306 311 312 311 311 310 309 310 309 309 309
297 298 299 299 298 298 299 301 302 303 304 308 310 309 309 309 309 307 309 310 311 313 303 307 311 315 316 317 317 315 311 307 309 303 308 311 311 311 311 311 312 310 311 311
297 298 299 298 297 296 299 300 301 303 304 306 308 311 311 310 310 307 309 312 313 310 312 311 312 308 314 314 315 315 317 315 309 307 308 316 310 310 311 309 310 312 312 312
298 298 298 298 296 296 298 299 300 301 304 305 306 310 311 310 311 310 314 311 312 313 313 309 305 308 304 312 316 312 318 315 315 314 314 311 311 311 311 311 312 312 313 313
298 298 298 298 297 296 295 298 298 302 303 303 304 308 310 312 312 312 312 314 317 317 316 310 309 311 307 311 311 314 313 311 313 313 313 312 313 313 313 312 313 313 313 313
297 296 295 295 293 293 296 298 298 299 302 302 305 309 310 313 315 314 313 314 314 317 318 308 307 308 311 308 312 313 312 312 312 311 311 311 311 312 312 312 313 313 313 313
293 293 294 294 294 295 296 297 300 301 303 305 306 308 311 312 314 318 317 313 314 318 311 304 309 310 311 306 308 309 311 312 312 312 313 313 312 312 312 312 313 313 313 310
296 294 296 294 296 297 297 299 299 301 302 302 304 307 310 310 315 318 317 317 316 317 316 306 312 315 314 309 309 312 315 316 317 314 314 312 312 311 311 312 312 311 311 310
296 297 297 297 297 298 300 301 301 302 302 304 301 303 311 314 318 319 317 318 318 318 316 311 311 312 311 300 309 311 313 313 313 313 312 306 308 308 308 310 308 308 307 305
296 296 296 299 298 300 302 301 301 301 303 304 301 305 309 314 316 314 315 315 316 314 313 311 305 309 304 310 308 308 309 310 309 309 311 311 309 307 306 307 306 304 303 301
298 299 299 300 299 301 301 303 303 302 304 304 303 307 309 312 312 312 313 313 308 311 306 307 309 304 310 309 307 307 305 307 306 307 308 307 307 304 303 303 302 303 299 299
299 299 299 298 299 300 300 305 304 303 304 307 304 307 306 311 309 306 307 307 307 311 309 309 304 308 307 308 308 308 307 307 306 303 298 301 300 301 300 301 301 301 299 297
299 300 302 300 301 302 301 303 305 304 304 306 306 307 307 310 308 306 305 305 305 311 309 310 309 311 305 307 307 307 309 306 306 308 305 303 304 302 300 299 298 297 296 295
301 303 301 303 303 305 303 303 302 304 305 304 304 307 309 309 309 304 304 306 303 311 306 309 311 306 304 304 306 308 307 304 306 306 305 302 301 299 298 296 295 295 294 294
303 306 305 305 302 305 302 305 305 305 302 304 306 304 306 306 307 301 302 305 307 303 308 311 306 303 303 302 302 302 303 304 303 301 301 300 299 298 298 296 294 294 293 290
302 301 301 302 302 300 301 302 302 300 301 303 305 303 302 303 302 300 306 304 303 306 307 302 302 302 301 301 302 302 301 301 301 301 300 299 298 296 294 295 294 291 289 287
299 300 301 300 299 298 298 299 300 300 302 303 303 303 304 302 303 301 303 306 306 301 297 301 300 300 301 301 301 301 300 300 300 299 298 297 296 295 294 291 289 289 289 287
297 296 298 297 298 298 297 297 298 300 303 303 302 301 304 303 302 303 303 302 302 302 299 298 298 298 298 298 298 298 298 298 297 296 296 295 294 291 289 287 287 287 287 285
296 296 293 295 295 295 295 294 295 300 302 302 300 303 302 301 302 301 299 298 298 297 296 297 297 297 296 297 297 296 295 295 295 294 292 289 289 289 289 289 286 284 284 284

GFSNW_850_thetae_057.txt.gz
Theta_e
303 303 302 302 300 300 303 302 303 303 303 307 310 311 312 312 313 315 316 317 318 320 314 314 314 314 315 313 313 316 316 317 319 319 317 316 317 320 319 323 320 317 317 319
303 303 302 303 300 298 303 303 303 302 302 307 309 310 312 312 314 315 316 316 317 318 318 314 315 314 313 312 314 317 317 316 318 317 317 318 320 318 316 316 316 318 323 321
303 303 302 303 300 298 303 302 303 305 304 306 308 310 311 313 312 314 314 315 314 318 318 316 314 315 314 312 313 314 315 316 318 318 318 317 320 319 317 319 321 321 319 320
304 303 302 302 300 297 301 302 303 304 306 305 307 309 310 311 313 312 314 315 315 317 317 318 315 317 319 316 315 315 318 318 316 314 313 315 318 319 318 319 320 322 321 316
304 303 302 301 300 298 301 301 302 304 307 305 306 309 310 311 312 313 313 315 315 315 316 317 317 316 318 318 315 315 314 317 316 316 314 314 316 315 316 317 316 316 316 316
303 303 302 300 299 298 301 301 302 304 306 307 305 308 309 311 311 312 312 313 313 314 315 315 314 315 316 317 317 317 316 316 317 319 314 315 318 317 315 315 315 317 318 319
303 302 301 300 299 298 301 301 303 304 305 307 306 305 309 310 311 312 311 312 313 312 312 312 314 315 314 315 315 316 315 315 313 316 312 320 319 313 314 316 315 313 312 312
302 302 300 299 299 298 301 301 303 304 302 307 307 305 308 310 311 311 312 312 313 313 313 312 313 314 317 316 315 314 313 312 313 319 318 316 314 313 315 316 317 313 313 310
302 301 300 300 298 299 301 301 302 303 305 307 307 306 306 309 310 310 311 312 312 312 310 310 313 319 319 320 317 312 310 311 318 312 318 320 317 313 310 312 316 312 311 311
301 300 300 299 298 300 301 301 302 303 304 307 307 308 307 307 308 309 309 311 311 312 308 312 315 315 318 322 318 317 314 312 317 312 319 316 312 311 310 318 319 311 310 311
300 300 299 299 297 300 301 301 302 303 304 305 307 308 308 308 308 308 308 311 311 310 311 312 313 313 316 318 316 316 318 317 316 312 316 320 311 309 315 316 310 311 310 311
300 299 299 297 297 301 300 301 300 301 303 305 306 307 309 308 308 308 309 309 310 311 312 311 310 313 309 315 319 313 319 317 319 317 320 314 310 314 312 312 312 311 311 311
299 298 297 301 299 300 300 300 301 301 301 303 304 306 309 309 309 309 310 310 313 313 314 312 313 314 311 315 315 316 313 313 317 316 315 313 312 311 312 311 311 312 312 312
299 298 298 299 299 300 299 298 300 300 301 302 303 305 307 308 311 310 309 312 314 317 315 309 309 313 311 313 317 316 314 315 314 314 313 312 314 313 313 312 312 311 312 312
298 298 299 299 297 297 297 298 298 300 300 302 302 304 306 309 311 313 311 310 312 315 312 307 313 310 311 308 311 313 313 314 316 318 315 317 317 317 315 313 312 312 313 310
298 298 298 298 297 296 295 298 298 298 298 300 303 302 303 308 312 313 315 314 312 313 314 310 312 313 313 313 317 314 314 315 315 315 315 314 314 314 312 311 311 311 312 311
295 296 297 296 295 294 295 296 298 297 298 301 302 305 306 309 313 314 315 315 315 315 314 310 312 312 313 307 317 313 314 315 315 315 314 311 311 310 310 311 310 309 309 308
293 294 294 295 294 294 295 299 301 299 301 302 302 303 307 313 314 313 315 315 315 314 313 308 311 310 305 312 310 313 314 313 312 312 312 311 311 308 308 309 309 308 307 305
296 295 295 296 298 298 298 301 301 301 303 303 301 305 310 312 311 312 311 311 309 311 308 309 311 309 314 313 309 311 311 311 310 308 308 309 309 307 306 307 305 308 303 301
297 297 298 298 298 300 301 301 301 301 303 304 303 303 307 310 309 306 307 307 308 311 311 309 309 312 309 309 311 311 310 308 308 305 300 301 302 302 301 301 301 303 302 299
298 299 299 299 300 301 302 302 303 302 304 303 304 305 307 309 310 307 305 305 304 312 311 313 313 312 309 311 311 309 308 308 306 306 307 304 306 303 301 299 299 298 296 295
301 301 300 300 301 300 301 303 303 304 304 304 304 305 307 307 309 307 305 306 304 313 305 309 313 306 303 304 305 305 305 305 306 305 304 301 300 302 300 298 296 296 296 295
301 302 302 301 300 302 305 306 306 306 302 304 305 304 307 307 306 302 303 307 308 304 308 311 305 303 302 302 302 303 303 303 302 304 304 301 299 297 298 297 296 296 295 294
299 300 302 301 301 300 300 303 303 300 301 303 305 302 303 303 303 302 307 304 303 309 310 305 302 299 300 301 301 302 299 300 304 299 297 297 296 295 296 296 295 294 293 290
297 299 301 300 299 297 297 298 299 299 301 303 303 302 303 302 303 302 304 307 306 303 303 302 299 298 299 299 299 299 298 297 296 297 297 295 295 295 294 293 293 291 288 287
295 292 294 294 296 294 294 294 296 297 300 302 302 302 304 304 303 304 302 304 302 301 299 297 297 297 297 297 297 296 296 296 295 294 294 294 293 293 291 288 287 288 289 288
295 293 290 291 291 291 291 291 292 298 301 301 301 299 299 300 301 299 298 297 296 295 294 294 295 294 294 294 294 294 294 294 293 293 292 292 290 288 288 287 285 287 285 284

GFSNW_850_thetae_060.txt.gz
Theta_e
304 304 304 303 302 302 300 301 303 303 303 304 306 310 311 311 312 316 317 318 320 321 316 315 315 317 317 317 318 319 320 320 321 321 321 321 322 322 323 323 322 323 323 322
303 305 304 304 302 302 301 301 302 303 303 305 306 309 311 311 313 314 316 317 317 320 321 317 316 316 317 316 318 319 319 320 321 320 320 321 321 321 321 322 322 322 327 322
301 302 303 304 303 302 301 302 304 304 304 304 306 308 310 311 310 313 315 316 316 317 319 320 318 317 316 315 318 318 319 320 320 321 319 319 320 321 321 321 323 321 322 321
301 301 304 304 303 301 301 302 306 304 304 306 306 308 309 310 312 312 315 316 317 317 318 320 320 318 320 316 315 317 320 319 320 319 318 318 318 318 319 320 320 320 320 320
301 300 301 304 303 300 301 301 305 305 306 305 307 308 310 310 310 312 314 315 316 317 318 319 319 318 320 321 319 319 319 319 320 320 319 318 318 318 318 320 319 321 321 320
301 301 303 303 302 300 300 301 304 305 306 306 306 309 308 309 311 312 312 314 315 316 316 315 315 315 316 317 320 321 320 320 321 320 320 319 321 320 319 319 321 321 321 321
301 301 301 304 302 300 301 302 304 305 307 307 305 305 307 308 310 312 312 312 314 313 313 312 314 315 315 316 319 320 322 321 322 320 319 328 320 319 320 320 320 321 320 320
301 301 301 303 302 300 301 301 303 304 309 307 307 305 306 307 309 311 311 313 313 313 312 313 312 315 316 318 319 321 321 321 322 327 322 320 319 317 319 321 321 321 320 320
302 301 301 302 301 300 301 301 303 305 308 307 306 306 305 308 311 312 311 312 313 313 315 315 312 312 314 320 320 317 317 318 323 319 324 329 320 320 318 319 322 320 318 318
302 302 302 302 301 300 301 301 302 304 305 305 306 308 307 306 310 313 312 313 313 313 315 319 318 314 316 320 323 321 319 319 324 323 325 323 320 317 315 321 323 320 318 318
301 303 303 301 300 300 301 301 302 304 305 305 306 306 306 306 309 313 311 314 313 315 316 316 317 322 317 319 319 321 321 323 324 323 327 327 315 314 320 321 319 319 317 317
302 302 301 300 300 300 300 301 301 303 305 305 304 306 307 307 307 310 311 311 312 313 315 316 315 321 319 317 320 319 323 322 324 321 324 321 316 319 317 318 319 317 317 316
303 301 300 299 299 300 300 302 301 302 304 304 305 305 307 307 307 309 310 309 310 312 312 315 317 322 319 325 320 319 318 317 321 320 321 319 317 316 315 315 315 315 315 315
300 300 299 299 300 300 300 301 302 301 302 305 305 304 304 307 308 308 310 311 314 315 314 315 315 320 315 320 318 320 320 318 319 321 321 317 317 317 317 315 313 312 313 313
299 299 299 299 299 299 301 301 301 301 302 304 304 304 304 305 309 309 310 312 314 317 317 311 316 317 318 317 317 320 317 319 322 323 321 320 321 320 319 316 314 313 312 311
299 299 299 299 299 299 300 299 299 299 300 301 304 304 303 305 306 310 311 311 312 314 315 317 315 316 317 321 320 318 316 317 318 320 319 319 317 315 315 315 314 312 311 309
298 299 299 299 300 300 299 299 300 298 297 301 302 305 305 303 305 311 313 312 312 313 313 315 316 317 315 319 321 317 318 318 318 316 314 315 314 315 314 313 310 309 308 306
299 297 297 297 296 296 298 299 296 296 300 302 305 306 306 308 308 312 313 314 314 314 314 314 317 316 316 319 317 316 316 317 314 314 313 314 312 311 310 308 307 305 304 302
297 296 295 295 296 295 298 295 300 297 302 303 302 306 310 308 311 311 311 313 311 311 311 315 316 317 317 315 315 315 316 315 317 313 309 308 308 307 305 304 303 303 301 300
295 296 296 297 296 297 296 300 300 299 302 303 304 304 305 307 309 308 310 310 313 312 310 311 311 318 315 315 314 314 314 313 310 308 307 307 306 305 303 303 303 301 299 298
296 298 300 298 297 298 301 300 301 302 304 303 304 304 308 309 314 312 308 309 308 314 312 316 316 315 313 307 311 310 309 308 307 307 306 306 305 304 301 300 299 298 297 295
299 300 299 299 300 301 302 303 304 305 305 306 306 305 307 307 310 312 308 310 308 317 307 310 315 308 304 304 305 305 304 304 303 303 303 302 301 300 299 296 295 293 293 292
301 301 301 302 299 302 305 304 306 307 306 305 306 307 308 307 308 306 308 311 310 305 310 313 305 301 301 301 301 301 301 302 302 301 299 298 297 296 294 293 292 292 291 292
300 300 303 303 304 302 302 305 306 300 302 304 305 303 307 303 307 306 312 308 307 311 314 307 303 298 298 298 298 300 298 299 298 297 296 295 294 294 294 293 293 293 292 291
296 297 299 300 297 295 295 297 299 298 301 304 304 304 305 303 306 306 307 310 309 306 304 301 297 296 296 295 295 295 295 295 295 294 294 292 292 293 292 292 292 291 289 287
293 290 292 292 295 294 293 292 294 296 299 302 303 303 307 306 307 305 304 307 301 299 297 295 294 293 293 293 293 292 292 291 291 291 291 291 291 291 290 290 289 288 288 288
293 292 288 288 289 290 290 290 290 294 298 301 302 301 300 302 301 299 297 297 296 295 293 292 292 291 290 290 290 290 290 290 290 290 290 290 289 288 287 287 286 287 287 286

GFSNW_850_thetae_063.txt.gz
Theta_e
305 305 305 304 304 303 302 303 304 303 304 305 307 308 310 311 311 311 315 319 316 319 320 317 317 318 319 318 319 320 320 321 324 322 321 321 323 323 324 325 324 324 325 325
302 303 304 305 304 304 302 303 303 303 304 307 309 307 309 310 312 312 315 317 319 320 321 320 316 317 318 318 319 321 320 320 322 321 322 322 322 323 324 324 323 324 329 324
301 301 304 304 304 304 302 302 303 305 306 305 309 308 308 309 309 312 314 315 318 321 322 321 320 318 317 318 319 319 320 320 321 323 322 321 321 321 322 323 326 323 322 322
300 301 301 304 305 304 302 301 305 305 307 308 309 308 308 308 309 311 312 315 316 320 320 320 321 319 319 318 316 319 320 320 320 320 320 320 320 320 321 322 322 323 322 321
300 300 301 305 304 304 302 301 305 305 307 306 308 308 308 308 309 311 313 314 315 317 320 320 321 319 319 318 319 320 320 321 321 320 320 319 319 319 319 319 319 319 319 320
300 300 301 301 304 304 302 302 304 306 307 309 309 310 307 308 309 310 311 312 315 316 319 317 317 317 316 319 321 320 321 323 322 322 320 320 323 320 319 319 320 320 321 321
301 301 300 301 302 302 301 302 304 307 308 309 310 308 308 308 309 310 311 311 314 315 314 314 314 315 315 316 317 321 321 322 324 325 324 327 321 320 320 320 320 320 320 320
302 302 301 301 302 303 301 303 304 306 310 308 307 307 308 307 307 310 311 312 312 314 313 314 313 315 316 316 317 320 323 323 325 327 325 321 320 320 320 320 320 320 320 320
301 301 301 301 301 303 301 302 305 306 309 308 307 308 307 309 309 310 310 312 314 314 315 315 313 315 314 318 318 318 320 324 327 325 324 326 321 320 320 321 324 321 320 320
301 301 301 301 302 302 302 303 304 306 307 307 307 308 308 307 309 311 311 313 314 314 317 319 315 313 311 316 322 322 322 324 327 325 325 322 320 320 320 323 324 320 320 320
300 301 301 301 302 301 301 303 304 306 306 306 307 308 307 306 307 312 311 314 315 317 318 317 316 320 314 315 317 323 323 324 327 325 328 327 319 319 322 323 321 321 321 320
301 302 302 301 302 301 301 303 304 305 306 307 308 308 308 307 306 308 310 313 313 313 314 317 316 322 321 316 322 320 324 323 324 323 324 322 318 320 319 320 322 322 321 320
303 302 302 301 302 300 302 303 303 303 304 307 307 306 309 308 309 310 311 312 312 312 312 315 317 319 317 323 319 318 320 320 323 323 322 321 320 320 319 320 320 321 320 320
302 302 301 302 300 301 302 302 303 304 305 307 307 306 305 307 308 309 311 311 312 312 313 316 319 319 313 319 316 317 316 317 319 319 318 318 320 320 320 320 319 319 317 318
303 302 302 300 300 301 302 302 303 303 304 307 307 306 305 305 305 308 311 313 312 313 315 317 316 312 312 315 317 317 315 316 321 322 318 320 320 320 322 321 320 318 317 317
300 300 300 300 300 300 301 301 302 303 304 305 306 305 306 304 304 308 310 311 313 313 314 316 312 310 314 321 319 316 313 313 315 318 318 319 320 320 317 320 320 319 317 317
299 300 300 300 300 301 302 302 302 302 303 303 305 306 305 306 304 305 309 309 312 313 314 316 315 315 316 321 320 314 314 315 315 316 317 318 319 318 316 316 317 316 315 314
299 300 299 299 300 300 300 300 301 302 303 303 304 306 307 306 306 308 311 310 310 311 312 313 316 316 317 319 315 314 314 314 315 316 318 318 317 315 314 313 313 312 313 312
299 299 299 299 300 301 301 298 301 302 304 304 303 307 309 309 308 309 311 311 313 312 316 316 315 317 318 315 314 314 314 315 316 316 317 317 314 314 313 311 310 311 309 308
299 299 300 300 300 297 299 301 302 302 303 304 304 306 309 307 309 311 311 313 314 313 315 314 316 318 314 313 311 315 316 315 316 315 315 314 313 313 311 309 309 308 306 305
300 301 299 298 298 301 302 301 303 302 303 303 304 305 307 304 306 311 311 313 312 315 315 316 314 315 309 307 309 310 311 311 312 311 310 310 310 311 309 307 306 304 303 302
300 300 298 299 300 301 303 303 304 304 305 306 307 306 303 301 301 309 308 313 310 316 310 311 312 305 301 302 303 303 305 306 306 306 306 305 305 305 303 301 300 299 297 296
301 302 301 301 301 305 305 303 305 307 307 306 307 307 304 302 305 309 311 314 313 308 310 310 304 300 298 298 299 299 300 300 299 300 300 300 300 299 299 296 295 294 293 292
300 301 303 304 304 302 301 299 305 301 303 306 308 306 308 305 309 307 312 307 308 312 313 307 301 296 296 295 295 295 293 294 294 294 295 295 294 292 291 290 290 290 289 289
296 297 297 298 296 296 295 294 298 297 300 305 306 305 305 305 308 305 306 310 310 305 304 301 296 294 293 292 292 291 291 291 290 290 290 289 289 289 288 289 289 289 289 289
293 290 293 292 296 295 292 292 293 294 297 303 304 303 310 306 307 306 304 307 301 300 298 295 293 291 291 290 290 290 290 289 288 288 288 288 288 288 288 289 288 288 288 287
293 292 288 289 290 290 289 290 291 293 296 302 303 302 300 303 303 299 296 297 295 294 294 292 291 290 290 289 289 288 288 287 287 287 287 287 287 287 287 286 285 286 285 285

GFSNW_850_thetae_066.txt.gz
Theta_e
304 305 304 305 305 305 303 303 305 304 304 306 306 307 309 308 308 310 312 313 313 315 316 319 318 318 319 318 318 319 320 322 324 322 321 321 321 323 326 328 327 327 329 326
303 303 304 304 304 305 303 303 303 304 304 307 306 308 307 309 309 311 313 313 314 318 320 319 320 318 319 318 318 319 320 320 323 323 322 322 320 322 323 325 326 327 330 326
302 303 303 304 305 305 304 302 304 305 305 306 308 308 308 308 307 310 312 313 314 317 319 320 321 319 318 318 320 317 320 322 322 325 325 322 321 321 324 325 328 327 327 325
302 302 303 304 305 304 304 302 305 306 307 306 308 307 308 309 308 308 311 313 313 316 318 319 320 320 318 318 318 319 322 323 322 320 321 321 322 321 320 320 323 326 325 322
300 301 301 302 303 303 304 300 305 305 307 306 307 308 309 309 308 309 309 313 314 316 318 318 317 318 319 319 318 319 321 323 322 323 321 321 321 321 321 320 320 321 322 322
299 300 300 301 301 304 304 301 304 306 306 308 307 309 310 308 309 308 309 310 314 315 315 318 318 317 318 319 321 320 321 322 322 323 321 320 320 321 320 320 321 321 321 321
301 299 300 300 301 301 303 302 304 307 308 309 309 308 308 308 309 310 308 308 314 314 314 317 316 316 316 317 318 319 323 323 321 325 321 324 321 321 320 320 320 320 320 320
300 300 300 300 300 301 302 302 305 306 309 309 308 308 309 308 309 309 310 309 309 313 314 317 317 316 316 317 317 318 319 325 323 324 324 322 320 321 321 321 321 321 320 320
301 302 300 301 300 301 302 302 304 306 310 309 307 309 309 310 310 310 309 308 311 315 316 314 317 318 317 317 318 317 318 324 325 327 324 325 323 321 320 321 322 321 321 322
301 302 300 301 301 301 300 302 304 306 308 308 308 309 309 308 309 311 310 309 313 314 317 316 317 317 315 317 321 320 321 323 324 323 325 324 321 321 320 322 324 322 321 321
301 301 301 301 301 301 301 303 304 306 307 307 307 307 308 308 309 311 311 312 313 316 318 318 316 319 315 314 315 321 321 323 324 324 324 325 321 320 321 322 322 321 321 321
301 302 302 302 301 303 301 302 303 305 306 307 307 307 308 309 307 309 310 311 313 313 315 316 317 324 322 316 314 317 321 321 323 323 324 324 320 320 320 320 323 321 322 322
301 303 302 302 301 302 302 303 303 305 305 307 308 309 310 310 309 309 311 312 312 313 313 316 317 318 317 323 320 317 321 322 323 322 322 322 322 320 319 320 320 321 321 322
301 301 301 301 301 301 302 303 305 305 304 307 307 308 309 308 309 310 309 311 312 312 314 317 319 319 317 320 318 317 317 320 322 321 321 319 319 318 319 320 321 320 320 319
302 301 302 302 302 302 302 303 304 304 304 306 308 307 307 307 309 309 309 311 312 311 313 320 317 316 317 316 316 318 316 316 319 322 319 321 321 321 321 320 320 322 321 319
302 302 302 302 301 301 302 302 303 303 303 306 308 307 307 307 307 308 308 309 310 313 313 315 314 313 314 323 316 314 314 313 312 316 317 318 318 319 318 317 318 320 320 319
302 301 301 301 300 301 303 303 303 303 305 305 307 307 306 307 307 308 308 308 308 312 312 314 314 314 313 316 318 314 313 314 314 315 315 317 317 319 318 317 317 318 318 318
300 300 300 301 301 301 302 303 303 303 304 304 306 306 308 307 308 308 308 309 308 311 312 313 316 315 317 318 315 314 314 314 313 314 315 316 318 318 317 315 315 314 315 315
300 300 300 301 302 302 302 302 303 303 304 304 305 307 308 307 307 308 310 309 312 310 314 313 314 316 317 316 314 315 316 316 316 316 316 317 317 317 315 314 313 312 313 312
300 301 301 301 299 301 301 301 302 303 303 304 305 305 307 308 307 310 309 309 311 312 312 311 314 315 312 307 310 311 312 313 314 315 316 315 315 314 314 311 310 311 310 309
301 300 300 300 301 302 303 302 303 303 304 303 304 305 307 304 306 306 305 304 308 313 314 314 314 315 304 301 303 303 305 308 310 310 311 310 311 311 310 308 307 306 306 305
301 299 299 301 302 302 303 304 305 304 304 306 307 307 306 302 303 306 308 308 308 314 313 315 312 303 299 298 298 298 299 302 304 305 305 305 307 307 305 303 302 302 301 299
302 302 301 303 302 303 303 303 304 307 307 307 307 306 304 303 303 303 306 309 311 308 311 306 301 298 296 295 294 293 295 298 299 299 299 299 299 299 301 298 296 296 295 293
301 302 302 303 302 301 299 298 299 298 300 303 307 306 306 303 304 303 308 305 304 312 312 304 298 295 294 292 292 292 291 292 292 292 292 292 292 291 291 292 292 292 291 290
296 297 298 297 296 295 294 294 296 295 295 300 306 305 305 303 304 303 305 309 305 303 302 298 295 293 291 291 291 290 290 289 289 289 288 288 288 288 287 288 289 290 289 289
292 290 294 291 295 293 292 292 293 292 294 301 304 304 306 305 305 304 301 303 297 297 295 293 292 291 291 290 290 289 289 288 288 287 287 287 287 286 286 287 287 287 287 286
293 293 289 289 290 289 291 290 291 292 294 301 303 301 301 303 301 296 295 295 294 291 290 289 290 289 289 288 288 288 287 287 286 286 286 285 285 286 286 285 284 285 284 284

GFSNW_850_thetae_072.txt.gz
Theta_e
301 302 303 304 304 305 304 304 304 304 304 303 303 302 305 305 306 306 306 308 308 309 309 311 313 313 315 315 314 316 316 316 317 317 318 318 317 319 319 323 327 325 319 321
301 301 302 303 304 304 304 304 301 303 304 304 304 303 303 304 305 305 306 307 308 308 308 310 314 313 316 316 315 315 314 316 318 317 318 318 317 318 319 322 322 324 322 321
301 301 301 301 302 303 303 303 302 302 303 304 304 304 303 304 304 304 305 307 307 307 307 309 313 314 318 318 317 315 315 317 316 317 317 319 319 319 319 321 321 322 322 323
301 302 302 302 302 302 303 301 301 304 305 304 304 304 304 304 306 305 306 305 307 308 308 309 314 318 318 319 317 317 316 317 316 317 318 319 318 319 320 320 320 321 322 322
298 299 301 302 302 302 303 299 301 303 304 304 304 305 304 305 305 305 306 306 307 308 308 308 310 317 317 320 317 317 315 317 317 318 318 318 319 319 320 320 317 320 320 321
298 298 298 299 302 303 304 303 302 304 304 305 305 304 304 304 305 305 305 306 305 305 306 307 314 316 316 317 316 316 316 317 316 318 318 319 319 319 320 320 319 318 318 319
299 298 298 298 299 302 302 303 302 303 305 304 305 305 304 304 305 305 306 306 306 306 308 311 313 314 316 316 316 315 317 317 315 314 317 322 318 319 320 320 319 318 316 316
301 300 299 299 298 299 301 302 302 303 305 304 305 305 304 304 304 306 305 306 306 306 307 312 312 312 314 313 315 316 316 318 314 317 318 319 319 318 319 319 318 318 315 315
300 301 299 299 299 299 300 302 302 302 304 304 304 304 305 305 304 304 305 306 307 307 308 310 312 313 315 316 316 315 317 316 316 313 318 317 317 317 318 318 318 317 316 316
301 300 301 300 300 299 299 301 300 301 300 305 304 305 305 305 304 304 304 305 305 307 305 306 307 310 314 315 315 317 312 313 314 312 315 316 316 317 318 319 318 317 318 317
302 300 301 300 300 300 300 301 300 301 300 305 304 305 305 305 305 304 304 306 306 306 305 306 306 305 310 313 314 315 316 316 315 313 315 318 317 318 319 316 317 319 319 319
301 301 301 301 301 301 300 300 300 301 301 305 305 306 306 305 305 306 306 306 306 307 306 307 306 305 303 309 312 314 315 313 314 314 314 315 318 319 319 319 317 319 319 321
301 301 301 301 301 301 301 300 300 301 301 303 306 307 307 308 307 307 306 307 308 309 309 308 309 308 306 305 308 310 313 315 315 316 316 318 318 318 318 319 318 316 318 319
301 301 301 301 301 300 301 300 300 301 300 302 306 307 307 307 309 309 309 309 309 309 308 307 307 310 310 306 308 308 308 315 315 316 317 317 317 317 317 317 318 315 317 317
301 301 301 301 300 301 300 300 301 301 302 304 306 306 307 307 308 308 308 309 309 310 307 304 307 309 310 309 309 310 313 315 314 314 316 316 317 317 317 315 318 316 317 318
300 301 300 300 300 300 300 301 301 302 301 306 303 306 306 307 307 307 308 309 309 309 308 305 309 311 310 310 307 308 312 312 315 310 313 316 317 315 315 313 313 314 318 318
301 301 301 300 300 300 302 302 301 302 305 305 305 304 306 305 306 307 307 308 308 309 309 307 309 311 310 306 309 308 308 314 315 315 314 315 316 318 318 317 316 316 316 317
301 301 301 300 302 301 303 303 304 304 304 304 301 306 305 306 306 306 308 308 308 308 308 309 308 309 309 309 307 305 304 309 314 314 315 314 316 317 316 315 315 316 315 315
301 301 301 301 301 302 303 303 304 304 304 299 298 300 307 307 306 307 307 307 300 306 300 305 308 308 306 302 301 302 302 302 305 312 313 315 315 313 313 314 313 314 312 312
301 302 303 301 302 302 303 302 302 302 303 303 299 304 304 305 304 303 300 302 299 302 302 307 306 303 298 297 297 297 298 301 305 309 307 310 308 309 310 311 310 310 310 308
300 302 301 301 302 302 301 301 300 301 300 302 302 303 303 304 304 304 303 302 302 300 303 305 306 300 297 294 294 295 296 298 301 301 302 304 305 304 305 305 306 305 304 302
301 301 301 301 302 301 298 296 299 300 303 301 300 302 302 302 303 303 302 304 302 302 303 301 300 295 293 292 291 292 293 294 298 300 301 301 301 300 299 297 296 296 295 293
302 300 300 299 296 294 295 298 299 301 297 297 300 298 302 301 300 299 303 306 307 303 301 297 294 292 291 290 289 289 289 290 292 292 293 294 292 292 293 291 290 290 290 289
298 295 292 291 291 292 293 294 295 295 294 294 297 298 301 299 301 301 306 303 300 300 296 293 292 291 290 289 288 288 287 287 288 287 288 288 288 287 287 287 288 289 288 288
292 292 290 289 289 289 291 291 293 292 293 294 301 301 303 301 302 297 298 297 294 293 292 292 290 289 288 288 287 286 286 286 285 285 285 285 285 286 285 286 286 287 287 286
288 287 286 287 284 283 288 289 291 291 293 296 298 301 301 298 293 293 293 293 291 289 288 287 288 287 287 286 285 285 284 284 284 284 284 284 284 284 284 284 284 284 284 284
289 286 286 287 286 286 286 287 288 291 292 295 296 293 294 295 293 291 290 287 286 286 285 285 286 285 285 285 284 284 284 283 283 283 283 283 283 284 284 283 282 283 282 282

GFSNW_850_thetae_075.txt.gz
Theta_e
299 299 300 301 302 303 303 304 304 304 305 302 301 303 301 303 305 305 305 306 307 308 308 309 312 312 312 310 315 313 312 314 316 316 316 316 316 317 322 320 326 321 318 321
299 299 300 300 301 303 303 304 301 304 304 304 303 303 303 302 304 305 305 307 306 306 307 308 311 312 312 313 317 313 313 314 316 316 315 316 317 316 317 320 321 322 321 322
299 300 300 301 301 302 303 300 302 303 304 304 304 304 304 302 302 303 305 305 305 306 306 307 308 311 313 316 316 317 316 314 316 317 316 317 318 318 318 319 320 321 322 321
300 300 300 301 301 301 302 300 301 303 304 304 304 304 304 304 303 303 303 303 304 304 306 307 308 310 313 313 315 316 315 316 315 315 315 318 319 318 318 318 318 320 320 321
301 301 301 301 301 301 301 299 301 303 303 304 304 305 304 305 304 304 303 305 306 304 305 305 307 309 312 316 317 317 315 316 316 316 316 318 319 318 317 317 318 318 319 319
297 298 299 301 301 301 301 300 301 303 305 305 304 304 305 305 304 304 303 304 305 305 305 305 306 306 312 316 317 317 317 315 315 317 318 319 318 317 317 318 318 318 318 318
296 297 297 298 298 300 302 301 302 303 305 305 305 304 304 305 304 304 305 303 303 304 305 305 306 305 308 314 315 316 316 317 313 315 317 320 317 317 317 318 318 319 317 315
297 297 298 298 298 298 300 302 302 303 304 305 305 305 304 303 303 304 304 305 305 305 305 305 307 308 311 312 313 315 315 317 317 317 316 316 317 317 318 319 319 318 318 316
299 299 298 300 299 298 298 300 301 303 304 305 304 305 304 303 303 303 304 305 305 304 303 305 307 309 311 314 315 313 314 315 316 315 317 315 315 315 316 317 319 317 316 316
301 300 300 299 300 299 298 299 300 301 301 304 304 305 305 303 303 302 303 304 304 305 303 305 306 308 312 313 313 315 312 312 316 317 318 315 314 316 317 321 317 316 317 318
300 301 300 300 300 299 299 299 300 301 300 303 304 304 304 304 304 303 303 305 304 303 304 307 304 302 308 309 311 314 314 314 309 312 315 318 316 318 318 316 316 318 318 318
301 302 301 301 299 300 299 299 300 300 301 302 304 304 304 304 304 304 304 305 305 305 304 304 303 303 300 307 309 311 313 312 312 315 314 314 317 318 318 318 317 317 317 317
300 300 301 301 300 301 300 300 300 300 301 301 302 305 304 304 304 305 305 305 307 307 307 306 306 306 304 304 305 308 309 313 314 315 315 316 318 318 318 318 318 317 318 318
301 302 300 301 300 301 300 299 300 301 300 301 303 304 306 305 305 305 305 305 306 307 309 305 302 303 307 304 306 306 307 313 315 315 314 316 316 317 316 316 317 317 316 317
301 301 301 300 300 300 300 300 300 300 301 300 303 305 306 307 308 307 306 306 308 308 306 303 304 306 308 306 307 308 308 310 312 310 312 315 314 315 314 315 317 316 317 317
301 300 301 301 300 300 301 300 300 300 301 302 304 305 307 307 308 308 308 308 308 308 308 304 308 311 308 302 306 308 307 308 308 310 311 313 314 315 316 316 314 315 313 314
301 301 301 301 302 301 300 301 301 300 301 300 304 306 305 307 307 306 307 307 308 308 308 306 307 309 308 303 304 307 305 307 310 310 309 314 315 315 316 315 313 315 315 316
301 301 302 301 301 300 301 302 301 301 300 300 304 304 306 306 306 306 306 307 306 307 307 308 307 308 308 309 302 302 302 304 309 311 308 310 313 315 315 315 315 315 315 313
301 301 300 300 301 301 303 302 302 302 303 299 298 302 307 306 305 306 306 306 299 304 302 304 305 306 304 299 299 298 296 298 299 307 307 307 311 309 311 311 309 309 307 307
300 300 300 299 302 302 301 302 302 302 301 302 298 303 306 304 303 302 302 301 299 302 302 306 304 301 295 294 294 293 294 297 301 298 302 303 303 305 306 306 305 303 300 301
301 300 300 300 301 301 302 300 299 299 299 301 302 302 302 304 303 303 302 298 301 301 302 303 304 297 293 292 292 291 292 293 298 295 294 295 298 298 298 298 297 297 296 296
300 301 301 301 298 298 296 293 297 300 302 300 300 300 301 302 303 302 302 303 302 302 301 301 297 293 291 290 289 289 290 292 293 295 296 297 298 295 295 293 291 291 290 289
300 300 297 296 292 290 295 296 299 298 296 295 298 301 300 300 300 300 303 306 305 300 297 294 292 291 290 289 288 287 287 287 289 289 291 293 290 290 291 289 288 288 288 287
296 292 288 288 287 290 291 292 292 294 293 293 296 299 300 299 300 301 305 300 297 296 294 291 291 289 288 287 286 286 285 285 285 286 286 286 287 286 286 286 286 287 286 286
289 289 287 288 287 287 288 290 292 290 291 294 299 301 301 299 298 293 294 291 290 291 290 290 288 287 286 285 285 284 284 284 283 283 283 283 283 283 283 284 285 286 286 285
287 285 285 285 284 285 286 287 288 290 292 296 297 299 295 291 289 289 290 290 289 287 286 285 286 285 285 284 284 283 283 283 282 282 282 282 283 283 282 283 284 283 284 283
286 284 284 284 284 283 284 286 285 290 293 291 293 290 290 292 290 289 287 284 284 284 283 283 284 284 284 283 283 282 282 282 282 281 281 282 282 283 283 282 281 282 281 281

GFSNW_850_thetae_078.txt.gz
Theta_e
295 297 298 298 298 300 301 302 303 304 304 305 301 304 302 301 303 304 303 305 305 306 306 307 310 312 312 311 313 315 311 310 313 314 314 313 313 315 318 319 321 318 317 319
297 298 298 299 299 300 301 303 303 304 304 305 304 303 303 302 302 303 305 305 305 305 305 306 308 310 311 313 314 315 316 314 312 314 313 314 316 315 317 319 319 320 320 320
298 299 299 299 299 300 301 300 301 303 305 304 305 304 304 304 301 302 304 305 304 305 306 305 307 307 307 309 312 314 314 317 313 313 313 312 316 316 316 319 317 318 319 320
299 299 299 299 299 300 301 300 300 303 303 305 304 304 304 304 303 302 302 303 304 304 305 304 305 306 306 310 313 315 315 316 313 314 312 313 317 317 317 317 316 317 318 320
300 299 300 299 300 300 300 299 300 302 301 304 304 304 304 305 304 303 302 302 303 303 304 304 304 306 307 308 314 315 314 316 314 314 313 314 314 315 315 316 316 317 316 316
298 299 299 300 300 300 301 299 301 303 303 303 305 304 304 305 305 304 303 303 303 304 304 303 303 303 304 305 306 312 315 313 314 316 315 316 317 315 315 316 316 317 318 316
296 296 296 298 300 300 300 300 300 303 304 304 305 304 304 305 304 304 303 303 304 303 304 304 304 304 304 305 306 306 313 312 312 314 315 317 315 315 316 316 316 315 316 316
297 296 296 296 297 299 302 300 301 302 303 304 304 304 304 304 304 304 304 304 303 303 303 304 305 304 308 308 308 311 312 314 314 317 317 315 315 317 317 317 317 315 316 316
298 298 297 297 297 298 299 299 301 302 302 304 304 304 304 304 304 304 304 303 304 303 303 305 307 308 308 311 314 311 311 313 316 315 319 318 313 313 316 316 317 316 316 316
299 299 299 298 297 297 298 298 299 299 300 303 304 305 305 303 303 303 303 303 304 305 304 306 307 307 308 310 314 313 314 313 317 316 316 316 314 314 315 318 317 316 318 317
301 300 300 300 299 298 299 299 299 299 300 302 304 304 304 303 303 303 303 304 303 303 305 307 306 302 305 308 308 313 312 312 313 314 316 317 314 317 319 315 316 317 317 317
300 300 300 300 300 299 298 300 299 299 300 302 302 303 304 304 304 303 303 304 303 303 302 302 302 302 298 306 307 308 310 310 311 312 313 312 314 317 317 318 317 317 318 317
300 300 301 300 300 300 299 300 299 299 300 300 301 302 304 304 304 304 304 304 304 304 305 302 303 304 302 303 304 306 305 309 311 312 312 313 314 315 317 318 318 318 318 318
301 300 301 301 301 300 299 299 300 299 300 300 300 301 301 304 304 304 304 304 305 307 307 303 301 303 304 302 304 304 304 307 310 310 310 312 313 313 315 317 316 318 317 316
301 300 300 301 301 300 299 299 299 299 300 297 300 304 302 304 304 304 304 304 305 307 306 300 302 303 307 304 304 306 307 308 308 308 309 308 310 313 313 314 315 315 316 316
301 300 300 301 301 300 299 300 299 299 300 302 301 304 305 305 306 304 304 304 305 307 306 303 307 309 306 301 305 305 306 306 306 307 307 310 312 312 312 313 315 315 314 314
300 301 300 300 299 300 300 301 300 299 301 302 302 304 306 306 307 307 307 306 307 307 307 305 305 307 307 300 302 304 302 301 303 305 305 310 308 307 310 313 313 313 313 313
300 300 301 301 300 300 301 301 301 300 300 300 301 305 304 306 302 303 305 306 307 307 307 307 305 307 306 307 300 299 298 298 302 303 304 303 304 308 308 308 309 312 312 309
300 300 300 300 300 300 301 300 299 300 301 300 300 305 306 304 304 305 305 305 302 303 305 306 306 305 301 296 296 295 295 294 295 299 302 304 304 303 302 303 305 306 303 303
301 300 301 300 300 301 300 300 301 301 301 300 301 301 305 304 302 301 298 300 300 303 303 304 303 297 294 292 292 291 291 292 294 296 298 300 297 297 295 295 296 298 297 297
301 299 298 300 300 301 300 299 300 299 300 300 301 301 303 303 301 302 301 297 297 299 301 305 301 295 292 290 290 289 290 291 292 292 293 294 296 293 293 293 291 292 292 292
300 301 300 298 297 296 297 294 299 300 302 298 301 299 300 302 303 301 303 302 301 301 299 297 293 292 290 289 288 287 288 288 289 290 291 290 293 289 288 289 289 290 290 289
299 297 294 294 290 288 293 293 297 296 295 294 298 299 299 299 301 301 303 305 303 297 294 292 291 290 288 287 286 285 285 286 286 286 287 288 287 284 285 287 286 286 287 286
293 290 286 285 285 288 289 291 292 292 292 293 297 299 299 299 300 300 301 295 294 292 289 289 289 287 286 285 284 284 283 283 283 283 283 284 284 283 283 284 284 284 284 284
288 287 285 285 286 285 286 288 290 289 291 295 299 301 298 295 294 292 292 289 288 290 287 287 286 285 284 284 283 283 282 282 282 282 281 281 281 281 281 282 282 283 283 284
285 283 284 283 283 284 284 285 286 288 292 295 296 296 293 291 289 288 287 289 287 284 285 283 284 284 283 283 282 282 281 281 281 281 280 281 281 281 281 281 282 282 283 283
285 283 283 282 282 282 283 284 283 289 291 290 291 286 287 289 286 285 285 282 283 282 281 282 282 282 282 282 282 281 281 281 281 281 281 280 281 282 282 281 280 281 281 281

GFSNW_850_thetae_084.txt.gz
Theta_e
294 294 294 294 294 295 296 298 301 300 301 302 301 305 304 304 304 303 304 306 307 308 308 308 308 308 311 311 312 314 316 318 315 314 315 315 315 316 317 320 318 321 321 322
294 295 295 295 295 295 297 299 299 300 301 304 303 304 306 305 304 305 305 304 305 306 307 307 307 308 310 309 310 311 312 317 318 315 315 315 315 315 316 317 319 321 326 322
295 295 295 295 295 295 296 298 301 300 301 301 304 304 304 307 304 304 304 306 306 307 307 307 307 307 307 309 308 307 309 311 315 319 318 318 318 317 316 317 321 319 320 319
297 297 297 297 297 296 296 298 299 300 303 302 302 305 304 305 306 303 304 304 306 306 307 308 308 308 308 307 307 310 311 311 310 311 313 314 315 317 318 318 318 321 319 319
299 299 298 299 298 298 298 298 300 300 301 301 303 303 304 305 304 305 305 305 305 306 307 307 307 307 308 307 308 308 309 313 313 314 313 314 316 316 317 318 318 318 318 319
296 298 299 299 299 298 299 298 299 301 301 303 304 305 306 306 305 305 304 305 305 305 306 305 306 306 305 306 307 308 309 310 311 313 314 315 316 317 319 318 318 318 319 319
296 296 296 298 299 299 298 299 299 300 302 303 304 303 304 304 304 305 305 304 305 305 304 304 305 305 305 306 307 307 308 310 312 312 314 317 316 316 319 319 318 317 317 318
296 296 296 296 297 298 299 299 300 300 303 303 304 304 305 304 305 305 305 305 304 304 304 307 307 308 307 307 307 308 308 309 311 311 316 315 315 313 317 321 319 318 318 318
296 296 296 296 296 296 298 299 299 301 304 304 302 304 304 305 306 306 305 304 304 303 305 308 308 308 308 309 310 309 308 309 311 312 316 314 314 313 315 316 322 320 320 321
298 298 298 298 298 297 296 298 298 299 300 301 301 304 305 305 305 306 305 305 304 303 306 308 308 307 307 308 310 310 310 309 311 311 315 315 316 316 316 322 322 318 319 320
299 299 299 298 298 297 297 296 298 298 300 302 302 302 302 303 305 306 305 305 303 303 308 308 308 307 307 307 307 314 311 310 312 311 315 315 314 315 317 317 318 318 319 319
300 299 299 300 299 299 297 297 297 298 298 301 301 303 303 304 304 304 305 305 305 305 307 308 308 309 310 308 309 308 308 314 315 315 313 312 310 313 314 313 315 315 317 319
300 300 300 300 299 299 298 298 298 297 297 299 299 302 303 304 304 304 304 304 305 305 306 307 308 308 308 310 309 309 309 310 312 311 312 311 310 312 310 311 312 314 315 315
300 301 301 300 300 299 299 298 298 297 298 300 302 300 301 304 304 304 304 304 305 305 305 306 308 308 307 309 309 309 309 309 309 310 310 311 310 311 309 309 309 310 313 316
301 301 301 301 300 299 299 298 298 298 299 301 301 301 301 302 304 304 304 304 305 305 306 307 309 307 309 309 309 309 309 310 311 312 309 309 311 308 307 307 306 305 307 314
301 301 301 301 300 300 299 299 298 298 299 300 302 302 302 303 303 304 304 304 304 305 305 307 307 308 308 310 310 307 305 303 304 306 303 305 306 307 304 304 303 301 301 302
300 300 301 300 300 300 299 300 300 298 299 301 303 304 302 304 302 304 305 304 304 305 306 307 307 308 308 309 311 302 299 299 301 299 300 306 304 301 300 301 302 299 298 298
301 301 300 300 300 300 300 300 300 299 299 300 303 304 304 303 304 305 304 305 305 304 306 307 308 308 308 306 298 296 295 296 299 297 297 299 299 298 297 298 298 298 296 295
300 300 299 298 299 300 300 299 299 299 300 302 301 304 305 303 303 303 304 305 306 303 307 307 307 304 300 294 294 293 292 292 293 294 296 296 295 294 295 294 295 295 293 291
299 300 300 300 300 299 299 299 299 299 301 300 303 302 304 303 302 303 302 302 306 308 306 304 302 296 292 291 290 289 289 289 290 292 295 293 293 292 291 291 290 290 289 288
300 300 300 299 299 300 300 299 301 300 301 300 301 302 304 301 306 305 300 306 305 308 306 306 301 297 291 289 288 288 287 287 288 288 289 289 289 289 289 288 287 286 285 284
300 299 300 299 297 298 302 302 301 302 303 300 302 300 300 301 301 304 303 305 305 306 299 301 298 292 289 288 287 287 286 285 286 285 285 285 286 286 286 284 283 284 282 281
299 298 293 293 291 295 298 300 300 300 296 296 298 301 300 301 302 302 305 305 302 298 298 295 292 288 287 286 286 285 284 284 283 283 282 283 284 284 283 282 281 282 282 281
292 292 291 291 291 292 292 293 294 293 293 293 297 301 302 299 301 300 301 296 299 299 297 293 289 286 285 285 284 284 282 281 281 280 280 280 281 281 281 281 281 281 280 280
289 290 291 290 287 287 287 288 290 288 289 294 301 299 298 297 296 296 297 296 294 293 292 289 286 285 284 284 283 282 281 280 280 279 279 279 279 278 278 278 279 279 279 280
286 285 289 287 289 289 287 286 288 287 288 293 296 298 296 293 292 292 291 293 292 288 287 285 284 283 282 282 281 280 280 279 279 278 278 278 277 277 277 278 278 279 280 280
285 285 283 284 285 285 284 284 284 284 291 294 294 294 292 291 291 289 287 288 286 285 283 283 281 281 281 280 279 279 279 279 278 278 278 277 277 277 278 277 277 278 278 278

GFSNW_850_thetae_087.txt.gz
Theta_e
296 296 295 294 296 296 295 299 300 300 302 303 302 303 305 304 307 305 306 307 308 309 308 309 309 310 311 311 312 315 317 319 317 315 316 315 316 316 315 318 319 319 321 321
294 294 294 294 294 294 297 298 299 301 302 304 304 303 304 306 306 306 306 305 306 306 307 308 309 310 310 310 310 311 311 317 318 317 315 315 316 317 317 318 318 320 325 322
294 294 294 295 295 295 296 299 302 300 302 302 304 304 304 304 306 307 305 306 306 306 307 308 309 309 309 310 309 307 308 310 313 317 318 318 317 316 317 317 321 319 320 320
295 295 295 295 295 295 296 297 300 301 303 303 303 304 304 305 305 306 306 306 307 307 307 308 309 310 310 310 309 309 310 311 311 311 311 312 315 316 317 317 318 319 319 319
297 297 297 297 297 296 296 297 298 299 301 301 304 303 304 304 305 307 307 307 306 306 307 307 309 310 310 310 310 310 311 313 312 313 312 313 313 314 315 316 317 318 318 319
298 298 299 299 299 297 297 297 298 300 301 303 303 304 305 304 305 305 305 306 306 306 307 306 307 307 308 308 309 310 311 311 312 313 311 315 316 314 315 317 319 319 319 318
298 298 296 298 299 299 297 298 297 299 303 303 304 303 303 304 305 306 306 305 306 306 307 306 306 306 307 308 308 308 310 310 311 313 311 312 312 317 317 318 318 321 320 319
298 297 296 296 297 299 298 298 299 300 303 302 303 304 304 303 304 306 306 306 306 306 307 307 308 309 309 309 309 309 308 310 313 313 313 312 311 315 314 316 316 320 323 318
297 297 297 297 297 297 298 298 299 301 303 304 302 303 303 305 306 306 306 306 306 306 307 309 309 311 310 311 311 310 310 310 312 312 312 314 317 315 315 316 321 318 321 323
296 297 296 296 297 296 297 298 298 300 301 302 302 304 304 305 305 307 307 306 305 306 308 309 309 311 309 310 311 313 312 312 312 312 311 313 316 316 316 320 320 314 316 321
296 297 298 297 297 297 297 299 297 298 300 302 303 303 303 304 305 308 307 306 305 304 308 309 309 310 309 309 309 313 312 312 313 312 311 313 314 316 318 316 315 315 317 316
298 298 298 299 299 298 298 298 297 298 299 301 302 303 304 304 303 305 305 305 305 306 308 309 309 310 310 309 311 311 313 312 313 311 312 314 312 315 312 312 313 314 315 317
300 300 299 298 299 298 298 298 298 297 297 300 301 302 302 304 305 305 305 305 305 306 306 308 310 310 309 311 310 311 310 312 313 313 313 313 311 312 311 310 310 310 311 317
300 300 300 300 300 300 299 299 298 298 298 302 303 303 302 303 305 306 305 305 305 306 307 308 309 310 308 309 310 311 311 311 311 310 313 312 311 310 309 309 309 307 308 314
301 300 301 300 300 300 299 299 298 299 300 302 302 303 303 304 305 305 306 305 306 307 307 308 309 308 309 309 310 310 311 311 313 315 310 310 310 309 306 306 307 305 305 307
301 301 301 301 301 300 299 298 298 299 300 302 304 303 304 304 305 305 305 305 305 306 306 308 307 308 308 310 310 305 304 304 305 305 304 306 306 307 303 303 305 304 303 302
301 301 301 301 300 300 299 301 300 299 300 301 304 304 304 304 305 305 305 305 305 306 304 307 308 308 308 310 310 302 299 300 301 300 301 306 302 301 299 299 302 303 302 300
301 301 301 301 301 299 300 300 300 299 300 300 304 305 304 304 304 305 305 306 305 305 305 307 309 308 309 307 300 298 295 297 298 297 298 299 298 298 297 297 297 301 299 297
301 300 301 299 299 300 300 300 298 299 301 303 303 304 306 304 304 305 305 306 305 303 306 308 308 306 303 296 294 293 292 293 293 294 297 297 297 297 295 294 294 295 294 293
299 299 300 299 300 299 299 299 299 300 302 303 304 303 306 304 302 304 304 305 306 309 306 305 308 298 293 292 291 290 290 290 291 293 295 294 295 294 293 291 290 290 289 289
300 300 299 299 299 300 300 300 302 302 303 302 303 303 305 301 305 307 305 306 307 308 307 308 305 298 293 291 290 289 288 288 289 288 289 290 291 291 291 289 286 285 286 286
300 299 299 298 300 302 304 303 302 303 303 302 303 302 303 301 301 306 303 306 306 308 301 306 302 293 291 290 289 288 287 287 287 286 286 285 286 287 287 286 283 282 282 283
299 298 295 297 295 300 303 303 303 304 299 298 299 302 301 301 301 305 306 307 304 302 304 299 295 290 288 287 287 286 285 284 284 284 283 282 281 283 282 281 280 280 280 280
294 295 294 296 296 295 295 296 297 294 294 295 296 299 301 300 302 303 302 300 302 303 302 296 291 287 287 286 285 284 283 282 282 281 280 279 279 279 280 279 279 278 278 278
292 293 295 293 291 291 290 291 293 290 290 294 300 300 300 299 299 299 300 300 299 298 296 292 287 285 285 284 284 283 282 281 281 280 279 279 278 278 277 277 277 278 278 278
289 288 293 291 294 293 291 290 291 289 291 296 300 301 299 297 297 297 296 299 297 292 290 287 286 284 283 283 282 281 281 281 280 279 278 277 277 277 276 277 277 277 278 278
289 289 286 289 289 288 287 287 288 289 293 297 298 297 295 296 295 292 290 291 289 287 285 284 283 283 282 281 281 280 280 280 279 278 278 277 277 277 277 276 276 277 277 278

GFSNW_850_thetae_090.txt.gz
Theta_e
294 295 296 296 296 296 297 297 301 300 301 303 303 305 303 303 304 305 306 308 309 311 310 311 311 311 314 312 313 314 315 318 318 315 315 314 314 312 311 314 316 320 320 320
295 295 294 296 296 295 297 298 299 300 303 304 303 303 303 303 304 305 306 308 306 307 307 308 309 310 311 310 311 310 310 315 317 316 315 315 316 316 315 315 316 318 321 322
293 294 294 294 294 294 295 298 301 299 302 302 304 304 303 303 303 305 306 308 308 306 306 307 308 309 310 310 310 307 308 310 312 315 317 315 316 318 316 317 319 319 319 318
295 294 294 295 295 295 295 297 301 301 303 304 303 303 303 305 304 304 305 308 308 307 306 306 307 308 309 310 310 310 310 310 310 310 310 310 311 312 316 318 317 318 318 318
296 296 295 295 295 295 296 297 298 299 300 302 303 303 303 303 304 305 307 306 307 307 308 308 308 310 311 311 311 311 312 314 312 312 312 312 312 312 312 315 316 316 316 317
298 298 298 297 296 296 297 297 297 298 300 302 302 304 304 303 303 303 304 306 307 307 308 307 308 308 309 310 310 310 311 312 313 313 312 312 314 314 313 312 314 315 318 320
298 299 299 298 298 297 297 297 297 298 301 302 302 302 303 304 304 305 305 305 307 307 308 308 307 307 308 308 309 309 310 311 312 313 313 313 312 312 317 316 317 317 317 317
297 298 298 299 298 299 297 297 297 299 301 300 302 303 304 304 304 305 305 305 307 307 308 308 308 308 309 309 309 309 310 310 312 313 313 312 312 312 314 316 316 317 319 319
296 297 298 298 296 297 298 297 298 299 301 301 300 302 302 304 306 306 305 306 306 307 307 307 308 309 310 311 311 310 310 310 312 313 312 312 315 317 316 316 318 317 315 316
295 296 296 297 297 296 297 298 298 298 299 301 301 303 304 303 304 306 306 307 307 307 308 308 308 309 309 312 312 312 312 312 312 313 312 312 313 314 314 319 318 315 316 315
296 295 296 297 297 297 297 298 298 298 298 300 301 302 303 304 305 307 307 307 305 305 308 307 308 310 311 310 310 314 312 313 313 313 312 312 315 315 317 315 314 314 314 313
300 297 295 296 297 297 297 298 298 298 298 300 301 302 304 304 305 304 305 307 306 306 307 308 309 310 313 310 310 311 314 312 314 311 312 314 311 313 311 311 311 310 310 311
300 300 298 296 297 297 297 297 299 298 298 298 299 301 302 305 306 305 305 305 307 307 307 309 310 311 310 311 311 312 312 312 314 311 312 314 312 311 309 309 309 307 308 309
300 300 300 298 298 298 298 298 299 298 298 300 301 303 302 303 304 306 306 306 306 306 307 308 309 311 309 310 310 311 312 312 313 313 312 312 310 309 307 307 307 307 306 307
301 301 300 300 300 298 299 298 299 299 300 302 301 303 304 304 304 304 305 306 306 307 307 308 309 308 309 310 311 311 308 309 312 313 307 309 308 304 304 305 305 305 305 304
300 301 301 300 300 299 299 299 299 299 299 302 304 303 304 305 305 305 305 306 306 305 306 308 307 307 309 310 310 304 303 304 303 304 303 305 304 303 301 301 302 304 303 301
301 300 301 300 300 300 298 300 300 299 300 301 304 304 304 305 305 305 306 306 305 304 304 307 307 308 308 309 310 301 298 300 300 300 302 303 301 301 300 299 299 302 300 298
301 300 301 301 300 301 299 301 300 299 300 301 304 305 305 305 305 306 305 306 305 305 305 306 308 307 307 305 299 296 295 297 298 297 298 300 300 300 298 297 297 298 296 294
301 301 301 301 299 299 299 300 299 300 301 302 304 305 307 305 305 306 305 305 304 304 305 307 307 308 301 296 294 293 292 293 293 294 298 297 298 297 296 294 293 293 292 290
301 300 299 299 300 300 299 300 300 299 300 302 305 304 306 305 303 304 305 304 305 307 306 307 307 297 294 293 292 291 290 290 290 291 292 292 292 292 293 291 289 288 287 286
300 299 300 299 299 300 300 299 302 302 302 303 303 304 305 302 305 305 306 306 306 307 307 308 305 298 294 292 291 290 289 288 288 288 288 288 288 289 290 288 286 284 284 283
300 299 299 300 300 302 303 303 303 303 304 304 304 304 304 303 303 306 305 306 307 307 304 307 301 294 291 290 289 288 286 286 286 285 285 284 284 285 285 284 282 281 281 281
300 299 297 300 298 303 303 302 303 303 301 300 300 302 303 302 300 302 306 306 307 303 306 299 294 290 288 287 287 286 284 284 283 282 282 281 280 281 280 280 279 279 279 279
297 297 296 298 298 296 296 296 297 294 296 297 298 300 303 300 303 302 304 302 304 305 304 295 290 288 287 286 285 284 283 282 281 280 280 279 278 278 279 278 279 279 279 279
293 295 296 294 293 292 293 293 294 292 292 295 298 300 300 301 300 301 301 301 300 297 295 291 287 286 285 284 283 283 282 281 280 279 279 278 278 278 277 277 277 277 277 277
290 289 295 293 296 293 290 290 291 291 292 294 297 301 300 299 300 299 297 301 296 292 290 287 285 284 283 282 282 281 281 280 279 279 278 277 277 277 276 277 277 277 277 277
291 290 288 292 291 290 289 289 289 291 294 298 299 298 297 298 296 292 291 292 290 287 286 284 283 283 282 281 281 281 280 279 279 279 278 278 277 277 276 276 276 276 276 276

GFSNW_850_thetae_093.txt.gz
Theta_e
293 293 294 295 296 297 296 297 297 300 300 301 302 300 302 301 302 303 304 306 307 311 309 309 312 312 314 312 311 313 310 316 317 317 316 314 310 310 310 311 312 314 316 316
295 295 295 296 296 296 297 297 298 297 300 297 300 302 302 303 303 303 304 306 307 307 307 308 308 310 312 311 311 309 309 312 316 314 315 316 317 313 312 311 311 312 315 316
294 293 294 294 295 296 296 296 294 299 300 300 302 303 303 303 302 302 303 305 305 306 307 306 307 307 310 310 308 308 308 310 311 313 313 312 312 312 313 316 316 313 313 313
295 295 294 294 294 295 295 296 297 299 298 300 302 302 303 303 304 304 303 305 305 306 308 308 306 308 310 310 310 310 310 309 310 310 310 310 310 310 310 311 318 319 317 317
297 297 296 295 294 295 295 296 297 298 299 300 302 302 301 303 303 304 304 305 305 306 306 308 308 308 310 311 310 311 312 313 313 313 312 312 312 312 311 311 311 313 314 314
298 298 298 298 295 295 296 295 296 297 298 300 301 301 303 303 303 303 304 305 305 306 307 307 307 308 308 309 310 309 310 312 311 313 312 312 312 312 311 312 312 312 313 318
298 298 299 299 298 296 295 296 296 297 297 298 298 299 301 302 303 304 304 305 305 305 307 307 308 307 308 309 309 308 309 310 310 312 311 311 312 311 312 317 317 317 318 318
297 298 298 299 299 298 297 296 297 297 297 298 299 300 301 303 303 304 304 305 305 305 307 307 306 306 307 308 308 307 308 309 308 310 311 311 311 316 317 317 318 315 315 314
297 296 297 297 299 299 298 297 296 297 298 298 299 300 300 302 302 302 304 306 306 307 305 303 306 307 310 310 309 308 308 308 308 308 312 310 315 314 314 315 318 315 315 315
299 298 296 296 298 298 298 298 297 297 298 298 299 299 299 301 302 303 304 306 306 306 306 304 305 306 307 309 313 310 309 309 309 309 311 311 314 313 314 319 315 312 313 313
300 300 296 295 297 298 297 297 297 297 298 298 300 300 301 302 302 303 304 304 304 304 304 303 303 303 308 311 311 311 310 311 309 308 311 310 311 313 315 310 310 308 309 310
300 299 299 295 295 297 297 297 298 297 297 298 299 300 300 300 303 303 305 305 304 304 303 304 305 304 305 310 309 311 311 310 308 309 309 310 311 309 309 308 307 307 307 308
300 300 300 299 295 296 297 297 298 298 297 297 298 298 300 301 302 303 303 302 303 306 306 305 306 306 307 307 308 310 311 311 312 310 312 312 309 308 307 306 306 305 305 306
300 300 300 300 297 296 297 297 298 297 298 297 298 298 300 300 300 303 304 304 304 306 306 305 304 307 308 309 310 308 310 309 312 312 311 308 305 304 304 304 305 304 303 302
300 300 300 300 299 296 297 297 297 298 298 299 301 300 301 304 302 303 304 305 306 305 304 303 306 307 307 308 308 307 306 305 307 307 301 306 303 301 302 302 303 303 302 300
299 299 300 300 299 298 298 298 297 297 297 299 300 302 302 302 304 303 304 305 305 305 305 304 306 307 308 308 307 301 301 301 300 300 301 302 302 300 300 300 301 300 300 298
300 300 300 301 300 299 298 299 299 298 298 300 300 302 303 304 304 305 305 305 305 304 303 303 305 306 306 305 305 298 297 298 297 299 300 301 300 299 297 297 298 297 296 295
300 299 300 301 300 299 299 301 301 299 299 300 301 302 304 304 305 305 305 305 304 303 303 304 306 306 305 300 296 294 293 295 294 296 297 298 298 296 294 295 295 293 292 291
300 300 301 301 299 299 299 300 300 299 300 300 300 300 305 305 305 305 305 304 302 303 302 304 305 302 297 296 294 292 291 291 291 292 292 293 293 293 293 292 290 289 288 288
300 300 300 298 299 299 299 300 299 299 300 300 302 303 304 304 304 303 304 303 303 305 303 305 298 294 293 292 291 290 289 289 289 289 289 289 289 290 290 288 288 287 286 286
300 300 299 300 300 300 299 298 300 299 300 301 302 303 302 303 303 302 304 303 303 302 303 305 301 296 293 290 288 287 287 287 286 286 286 286 286 287 286 285 285 284 283 283
300 299 299 299 300 300 301 298 300 299 300 301 299 303 303 302 302 302 303 303 303 303 304 304 295 291 289 288 287 285 285 284 284 283 283 282 283 283 283 282 280 280 280 280
300 299 298 299 298 300 299 300 299 301 299 300 301 302 302 301 300 301 303 303 303 302 300 293 290 288 287 286 285 284 283 282 281 280 280 280 280 280 281 280 279 279 279 279
297 297 289 293 296 294 294 295 296 293 295 297 299 300 300 300 300 300 303 300 299 302 297 289 288 286 285 284 284 282 281 281 280 279 278 278 278 278 278 278 279 279 279 278
293 294 294 292 293 292 291 293 293 292 293 295 298 300 300 298 296 299 298 299 294 293 288 287 285 284 283 283 282 281 280 280 279 278 278 277 277 277 277 277 277 278 278 278
290 289 293 292 292 290 289 290 291 291 293 295 296 299 297 296 296 294 290 296 290 288 287 284 284 283 282 281 281 280 280 279 278 277 277 277 277 277 277 277 277 277 277 277
290 289 288 290 290 289 289 289 289 292 293 297 297 297 297 296 294 291 290 288 286 285 283 283 283 282 281 281 281 280 279 279 278 278 277 276 276 276 277 277 276 276 276 277

GFSNW_850_thetae_096.txt.gz
Theta_e
293 294 294 294 295 296 297 296 291 297 300 299 300 295 301 300 301 301 302 305 305 307 310 309 309 310 311 309 310 312 310 315 317 315 315 314 313 311 313 316 316 315 315 317
293 294 295 295 295 296 296 296 297 297 298 299 298 299 302 301 301 302 302 304 305 306 306 309 308 309 307 308 310 311 309 311 315 314 316 314 315 314 312 315 310 311 312 314
295 294 294 294 295 295 296 296 294 297 299 299 301 300 300 301 302 302 302 302 303 305 305 306 307 307 307 307 308 310 308 309 310 312 311 311 314 313 311 312 316 314 313 313
296 295 295 294 293 295 296 295 293 296 300 297 301 300 302 302 302 303 303 303 304 304 306 306 307 307 308 308 309 311 310 308 311 312 310 310 310 311 311 311 311 315 318 318
298 297 297 296 295 294 295 295 293 297 298 298 300 300 302 301 301 302 303 303 304 304 305 306 306 307 308 309 310 309 311 311 311 312 311 311 312 312 311 311 311 311 314 315
298 297 298 299 297 295 295 295 296 297 297 298 298 300 301 302 301 302 303 303 304 305 305 306 306 306 307 308 309 308 309 310 309 312 311 311 311 311 311 311 317 317 315 319
298 297 298 298 298 296 295 295 295 295 296 296 297 297 298 299 299 302 303 303 304 304 305 305 306 307 307 308 308 308 308 309 308 311 308 309 311 313 316 317 316 315 315 314
297 297 297 298 298 298 297 295 296 296 294 296 297 298 299 299 300 301 302 302 304 304 306 306 306 305 306 306 307 307 307 307 308 309 308 309 311 314 316 316 316 315 314 315
298 298 298 296 298 298 298 296 295 296 297 297 297 298 299 298 299 300 302 303 305 305 302 305 306 306 308 309 309 306 307 307 307 308 311 311 314 314 312 314 318 311 312 312
299 299 300 298 296 297 298 298 296 296 297 297 297 298 298 299 300 301 301 303 305 306 303 305 304 305 306 307 311 310 307 307 308 308 309 310 313 313 312 312 313 308 309 311
299 300 300 299 296 296 299 298 298 297 297 297 299 298 298 300 301 301 302 302 302 304 306 304 302 301 305 309 310 311 310 309 309 308 309 310 310 311 312 309 308 307 307 308
299 299 300 299 297 296 298 298 297 297 297 297 297 298 299 299 301 302 302 301 303 303 302 302 302 302 303 309 309 308 311 309 308 308 308 310 308 307 307 307 305 305 306 306
299 298 300 300 298 296 297 298 297 296 297 297 296 297 298 299 299 299 302 301 303 304 305 304 303 304 305 307 309 309 311 310 310 310 311 309 306 305 305 305 304 304 304 303
299 300 300 300 299 296 296 297 297 297 297 298 297 298 298 298 298 299 300 301 302 303 303 304 301 304 306 307 309 308 307 307 308 310 305 304 302 302 302 303 303 302 300 300
298 299 300 300 299 299 296 296 296 297 297 296 299 299 299 299 302 299 300 301 303 305 304 298 301 305 306 305 307 305 304 304 305 304 299 303 301 299 300 301 300 299 298 297
298 298 299 300 299 299 297 297 297 297 297 298 295 300 299 300 302 301 303 303 304 305 304 301 305 306 306 306 305 300 299 298 298 298 299 300 299 298 298 298 297 296 296 294
298 298 298 299 299 298 296 298 298 297 297 298 298 297 301 303 302 302 302 304 304 304 303 302 304 305 305 303 302 296 295 296 296 296 298 299 297 295 296 296 295 294 293 292
300 299 299 299 300 298 297 300 300 298 298 299 299 300 301 304 304 304 304 304 304 304 303 304 305 305 303 297 295 293 293 294 294 293 294 294 294 294 294 294 293 292 290 290
300 299 299 301 299 298 298 300 299 298 299 298 299 298 303 303 304 305 304 304 302 303 303 303 304 298 295 295 293 291 290 290 289 291 291 292 292 291 290 291 289 289 288 288
300 299 299 298 298 298 299 299 298 298 299 300 300 301 302 301 303 302 302 303 303 304 303 301 297 294 291 290 289 288 288 288 288 289 288 288 288 288 288 287 286 286 285 285
300 299 299 299 299 299 299 297 299 298 298 299 301 302 302 302 302 303 302 303 302 303 302 305 298 294 291 288 287 286 286 285 285 285 285 285 285 285 285 285 284 283 283 283
300 299 299 299 299 299 300 299 299 296 298 300 297 302 302 301 301 302 303 300 301 301 302 299 291 290 288 286 285 285 284 283 283 282 282 282 282 283 283 282 282 281 281 281
299 300 298 298 296 297 294 301 301 300 297 299 301 302 301 300 301 300 302 302 301 301 295 291 288 287 286 285 284 283 282 282 281 280 280 280 280 281 281 280 279 279 279 279
296 293 288 290 292 289 290 294 293 293 295 297 299 299 300 299 299 299 302 300 300 299 293 286 286 285 284 283 283 282 281 280 279 279 278 279 279 278 278 278 278 279 278 278
293 293 289 288 290 290 290 293 292 293 295 297 300 300 299 296 292 296 299 296 291 290 285 284 284 283 283 282 281 280 280 279 278 278 277 277 277 277 277 277 278 278 278 278
289 289 291 290 287 286 289 290 290 292 294 295 297 292 292 290 288 289 287 292 286 283 282 283 283 282 281 281 280 279 279 278 277 277 277 277 277 277 277 277 277 277 277 277
288 287 288 289 288 288 289 289 289 292 293 293 294 292 293 293 289 287 287 283 282 283 283 282 282 281 281 280 280 279 279 278 277 277 277 277 276 276 277 277 276 276 276 276

GFSNW_850_thetae_099.txt.gz
Theta_e
293 293 294 295 295 295 296 296 291 296 298 296 296 291 299 300 301 300 301 303 304 307 306 306 308 312 311 308 309 311 309 312 311 310 314 313 308 310 312 313 314 313 313 315
293 293 293 294 295 295 296 295 295 296 297 300 297 298 300 300 300 301 302 303 304 306 305 304 308 307 307 306 308 310 309 311 313 313 315 312 315 314 310 313 310 312 314 315
295 295 295 294 294 295 296 295 294 296 298 298 299 300 299 299 301 302 301 302 301 302 305 305 306 307 307 306 308 308 309 310 311 312 310 312 312 313 312 311 314 313 313 315
296 296 296 295 295 294 295 295 292 295 296 299 299 300 299 300 300 302 303 302 302 302 303 305 305 307 308 308 308 310 311 310 311 312 311 309 310 311 312 310 311 312 314 315
297 298 298 297 296 295 294 295 292 296 296 297 298 299 300 301 302 301 302 302 303 303 305 305 304 306 306 307 309 308 311 311 311 311 309 309 311 311 310 310 311 312 311 313
297 298 298 298 298 296 294 294 295 296 295 296 296 299 300 301 299 299 301 302 303 303 303 303 304 305 306 307 307 308 308 310 308 310 309 308 311 310 310 315 315 317 317 316
297 297 298 298 298 297 295 294 295 295 294 296 296 297 298 298 298 299 300 301 303 303 304 304 305 305 306 307 307 307 307 308 306 309 307 306 311 315 314 316 315 314 315 314
296 297 297 297 297 298 297 295 295 295 292 295 296 296 297 297 298 299 300 300 302 304 304 305 305 304 305 306 307 307 307 307 306 306 307 307 314 313 315 315 313 311 312 313
297 297 298 298 297 297 298 297 295 295 296 295 296 296 297 297 298 298 300 300 303 305 302 301 306 306 307 308 308 306 306 305 305 305 309 307 312 313 311 313 316 309 309 312
296 298 298 299 300 297 298 298 297 296 296 296 296 296 297 298 298 299 299 302 303 304 302 302 305 306 305 306 308 309 306 306 307 307 306 308 311 311 310 312 311 308 308 310
297 298 298 299 300 298 297 298 298 297 296 296 297 297 297 298 300 298 299 298 299 301 304 303 303 303 304 306 308 309 309 309 308 308 307 308 308 310 309 307 308 306 306 307
297 297 298 299 300 298 296 297 298 298 296 297 297 297 297 298 298 301 302 301 300 301 304 302 302 303 299 307 308 307 311 309 307 307 307 308 306 306 307 306 304 304 304 303
296 297 299 299 300 299 296 297 298 297 296 296 296 296 297 297 298 299 299 299 300 302 303 304 304 303 303 306 308 308 305 308 311 309 309 306 304 303 304 304 303 301 301 300
297 298 298 299 299 299 296 296 297 297 297 295 296 297 298 298 298 298 298 299 300 301 301 303 304 303 305 306 308 308 305 305 306 307 303 303 300 300 301 301 300 300 299 298
298 298 298 299 300 299 297 296 297 297 296 296 297 298 298 300 299 299 298 298 300 301 301 301 302 302 304 305 305 303 301 302 304 301 299 301 299 298 300 300 297 296 297 295
298 297 298 299 300 299 297 297 297 296 296 297 295 297 298 299 299 300 300 298 301 303 301 300 303 306 304 303 303 299 297 296 296 296 297 298 296 296 296 297 296 295 294 293
298 298 298 298 300 300 297 297 297 297 296 298 297 295 300 302 300 300 300 300 302 303 303 302 302 303 304 302 302 296 296 294 294 296 298 296 295 293 293 293 293 293 292 292
298 298 298 298 299 300 298 298 299 296 297 298 298 296 299 302 302 302 302 303 303 303 303 303 302 304 300 296 294 292 292 293 292 293 293 293 293 293 293 292 291 291 290 290
299 299 298 299 299 297 297 299 300 297 298 297 298 299 299 301 303 303 303 303 302 302 302 302 303 298 294 294 292 290 289 289 289 290 290 290 291 290 290 290 289 287 285 286
301 300 299 296 297 298 298 297 298 298 298 300 300 299 301 300 302 302 302 302 301 303 303 298 295 291 290 289 289 288 288 287 288 289 288 287 287 287 287 287 286 285 284 283
299 299 298 298 298 298 299 296 298 298 299 297 299 299 302 300 301 302 302 302 302 303 303 303 296 293 290 287 286 286 285 285 285 285 284 284 283 284 283 284 283 283 283 283
300 299 298 298 299 299 299 298 298 297 297 298 297 302 301 300 300 301 301 300 301 299 302 296 289 289 287 286 284 284 283 283 283 282 282 282 281 282 282 282 281 282 281 281
299 299 298 298 294 294 293 299 299 299 297 300 301 301 300 300 300 300 301 301 300 299 295 289 287 287 285 284 283 282 282 281 281 280 281 280 281 281 281 280 280 280 280 279
295 292 286 288 284 286 286 291 289 293 295 298 299 298 299 299 298 299 298 300 300 297 294 286 285 285 284 283 282 281 280 280 279 279 279 279 279 279 279 278 278 278 279 278
292 292 289 286 289 289 289 291 292 292 295 298 299 298 298 294 291 292 294 291 289 288 284 280 283 283 283 282 281 280 279 278 278 277 278 278 278 278 277 277 277 278 277 277
289 288 288 288 286 286 289 289 290 293 295 297 297 292 289 289 285 288 286 291 285 281 280 283 283 282 281 281 280 279 278 278 277 277 277 277 277 277 277 277 277 277 277 277
287 286 288 288 288 287 288 288 289 292 294 289 292 288 289 289 286 286 284 280 277 282 282 282 282 281 280 280 279 279 279 278 278 278 277 277 277 277 277 277 277 277 277 277

GFSNW_850_thetae_102.txt.gz
Theta_e
293 293 293 293 294 295 295 296 290 296 298 296 294 291 297 298 299 299 300 302 304 306 305 305 308 308 308 307 307 311 309 310 312 309 310 313 307 309 308 310 312 312 312 312
293 294 294 294 294 294 295 295 294 296 297 293 297 297 299 300 300 300 301 301 303 304 304 302 305 307 307 306 307 309 309 310 314 312 312 311 313 313 310 311 309 312 313 312
295 295 295 295 295 294 295 295 293 294 298 296 298 299 299 299 300 301 301 301 301 301 304 304 303 305 307 307 307 309 309 309 309 312 310 308 312 312 312 311 312 311 310 313
295 296 297 297 296 295 294 294 292 293 292 298 298 299 299 300 300 300 301 301 302 302 303 302 304 306 306 306 307 308 310 308 309 310 311 310 311 311 311 311 310 311 311 312
296 297 298 298 297 296 294 294 292 295 295 296 297 298 299 301 299 301 302 301 301 302 302 303 304 304 305 306 307 308 308 310 310 310 311 309 310 311 311 311 312 311 310 312
296 296 297 298 298 296 295 294 294 295 294 294 295 296 299 300 298 298 301 299 300 301 303 303 303 303 304 305 306 307 308 309 308 309 310 308 310 309 311 314 314 315 314 315
295 296 297 298 298 298 297 295 294 294 293 294 295 296 297 297 297 298 298 299 300 302 303 304 304 304 305 305 306 306 307 307 306 310 307 305 312 313 313 314 313 314 313 313
295 295 296 297 297 298 298 296 294 294 290 295 295 295 296 296 296 297 298 299 300 302 304 304 305 304 304 305 306 306 306 306 306 308 308 306 313 313 314 315 314 311 311 313
294 295 296 297 298 298 297 298 296 295 295 294 295 295 296 296 297 297 298 300 301 304 302 303 306 306 306 307 307 305 306 305 306 307 309 306 309 312 310 312 315 309 309 312
294 295 296 297 298 298 298 297 298 296 296 295 296 295 296 297 297 298 298 301 300 303 301 305 304 305 304 305 307 307 306 306 307 307 308 307 308 309 310 311 308 307 308 309
294 295 296 298 298 298 298 297 297 297 296 296 297 296 296 298 299 298 298 297 300 300 303 304 304 302 303 306 307 304 307 307 307 307 308 307 305 308 308 305 305 305 303 303
294 294 296 297 298 299 299 297 297 298 297 296 297 297 296 297 297 297 298 299 300 300 304 304 304 303 301 303 305 306 309 308 308 307 306 305 302 303 304 304 302 300 300 299
294 295 296 297 298 299 299 298 297 297 296 296 296 297 297 297 297 297 299 299 300 300 301 302 305 305 301 302 305 307 307 303 307 309 306 304 302 301 300 300 298 298 298 297
294 295 296 297 298 298 300 298 296 296 296 295 296 297 297 297 297 297 297 298 299 299 301 300 303 303 303 303 306 306 304 303 304 305 303 301 299 299 299 299 297 296 296 296
294 295 297 297 298 299 299 299 296 297 296 297 296 297 297 297 298 298 298 297 298 298 300 300 303 300 302 303 304 302 299 299 302 302 297 299 297 296 297 298 296 295 294 293
296 297 297 298 298 299 299 296 296 296 296 296 295 296 297 298 299 299 299 298 297 299 301 300 300 304 303 303 302 298 296 295 295 295 296 296 295 294 295 295 294 294 293 292
297 298 297 298 298 299 298 297 297 297 296 296 296 295 298 301 299 299 298 298 299 300 302 302 301 302 303 301 301 296 294 293 293 295 296 295 294 292 292 292 292 291 291 291
297 298 298 298 298 298 298 297 297 296 296 297 296 296 297 300 300 300 301 299 300 302 302 302 302 303 300 298 293 291 292 293 292 292 292 292 291 290 290 290 289 289 288 287
298 298 298 298 298 297 297 298 299 296 297 296 297 297 296 301 301 302 302 302 301 302 301 300 302 299 293 293 291 289 288 288 288 290 290 290 290 288 288 287 287 287 284 284
298 298 299 298 297 298 298 298 297 297 297 298 298 298 299 299 301 301 302 301 301 302 300 299 296 291 289 288 288 287 287 286 287 289 287 286 287 286 285 285 284 284 282 283
299 298 297 297 298 298 298 297 298 297 299 297 298 299 300 300 300 302 301 301 301 301 303 300 295 291 289 286 286 285 285 285 284 284 283 283 283 283 282 281 281 282 282 282
299 299 298 298 299 298 298 298 298 297 297 296 297 299 300 300 300 299 299 302 300 302 299 295 289 288 286 285 284 283 283 282 282 282 282 282 282 281 281 281 281 281 280 280
298 299 298 297 293 296 296 298 297 296 298 298 299 300 300 300 300 300 301 301 301 299 293 287 286 286 284 284 283 282 281 281 281 280 280 280 280 280 280 280 279 279 279 279
296 293 286 291 284 286 285 294 295 293 296 299 300 297 299 298 298 297 300 298 300 297 287 285 285 285 283 283 282 281 280 280 279 279 278 279 279 279 279 278 278 278 278 278
292 290 288 284 287 288 289 290 292 293 295 298 298 297 296 292 293 289 292 291 288 288 284 279 283 283 282 281 281 280 279 278 278 278 278 278 277 278 277 277 277 277 277 277
289 287 286 287 285 285 288 289 290 293 296 297 296 290 287 289 285 287 285 291 286 280 279 282 282 282 281 280 279 279 278 278 278 277 277 277 277 277 277 277 277 277 277 277
287 285 286 286 286 285 286 287 290 293 295 284 289 287 289 286 284 283 282 278 275 281 282 282 281 281 280 280 279 278 278 278 277 277 277 277 277 276 277 277 276 276 276 276

GFSNW_850_thetae_105.txt.gz
Theta_e
292 293 293 293 293 294 295 295 293 295 296 296 294 296 297 298 297 299 300 301 303 303 304 304 306 307 307 306 307 310 309 311 313 310 309 312 309 309 309 310 312 313 312 312
293 294 295 294 295 294 295 295 294 295 297 294 297 298 298 299 300 300 301 301 301 302 303 303 305 306 307 307 308 309 309 311 314 313 314 311 313 312 310 311 311 312 313 313
293 295 295 295 295 295 294 295 292 294 296 296 297 298 298 299 299 300 301 301 301 302 302 304 304 305 306 306 307 309 308 309 311 311 311 311 311 312 312 313 314 313 313 313
293 295 297 297 297 296 294 294 292 293 292 298 297 297 298 300 300 300 300 301 300 301 303 303 304 305 304 305 307 308 309 310 309 310 310 311 311 311 311 312 311 313 312 313
292 296 296 298 298 296 294 294 292 294 295 295 296 297 297 299 298 299 301 299 299 300 302 303 304 303 304 305 306 308 307 309 308 311 310 310 309 309 312 312 312 313 313 313
293 296 296 298 298 297 295 294 294 294 294 294 296 297 298 298 298 297 299 298 299 300 302 302 303 303 303 304 304 306 308 309 309 309 310 308 308 309 311 312 314 315 313 314
293 295 296 297 298 298 297 295 294 294 294 294 295 295 296 296 296 296 296 297 299 300 300 303 303 303 304 304 305 305 307 307 308 309 309 308 313 313 313 313 313 313 312 314
293 295 296 297 297 298 298 297 296 294 294 294 295 295 296 296 296 296 296 298 299 300 303 304 305 305 305 305 305 306 306 307 308 308 309 308 312 313 314 315 313 311 312 313
293 295 295 296 297 298 298 297 297 295 295 295 295 295 295 296 297 298 298 299 299 303 302 304 306 305 305 306 308 306 306 307 308 308 308 308 310 312 310 312 313 309 310 311
292 294 295 295 296 297 298 298 298 296 295 296 296 296 297 296 297 298 298 298 299 301 303 305 306 305 304 305 307 308 307 308 309 307 307 307 307 307 310 313 311 307 307 307
291 293 295 295 296 298 299 298 298 296 296 296 296 296 295 296 297 299 298 298 300 301 303 304 305 305 305 306 307 307 308 308 308 307 307 306 304 308 310 306 303 303 302 302
290 292 294 295 295 298 298 298 299 297 296 297 297 297 296 296 296 296 296 298 299 300 301 302 305 305 304 305 306 306 308 308 309 307 308 304 302 302 301 302 300 299 299 299
290 292 293 294 296 297 298 299 298 296 296 296 296 297 297 297 297 297 297 298 299 300 300 301 302 304 304 306 306 306 307 303 306 307 305 303 300 298 297 297 296 296 296 295
290 293 294 295 296 297 298 299 299 297 296 295 296 296 297 297 297 297 297 297 299 300 299 299 300 301 303 305 305 306 303 303 302 304 302 300 297 296 295 294 295 294 294 294
291 292 294 295 296 297 299 298 298 298 296 297 296 296 297 297 297 297 297 296 297 297 298 300 301 302 303 303 305 302 299 298 300 301 297 298 295 293 293 293 291 292 292 293
291 293 294 295 296 298 299 297 297 298 296 296 296 296 296 297 299 297 297 297 296 297 298 299 300 301 303 304 304 298 296 294 293 296 295 295 293 293 292 291 290 290 291 290
292 294 295 296 297 298 298 297 297 298 296 296 296 296 297 300 298 298 297 297 297 298 299 301 301 302 303 302 303 296 293 292 293 294 295 294 293 291 290 289 289 289 289 288
293 295 297 297 298 297 298 299 297 296 296 296 295 296 296 299 299 299 298 298 299 300 300 301 301 301 301 301 294 291 291 291 291 291 292 291 290 289 288 288 287 287 285 284
295 296 297 298 298 298 298 298 297 296 296 296 296 297 297 300 300 300 299 299 299 299 302 303 302 300 299 293 291 288 287 287 288 289 289 289 288 287 286 286 285 285 283 282
295 297 297 297 298 298 298 297 296 296 297 297 297 297 297 299 299 299 300 299 301 303 301 299 301 294 289 287 287 286 285 286 287 289 287 286 286 284 283 282 282 282 281 282
296 297 298 297 297 298 298 296 297 296 296 296 297 297 298 299 300 301 300 300 301 301 302 302 297 293 289 285 285 285 284 284 283 283 282 282 282 283 282 281 281 282 282 282
297 298 297 298 298 298 298 298 297 296 297 296 297 297 299 300 299 299 299 302 301 303 299 299 295 288 286 284 284 283 283 282 282 282 282 281 280 281 281 281 281 281 280 280
298 298 298 297 294 299 297 297 298 296 295 297 298 300 300 299 299 299 301 302 303 299 295 291 288 286 284 283 282 281 280 280 280 280 280 280 280 280 280 280 279 279 279 278
296 294 292 295 292 289 289 293 296 294 296 299 300 297 299 298 299 297 301 297 301 297 295 289 286 284 282 282 281 281 280 279 279 279 279 279 278 279 278 278 277 277 278 277
291 291 289 285 286 287 289 291 293 293 296 299 298 296 296 293 295 291 295 296 291 289 288 284 283 282 282 281 280 279 278 278 278 277 277 277 277 277 277 276 276 277 277 277
288 286 287 287 286 286 288 290 291 293 296 297 296 292 291 290 288 290 287 292 290 285 282 282 282 281 280 279 279 278 277 277 277 277 277 276 276 277 277 276 276 276 276 277
286 284 285 285 285 284 285 287 290 293 293 291 291 291 290 287 287 285 282 284 281 280 281 281 281 280 279 279 279 278 277 277 277 277 277 277 277 276 276 277 276 276 276 276

GFSNW_850_thetae_108.txt.gz
Theta_e
291 293 293 293 293 294 294 297 299 296 296 300 300 300 300 299 300 301 303 303 303 303 304 305 306 306 307 306 307 313 312 314 313 312 313 311 308 308 310 311 312 313 312 313
292 293 296 295 295 295 296 297 297 297 298 300 299 300 300 300 301 301 303 303 303 304 304 305 305 305 306 306 309 312 310 314 312 312 314 314 314 313 311 312 313 314 316 317
292 294 295 295 296 296 295 297 299 297 299 298 299 299 300 301 301 302 302 303 303 303 304 304 305 306 306 305 309 308 310 312 313 312 313 313 314 314 314 314 315 314 314 314
291 294 296 297 297 296 295 296 298 296 298 299 298 298 299 301 301 300 302 302 301 302 303 305 305 305 306 306 308 309 310 312 312 312 312 313 313 313 313 313 314 314 313 314
292 293 296 297 298 297 296 296 297 296 297 297 298 298 299 299 300 299 301 303 302 301 303 304 305 305 305 306 307 308 309 311 310 311 311 312 312 312 312 313 313 314 314 314
291 294 296 297 298 297 296 295 295 297 297 298 298 298 298 299 298 298 299 300 300 301 303 303 303 304 305 306 307 306 308 310 310 310 310 310 311 311 312 313 314 315 315 316
292 294 296 297 298 298 297 296 297 297 300 298 298 297 297 297 298 298 298 298 300 301 301 303 305 306 306 306 307 306 308 309 309 310 309 310 314 314 313 312 314 314 313 314
292 293 295 297 297 298 297 297 297 297 299 298 299 298 298 298 297 298 298 299 300 301 303 307 306 306 307 307 308 307 307 308 309 309 309 308 309 314 314 314 314 313 313 313
293 292 295 296 296 297 298 298 297 296 297 300 298 298 298 300 300 300 300 300 300 302 305 306 306 306 306 306 308 308 308 307 309 308 309 309 314 311 311 314 315 311 311 310
292 291 294 295 296 296 297 298 298 297 296 297 297 299 299 298 299 301 300 300 300 303 303 306 306 306 306 306 307 308 309 310 311 309 308 307 309 308 309 315 313 307 307 307
292 291 293 294 295 296 297 298 298 297 296 297 297 297 298 299 299 301 300 301 302 303 305 306 306 307 307 307 307 309 308 309 309 309 309 308 305 310 312 307 305 304 303 303
292 291 292 294 295 295 298 298 298 298 296 298 297 297 298 298 298 298 298 300 300 301 303 304 304 307 307 307 307 308 309 308 309 310 311 304 302 301 302 304 303 302 301 300
291 291 291 292 295 295 296 298 299 296 295 296 296 297 298 298 297 297 298 298 299 301 301 302 303 304 305 308 307 307 307 305 306 307 304 302 298 298 299 299 299 298 298 298
291 291 290 292 294 295 296 298 298 298 296 298 299 297 297 297 297 297 298 298 300 300 301 301 302 303 303 306 307 306 304 304 304 304 301 298 296 295 295 296 296 295 294 294
291 290 290 293 294 295 297 298 298 298 297 299 299 298 298 297 297 297 298 299 299 299 300 301 301 302 303 305 306 305 300 299 302 304 297 298 295 293 293 293 292 292 292 291
290 290 291 293 294 295 297 298 298 298 297 297 300 298 298 297 297 298 298 299 298 298 299 300 300 301 302 306 305 298 296 294 294 297 294 294 292 292 292 292 292 290 289 289
289 290 291 293 294 296 297 298 298 298 298 296 298 299 298 299 298 298 298 298 298 298 299 300 301 302 304 304 304 296 294 293 293 294 294 293 292 290 289 289 288 288 287 286
289 290 292 294 295 296 297 298 297 297 296 296 298 299 298 299 300 299 298 298 299 299 300 301 302 302 303 303 296 293 292 292 291 292 292 291 290 289 288 288 289 288 287 286
290 292 294 295 296 297 298 298 298 296 297 297 296 300 301 300 300 300 299 298 300 301 302 303 303 303 303 296 293 291 289 289 289 290 290 289 288 287 287 287 288 287 286 285
292 293 295 296 297 298 298 296 296 296 297 297 298 298 301 300 299 301 300 300 301 302 301 302 304 298 290 289 289 288 287 286 288 290 290 288 288 287 285 284 284 284 283 282
292 295 296 297 297 298 297 296 297 297 298 297 298 299 302 300 301 303 300 301 302 302 304 303 303 299 290 287 286 285 284 284 284 284 284 284 284 285 284 282 281 280 280 279
294 297 297 297 298 298 299 300 299 297 299 298 298 298 298 301 300 302 301 305 303 303 302 304 302 291 287 286 285 284 283 282 282 281 280 280 280 281 281 280 278 277 279 280
295 297 297 297 297 300 301 299 299 299 299 298 298 300 300 299 299 300 302 305 305 301 304 301 293 288 286 285 283 282 281 280 280 279 278 279 280 280 280 279 279 279 279 278
295 297 296 299 299 301 301 301 301 299 299 299 300 299 301 300 300 300 301 301 302 304 301 296 289 286 284 283 282 281 279 279 279 279 279 279 278 278 278 278 278 278 278 278
292 295 298 294 291 291 292 293 296 295 298 299 299 299 299 297 299 296 298 301 300 296 296 290 286 284 282 281 280 278 278 278 278 278 278 278 278 278 277 277 277 277 277 278
288 288 291 290 293 292 292 295 294 295 297 298 299 298 298 296 295 297 296 299 299 291 287 285 283 281 280 279 279 278 278 277 277 277 277 277 277 277 277 277 276 276 276 276
288 288 286 288 292 291 288 290 291 294 295 300 298 299 297 293 295 293 290 292 288 285 284 283 282 280 279 279 278 278 278 277 277 277 277 277 277 276 275 276 276 276 276 275

GFSNW_850_thetae_111.txt.gz
Theta_e
292 292 293 293 294 296 298 300 303 299 300 304 303 304 302 301 302 302 304 305 304 305 305 305 307 307 307 306 310 312 313 315 313 312 312 312 309 311 312 312 312 312 314 318
292 293 295 295 295 296 300 300 299 299 301 304 302 302 302 302 303 304 304 304 304 304 306 307 305 306 307 306 310 311 311 315 316 317 315 311 309 309 312 313 313 314 314 313
292 293 296 296 296 296 299 299 302 300 300 300 302 302 302 303 303 304 303 304 304 304 305 305 306 306 306 307 309 309 311 313 315 317 316 314 314 312 310 312 313 313 314 319
292 294 295 296 298 297 299 300 301 299 302 302 301 301 302 302 303 302 303 304 304 303 304 305 305 306 306 306 308 309 311 313 313 313 313 314 314 315 314 314 314 314 315 316
292 292 295 297 298 297 299 296 301 300 300 299 300 300 302 301 303 302 302 303 303 303 304 305 305 305 306 306 308 309 309 313 312 311 311 312 313 312 313 313 312 313 313 313
293 292 295 297 298 297 299 299 299 300 300 301 301 300 300 301 301 301 301 301 302 303 304 303 303 304 305 306 307 308 309 311 312 311 311 311 312 312 312 312 312 313 315 317
292 292 295 297 298 298 299 299 299 299 302 301 301 301 300 300 300 300 300 300 302 302 302 303 305 306 307 307 308 307 309 310 310 312 310 311 313 314 313 312 315 315 315 315
292 292 295 296 297 299 298 299 299 299 301 300 301 301 301 300 301 301 301 301 301 302 303 306 307 308 308 308 308 308 308 310 311 312 311 311 311 315 316 316 316 314 314 313
293 292 294 296 297 297 298 297 297 298 300 302 300 301 301 302 302 303 302 301 301 302 305 307 308 307 307 308 309 308 308 309 310 312 310 312 312 310 309 312 318 311 311 311
292 293 292 295 296 297 297 297 298 297 298 299 300 301 301 301 301 302 302 302 302 303 304 306 308 308 307 308 309 310 310 310 311 310 310 312 309 310 308 315 312 308 308 308
292 293 292 294 295 296 297 298 298 298 298 299 300 300 300 300 301 302 302 302 304 304 305 306 307 308 308 308 308 309 310 310 312 311 311 312 306 309 310 305 306 306 305 304
291 292 292 293 294 295 296 297 298 298 297 298 299 300 300 300 300 300 300 301 301 302 305 306 305 306 308 308 309 309 310 308 308 312 309 304 302 302 302 304 304 303 303 302
291 292 292 292 293 295 295 297 298 297 296 297 297 299 301 300 300 300 300 300 300 302 303 303 305 305 307 308 309 308 309 306 308 307 301 300 298 299 300 300 300 300 300 300
291 292 292 291 292 294 295 297 297 297 297 300 301 301 300 300 300 300 300 300 301 301 302 302 303 303 304 306 306 307 306 306 305 305 301 300 298 296 296 297 297 297 296 296
290 291 291 290 291 294 295 296 297 297 297 300 301 301 301 300 299 300 300 300 300 299 301 302 302 302 305 305 307 306 302 300 304 304 297 299 296 294 294 294 294 294 295 295
290 290 291 290 290 293 295 297 298 297 297 298 302 301 300 300 300 300 300 300 299 299 300 301 301 302 303 306 307 299 297 296 295 296 295 295 293 293 292 291 290 291 291 291
290 290 290 290 292 295 297 298 298 298 297 297 301 301 300 300 300 300 300 299 299 299 299 300 301 303 302 306 306 298 296 295 294 294 295 294 293 292 291 290 290 289 289 289
290 290 290 290 292 294 295 296 297 297 297 298 300 302 301 300 299 299 298 299 299 299 300 301 302 303 304 305 298 296 295 294 293 293 292 291 290 290 290 290 291 291 289 289
289 290 290 292 293 295 296 296 297 297 297 300 298 301 303 301 302 301 300 300 301 300 302 303 303 304 304 298 296 294 292 292 292 292 292 290 289 288 288 288 289 290 288 287
289 291 292 294 296 296 297 297 296 296 297 298 300 300 303 302 302 302 301 300 304 302 303 302 304 302 293 292 291 291 290 289 291 293 292 290 290 288 287 286 286 286 285 284
292 293 294 296 297 297 297 296 298 298 300 299 300 300 303 301 303 304 302 304 303 303 304 304 304 301 293 290 289 288 287 287 286 287 286 286 286 287 286 284 283 282 281 280
293 294 296 297 297 298 300 300 300 300 300 300 300 299 301 302 301 303 302 302 304 303 304 304 304 293 290 289 287 286 285 284 284 283 282 282 282 283 283 282 280 278 277 278
294 294 295 296 298 302 301 302 300 301 301 300 299 301 300 301 301 301 303 304 305 304 305 303 295 290 288 287 286 284 283 283 282 280 279 278 279 278 277 277 276 277 278 278
292 295 298 301 301 302 302 302 303 302 302 300 300 302 301 301 301 302 303 304 303 306 305 300 292 288 286 285 284 283 280 279 278 277 277 277 277 277 277 277 277 276 277 278
293 295 302 299 296 296 296 297 299 298 300 300 301 302 301 301 302 300 302 303 305 301 299 293 288 286 285 283 282 280 278 277 277 277 276 275 275 275 275 275 275 276 276 276
291 291 294 294 296 295 296 296 295 297 300 301 302 302 302 301 301 301 302 302 303 295 291 287 285 284 282 281 279 278 278 277 277 276 276 276 276 275 275 276 276 276 276 275
290 291 290 293 297 297 294 295 294 297 299 302 302 302 301 298 300 299 296 297 293 288 287 286 284 282 280 278 277 277 277 277 277 276 276 276 276 276 277 276 275 275 276 276

GFSNW_850_thetae_114.txt.gz
Theta_e
295 292 293 293 295 297 300 303 305 301 297 306 305 306 303 301 303 303 304 305 304 305 305 308 306 307 306 306 310 311 312 314 315 312 311 311 312 312 314 315 314 313 315 317
293 292 294 295 296 297 301 303 302 301 303 308 305 304 303 303 303 304 304 305 304 305 305 306 308 306 306 306 309 310 310 314 315 315 314 311 309 309 311 313 314 314 317 314
293 293 295 295 296 297 301 302 307 303 302 301 303 303 304 303 304 303 303 304 306 305 304 305 308 306 306 306 309 309 311 313 314 316 317 315 314 309 309 310 314 313 316 317
293 293 295 296 297 297 301 302 304 301 305 304 302 302 303 303 303 303 303 304 305 303 304 305 305 305 305 306 308 309 310 312 312 312 312 311 317 316 314 310 312 313 317 318
293 292 295 296 298 297 301 297 304 302 303 301 301 300 302 302 303 303 303 303 303 303 304 304 305 305 305 305 306 306 309 312 312 312 310 313 315 315 315 315 315 315 314 316
294 292 293 297 297 298 300 300 301 301 302 303 303 303 301 301 301 301 302 302 302 303 304 303 304 304 305 306 307 307 309 310 311 312 311 311 311 312 313 312 313 313 316 317
294 292 293 296 298 299 300 300 300 300 303 303 302 302 302 302 302 302 301 301 303 303 303 304 305 307 307 308 308 307 309 309 310 313 312 311 315 314 315 315 316 316 316 315
293 292 292 296 298 298 299 300 300 301 303 302 302 302 302 302 302 304 303 303 302 302 303 306 307 309 308 308 307 308 309 310 311 312 313 311 312 311 313 314 315 313 313 313
293 292 292 296 297 298 298 299 299 300 301 303 302 302 301 303 304 303 303 304 303 303 305 306 306 308 308 308 309 308 309 310 310 311 311 312 310 310 310 312 314 303 310 310
293 293 292 295 297 297 297 299 298 298 300 300 301 302 303 302 302 303 303 303 303 304 306 306 308 308 308 308 309 309 310 310 311 310 310 312 307 308 309 314 310 304 306 305
293 293 293 293 296 296 297 298 298 297 298 299 300 301 301 302 302 304 302 303 303 304 306 306 307 307 307 308 308 309 309 310 308 310 311 312 303 307 308 305 304 304 303 303
292 292 293 292 295 296 296 297 297 297 298 299 300 299 299 301 302 302 302 301 301 302 305 305 305 306 307 307 310 309 309 308 308 309 307 301 301 302 301 302 302 302 302 301
291 292 292 292 292 294 295 297 297 297 297 298 299 302 302 302 302 301 301 301 301 302 303 303 305 306 307 308 307 307 308 306 307 306 301 300 299 298 298 298 300 299 300 300
291 292 292 292 292 293 295 296 297 297 297 299 301 302 302 301 301 302 301 301 302 302 302 302 304 304 304 305 306 307 306 306 304 303 301 300 297 295 296 296 296 297 297 296
291 291 292 292 291 292 294 295 297 297 297 300 300 300 301 302 301 301 301 300 300 300 301 303 303 302 304 305 306 304 301 300 302 301 296 298 295 294 294 293 293 294 294 295
291 291 291 291 291 291 294 296 296 297 297 297 301 302 302 301 301 301 301 301 301 301 300 301 301 301 303 305 306 299 297 296 295 296 295 295 294 293 293 292 291 291 292 292
291 291 291 291 290 291 295 297 298 297 297 298 300 302 302 301 301 301 301 301 301 300 300 300 300 301 303 305 305 298 296 295 295 295 295 295 293 292 292 292 292 291 291 290
291 290 290 290 290 291 293 296 297 297 297 298 301 302 302 301 301 300 299 299 300 300 300 301 302 302 304 305 299 297 296 295 294 293 292 292 291 291 290 291 292 292 290 289
291 290 290 290 291 293 295 296 296 296 297 298 300 301 303 302 302 301 300 300 300 300 302 302 302 304 304 300 298 295 294 294 293 294 293 291 290 289 288 288 288 289 288 287
290 290 292 292 292 294 295 296 297 297 297 298 301 300 303 302 302 302 302 301 302 303 303 302 304 300 294 293 292 292 291 290 291 293 293 290 290 289 286 285 285 285 284 283
291 292 293 294 295 294 296 297 297 297 299 299 300 301 303 302 303 302 301 303 303 303 304 304 304 299 293 291 290 289 288 287 287 288 287 286 286 287 286 284 282 281 280 279
291 293 294 296 297 297 299 300 300 300 300 301 301 302 302 303 303 303 302 303 303 303 305 304 303 294 291 289 288 287 286 285 284 283 282 281 281 282 282 281 279 278 278 278
292 293 294 294 297 300 300 301 301 302 302 302 301 301 301 303 302 302 301 301 303 304 305 302 294 291 289 288 286 285 284 283 282 280 279 278 279 280 278 277 277 277 278 277
292 294 297 299 299 301 302 303 304 302 302 302 300 301 302 302 302 303 300 303 303 305 306 298 292 289 287 286 285 282 280 280 279 278 277 277 277 277 276 276 276 276 277 277
292 295 299 300 298 298 297 300 301 302 301 301 302 302 302 303 302 301 302 303 304 302 298 293 289 287 285 284 282 280 279 279 278 277 277 276 276 276 275 276 275 276 276 276
293 293 296 296 298 297 297 298 298 300 301 301 302 302 301 302 302 302 303 303 303 296 292 288 286 284 283 281 280 279 279 278 278 277 277 276 276 276 276 276 277 276 276 276
293 294 292 293 296 298 295 296 296 299 301 303 302 302 302 301 301 301 298 298 293 290 288 287 285 283 281 279 279 278 279 278 278 278 277 277 277 278 278 277 276 276 276 275

GFSNW_850_thetae_117.txt.gz
Theta_e
294 291 292 293 295 296 301 303 303 302 295 304 306 300 302 302 302 303 304 304 304 305 305 305 307 308 307 305 307 309 310 311 314 311 312 312 313 314 313 313 316 314 317 319
295 293 293 294 295 300 302 303 303 299 300 302 302 304 303 303 303 303 303 304 305 305 304 305 306 307 307 304 306 309 310 311 312 313 312 313 314 312 312 313 314 313 316 320
294 292 294 295 296 298 301 303 300 303 302 302 302 302 304 303 304 303 303 304 306 304 303 303 305 306 305 304 304 306 309 312 312 310 310 311 313 315 315 313 313 313 317 320
294 292 294 295 296 298 302 301 301 301 300 302 300 301 302 303 303 303 302 303 303 302 302 303 305 304 304 304 305 305 307 310 311 311 312 311 313 315 315 315 314 313 317 320
293 292 294 296 297 298 301 298 303 302 302 301 300 301 302 302 302 301 302 302 302 301 301 304 303 303 303 304 305 305 306 309 310 311 312 311 314 314 314 314 315 315 317 319
294 292 294 296 298 298 300 300 301 301 302 301 301 302 301 302 302 302 302 301 300 302 303 303 303 303 303 303 304 305 306 308 309 312 312 312 316 315 314 313 315 316 317 315
294 294 293 296 297 299 299 300 300 301 298 301 302 303 302 302 302 302 302 303 302 303 302 303 304 304 305 306 306 306 307 308 308 311 311 314 312 310 313 311 309 309 313 311
294 294 292 295 297 299 300 299 300 301 298 301 301 303 303 301 303 303 303 304 303 302 303 303 304 305 307 308 308 308 308 308 307 309 310 313 309 307 308 312 309 306 309 308
293 293 292 295 297 298 298 299 300 300 300 301 302 301 303 301 300 300 303 302 302 304 302 300 305 307 309 309 309 308 309 308 308 307 310 312 307 304 305 307 307 305 303 304
293 293 292 294 297 298 298 298 298 298 299 300 300 301 301 302 301 300 303 302 302 303 298 302 304 306 307 308 308 307 307 306 307 307 309 309 303 304 305 308 307 303 301 301
293 293 293 293 296 297 297 298 298 297 298 297 298 300 303 302 302 300 302 299 300 299 299 304 303 303 304 306 309 309 307 305 302 306 306 307 301 303 305 303 303 303 301 301
293 293 293 292 295 296 296 297 297 297 297 297 298 298 300 299 299 302 302 301 301 301 298 299 301 301 302 304 309 307 308 307 306 304 304 300 299 299 298 299 299 299 300 300
292 292 292 293 292 295 296 296 297 296 295 297 300 301 302 302 301 300 301 301 301 302 302 301 301 302 298 304 303 305 306 305 303 304 301 299 297 296 297 297 297 297 296 296
292 291 292 292 292 293 294 295 296 296 297 297 300 302 302 302 301 302 301 301 301 301 301 301 299 301 302 301 303 305 302 300 298 301 298 297 295 295 294 294 295 295 295 295
291 291 292 292 292 292 293 295 296 296 298 298 297 297 301 301 301 301 301 301 301 299 300 299 296 301 300 301 303 302 299 298 299 299 296 297 294 293 293 293 292 292 292 293
291 291 292 292 292 291 292 295 295 296 297 297 297 299 301 302 301 301 300 301 300 300 301 300 301 301 301 301 299 298 297 296 295 296 295 294 293 292 292 292 291 291 291 290
291 291 291 291 291 291 293 296 297 298 297 297 297 299 302 302 301 301 301 301 301 300 300 299 299 300 301 299 298 297 295 295 294 294 295 293 293 292 291 292 292 291 290 288
291 291 291 291 291 290 292 297 296 298 298 296 297 297 302 301 301 300 299 299 299 299 299 300 300 301 302 300 298 296 295 294 294 293 292 292 291 290 290 291 291 289 288 287
291 290 290 290 290 291 292 294 295 296 297 297 298 298 295 301 301 300 299 299 299 299 298 299 299 296 297 298 296 294 293 292 293 293 292 291 289 288 288 288 287 287 285 285
291 290 290 291 291 292 293 296 297 296 296 296 298 299 296 301 302 301 300 300 300 298 298 301 297 294 292 291 290 290 289 290 291 293 288 288 288 287 285 284 284 283 282 282
290 291 291 291 292 294 295 294 296 296 297 296 298 300 298 302 298 296 301 301 300 300 300 302 302 296 292 289 288 288 287 287 287 286 286 286 285 285 283 282 281 280 279 279
291 291 293 295 294 295 294 297 296 297 297 300 300 300 300 302 302 301 300 299 298 300 302 300 296 292 289 288 286 285 285 284 284 283 283 283 283 282 282 281 280 279 278 278
292 292 294 294 295 295 295 296 297 294 300 302 301 295 302 302 301 300 298 300 299 301 300 297 292 290 288 286 285 284 283 282 281 280 280 280 280 280 279 278 278 278 278 278
292 293 291 294 297 297 294 295 296 301 302 301 300 301 301 302 299 299 299 297 300 300 298 294 290 288 286 285 284 283 281 280 280 279 279 278 278 278 278 278 278 278 278 277
292 293 292 296 298 297 298 300 302 303 302 301 300 300 301 298 297 298 298 300 297 298 293 288 287 286 285 284 282 281 279 278 278 278 278 277 277 278 278 278 278 278 278 277
292 293 293 295 297 296 297 299 300 302 300 300 301 295 299 296 299 300 296 299 297 294 288 286 286 285 283 282 281 280 279 278 278 278 278 278 277 277 277 277 277 277 277 276
293 294 292 292 294 296 296 298 298 299 300 298 300 297 299 297 296 300 296 294 286 288 286 285 285 284 282 281 279 279 279 278 278 278 278 278 278 278 277 277 277 277 276 276

GFSNW_850_thetae_120.txt.gz
Theta_e
292 292 292 293 295 298 301 303 301 302 298 303 301 298 303 302 302 302 303 303 304 305 304 303 305 306 306 304 303 305 308 312 312 311 311 312 313 314 314 314 318 316 316 318
295 292 293 294 295 299 302 304 302 301 301 300 301 304 303 302 303 302 303 302 305 304 303 302 304 305 305 303 303 303 307 310 311 309 310 310 311 311 312 314 314 316 317 320
295 292 293 294 296 299 302 302 298 301 302 303 300 300 302 302 303 302 302 303 304 302 301 302 302 304 304 303 303 305 306 309 311 311 310 310 312 312 313 314 315 314 317 317
294 292 295 295 296 300 302 301 300 301 296 298 299 300 301 301 303 301 301 302 301 300 300 301 303 303 302 302 303 304 305 307 308 309 311 312 313 313 313 315 316 314 317 318
294 292 295 295 296 300 300 300 301 301 301 300 299 300 301 301 300 300 300 300 300 300 300 302 302 302 302 302 303 303 304 306 308 310 311 311 313 314 312 312 312 317 315 315
293 292 295 296 297 300 300 300 301 301 300 299 298 300 301 302 302 301 301 301 300 300 301 302 302 301 301 302 303 303 304 306 307 310 310 313 310 308 309 308 307 314 315 312
294 292 294 296 297 299 300 300 300 300 296 299 301 302 302 302 303 302 302 303 303 303 302 303 303 303 302 303 303 303 305 306 307 309 309 314 310 305 307 307 306 305 307 305
294 293 293 296 297 299 299 299 300 301 296 300 301 302 302 301 302 301 303 302 301 303 303 302 303 303 306 307 307 307 305 306 306 309 309 312 307 304 306 307 306 305 305 305
294 294 292 295 297 299 299 298 300 300 298 299 301 301 301 299 299 299 302 301 301 302 300 298 304 306 307 308 307 306 307 307 306 307 310 309 305 302 303 304 306 303 301 302
294 293 292 294 297 298 298 299 299 298 298 299 300 299 300 301 300 298 300 301 301 301 295 301 302 305 306 306 307 307 306 305 305 306 308 307 301 301 302 305 305 302 301 300
293 293 292 293 296 297 297 297 297 297 297 297 297 299 300 302 301 298 301 297 299 297 298 301 300 301 303 305 306 307 305 304 305 303 304 304 299 300 302 301 298 300 300 299
293 293 293 292 295 297 297 298 297 297 297 297 299 298 298 299 301 300 301 300 300 301 296 296 298 300 300 302 303 306 307 305 303 303 302 299 297 297 297 298 297 297 296 297
293 293 293 292 294 296 296 297 297 296 296 297 299 301 302 302 300 300 300 300 301 301 301 299 298 300 295 300 300 303 304 301 301 302 299 297 295 295 295 295 295 295 296 295
292 292 292 292 292 295 296 296 296 296 297 295 298 301 301 302 302 301 300 301 301 300 300 300 296 299 300 299 301 301 301 298 299 299 298 296 294 294 293 294 294 293 293 293
291 292 292 292 292 292 294 294 295 295 296 295 297 297 301 301 301 301 301 301 301 300 299 293 295 299 298 298 301 298 298 297 296 293 295 296 294 292 292 292 292 292 292 291
291 291 293 292 292 291 293 293 294 295 296 296 296 297 300 302 301 301 300 301 300 299 300 299 300 300 299 294 301 298 296 295 295 296 294 294 292 292 292 292 291 291 290 290
291 291 292 292 291 291 293 294 296 295 296 296 296 296 301 301 301 301 301 300 300 300 300 298 298 298 300 294 298 296 295 295 294 294 294 293 292 291 291 292 292 290 289 288
291 291 291 291 291 291 294 295 296 296 297 296 297 295 300 301 301 300 300 300 299 299 299 298 298 299 299 296 297 296 295 294 293 293 293 292 291 290 290 290 289 288 287 286
291 291 291 290 290 290 291 294 295 296 297 296 296 296 298 301 300 300 299 299 294 298 296 297 297 293 291 294 294 292 293 292 293 293 291 290 289 287 287 287 286 286 284 284
290 291 290 290 290 292 293 295 295 296 296 295 296 298 295 301 301 298 298 299 299 297 296 300 294 292 290 290 289 290 291 291 293 291 287 287 287 285 285 284 283 283 282 281
291 291 291 292 293 294 294 294 295 296 296 295 295 297 295 301 295 292 299 299 299 300 297 298 300 294 290 288 288 288 288 288 288 287 286 285 285 284 283 282 281 280 280 280
291 291 293 292 293 293 293 294 295 296 295 296 296 298 299 301 301 300 299 299 298 301 300 302 295 290 287 286 286 285 285 285 284 284 284 283 283 282 282 281 280 279 279 279
291 291 292 294 294 293 294 294 296 291 297 298 299 293 300 301 301 297 291 299 299 297 294 293 291 288 286 286 285 284 284 283 282 281 281 281 281 280 280 280 279 278 278 278
292 291 289 293 293 291 292 292 293 298 300 301 301 301 301 301 297 290 292 294 299 299 295 292 288 286 285 285 284 284 282 281 281 280 279 279 279 279 279 278 278 278 278 277
292 292 290 287 295 296 296 298 298 301 301 300 300 300 300 293 298 297 298 300 300 296 291 283 286 286 286 285 284 282 281 280 280 279 279 279 278 278 278 278 277 277 277 277
291 291 290 293 294 295 297 298 298 299 300 300 300 295 297 297 298 299 298 298 294 289 285 285 286 285 285 284 282 281 280 280 279 279 278 278 278 278 278 277 277 277 277 276
292 291 293 292 292 294 296 297 298 300 300 292 299 296 298 296 298 298 297 295 283 285 284 286 286 286 284 283 281 280 280 280 279 279 278 278 278 278 277 277 277 277 276 276

GFSNW_850_thetae_123.txt.gz
Theta_e
292 292 292 294 294 296 300 303 299 302 300 303 300 301 304 302 302 302 302 302 303 304 303 301 303 304 305 304 302 302 303 308 309 309 310 311 311 312 313 315 316 316 317 319
292 292 293 294 295 299 302 302 302 301 302 302 303 303 302 302 302 301 302 302 304 302 301 301 302 303 304 303 302 302 303 306 307 306 308 308 310 311 312 314 315 317 318 316
295 292 293 294 296 301 303 302 298 300 300 302 299 300 301 302 302 301 301 302 300 300 300 301 300 301 303 302 302 304 304 307 304 304 307 309 312 312 313 314 315 315 317 313
295 292 294 295 298 300 302 301 300 301 300 298 299 299 300 301 302 300 300 301 300 299 299 300 301 302 301 301 302 303 303 305 306 307 308 309 312 313 312 312 314 316 316 312
294 293 295 295 297 301 300 302 301 300 300 299 298 299 300 300 299 299 299 300 300 299 299 299 300 301 301 301 302 301 301 304 306 307 310 309 306 307 308 308 309 315 311 308
293 294 295 296 298 301 300 301 300 301 298 298 297 298 300 301 300 301 301 301 300 300 300 301 302 301 301 301 301 301 302 304 306 308 309 313 308 305 306 306 305 309 312 307
293 293 295 296 298 300 300 300 300 300 298 298 299 302 301 302 302 301 303 302 302 302 302 303 303 302 301 301 301 301 303 304 305 308 309 310 307 303 306 306 304 303 305 303
294 292 295 297 297 299 300 300 300 300 296 299 300 302 301 300 301 300 302 301 301 301 303 301 302 303 305 306 306 305 302 304 305 307 310 309 307 302 303 305 305 302 302 303
294 292 294 297 297 298 299 299 299 300 299 299 300 300 300 299 299 298 300 301 301 301 298 297 304 306 306 306 305 303 305 303 306 306 310 308 304 300 300 303 304 302 301 300
294 293 292 296 297 299 299 298 299 299 299 299 300 299 299 301 299 298 299 301 300 300 295 301 302 304 304 306 305 304 304 303 304 305 309 305 300 299 300 305 302 300 300 299
294 293 292 295 297 298 298 298 298 298 297 298 299 300 301 301 300 297 300 296 297 297 297 300 299 301 302 304 305 304 305 304 303 302 303 301 298 299 301 300 297 296 297 298
293 293 292 294 297 297 297 298 297 297 297 297 299 299 298 298 300 300 300 299 299 300 294 293 297 299 298 301 302 303 300 304 303 303 302 298 296 297 296 296 296 296 295 296
293 293 292 294 296 297 297 297 297 297 297 297 298 301 301 300 300 299 298 300 301 301 301 298 297 299 294 299 300 302 302 299 300 301 299 297 295 295 294 294 294 294 294 294
293 293 292 292 295 296 296 296 296 296 295 294 299 300 301 301 301 301 299 301 300 299 299 299 295 298 299 299 299 300 300 297 298 298 298 296 294 293 292 292 293 292 292 292
293 292 292 292 293 295 296 296 296 296 296 294 297 298 301 301 301 301 301 300 300 300 298 293 295 298 296 297 298 300 297 296 294 289 295 295 294 293 292 292 291 291 291 290
293 293 292 292 292 293 294 293 294 295 296 296 293 297 299 301 300 300 300 301 300 300 299 299 299 299 298 291 299 298 296 295 296 296 294 293 292 292 292 292 291 290 289 288
291 293 292 292 291 292 293 294 295 295 296 295 294 295 300 300 300 300 300 300 300 300 299 298 297 298 299 293 299 296 295 295 294 294 294 292 291 290 290 291 290 289 288 287
292 293 292 291 291 292 294 295 294 295 296 296 291 294 300 301 301 300 300 300 299 298 299 298 297 298 297 294 296 296 295 294 293 293 292 292 290 289 289 289 288 287 286 285
291 291 291 290 290 291 293 295 296 295 296 295 295 293 294 300 299 299 298 298 296 296 295 296 296 291 293 291 295 294 294 293 293 292 291 289 289 287 287 287 286 285 283 283
291 291 290 290 290 292 294 296 296 295 296 295 296 297 297 300 297 296 297 298 295 296 296 298 293 290 289 290 290 290 291 291 292 291 288 287 287 285 285 284 283 282 281 280
291 290 291 291 294 294 293 293 294 295 295 295 295 295 294 300 295 292 298 297 297 299 297 298 296 293 289 288 289 289 289 288 289 289 287 286 285 284 283 283 281 280 280 279
291 291 291 293 293 292 293 293 294 295 295 294 294 295 297 300 300 298 298 298 298 301 299 300 295 287 287 288 287 286 286 285 285 285 285 284 284 283 282 281 280 280 279 279
292 292 292 292 292 291 292 293 296 295 295 295 296 292 298 301 300 296 295 299 298 296 296 293 287 286 286 286 286 285 284 284 283 283 282 282 282 281 280 280 279 279 279 279
291 291 287 288 291 291 289 291 291 296 297 298 299 299 301 300 296 289 290 292 298 298 298 292 285 286 286 285 285 285 284 283 282 281 281 281 280 280 280 279 279 278 278 278
291 291 288 285 292 294 295 296 295 297 298 299 300 298 299 294 297 297 294 298 299 294 292 283 287 287 286 285 285 284 283 282 281 281 280 280 280 279 279 279 278 277 277 277
291 290 289 292 291 292 293 296 297 297 298 298 300 294 293 296 292 298 297 297 293 289 282 287 287 286 286 285 284 283 282 281 281 280 280 279 279 278 278 277 277 277 276 276
290 290 291 292 292 292 294 295 297 298 298 297 298 295 298 295 297 298 297 295 285 287 287 288 288 287 286 285 283 282 281 281 280 279 279 278 278 278 277 277 277 276 276 276

GFSNW_850_thetae_126.txt.gz
Theta_e
296 295 293 294 294 297 300 302 301 301 302 301 299 301 302 301 301 302 302 301 302 303 302 301 301 303 303 302 301 301 301 305 307 305 306 309 311 312 312 316 316 314 315 312
296 293 294 294 297 299 302 302 301 301 302 302 302 303 302 302 301 301 301 302 303 301 301 300 301 302 301 302 301 301 303 304 304 303 305 307 308 309 310 313 315 317 317 311
294 293 294 294 297 301 302 300 298 300 300 302 300 301 301 302 302 300 301 300 299 299 299 299 300 299 301 301 301 303 304 304 301 300 302 308 308 311 312 313 314 316 313 307
294 293 294 295 298 302 302 301 297 298 298 299 298 300 301 301 301 299 300 300 299 299 299 299 300 301 300 301 302 302 303 304 304 305 306 309 306 307 307 309 311 315 309 305
293 293 294 296 300 301 300 302 299 300 299 300 298 300 300 300 299 299 299 299 299 298 299 299 300 300 300 301 300 301 300 303 304 306 309 311 306 305 305 304 306 312 308 305
293 294 295 296 299 301 300 301 300 301 298 297 299 299 299 299 300 300 300 300 299 300 300 300 301 301 301 300 301 300 301 302 306 307 308 311 307 304 306 304 303 306 305 304
293 295 295 296 300 300 300 301 301 300 299 298 300 301 300 300 300 300 302 302 301 302 301 302 302 301 300 300 300 300 302 303 305 307 309 309 307 302 304 305 303 302 302 302
292 295 295 296 299 300 300 300 301 300 298 299 300 301 300 300 300 300 301 301 300 300 301 301 302 303 304 304 304 303 300 303 306 306 309 307 305 301 301 302 303 301 301 299
292 293 295 297 298 299 300 300 300 300 300 299 301 299 299 298 298 298 300 300 301 300 298 297 304 305 305 305 304 302 301 301 305 305 309 306 302 299 299 301 303 299 300 299
293 292 294 297 298 298 299 299 299 300 299 300 300 299 299 300 298 297 298 300 299 300 294 300 301 304 303 305 304 304 303 302 303 302 307 305 299 298 299 304 299 297 296 298
294 293 294 297 298 298 298 298 298 299 299 299 300 300 300 300 299 296 299 296 297 296 296 299 299 300 302 302 304 305 303 304 302 302 301 300 297 298 299 298 297 296 295 296
294 293 293 296 297 298 298 298 298 298 298 298 299 299 299 298 300 299 299 298 298 299 294 292 297 299 297 301 301 301 299 302 302 302 301 298 295 296 295 294 295 294 294 294
293 293 292 296 297 298 298 298 297 297 297 297 297 299 299 299 299 299 298 299 300 300 300 297 296 299 294 298 299 301 301 299 300 299 299 297 294 294 293 293 292 292 292 292
293 293 293 296 297 297 297 297 296 296 297 298 299 299 301 301 301 299 300 300 300 299 299 297 294 298 298 298 299 299 299 298 297 298 297 296 293 293 292 292 292 291 291 290
293 293 292 295 296 296 296 296 295 296 296 295 298 298 299 300 301 300 299 300 299 299 298 292 294 297 296 296 297 293 297 296 294 297 295 295 293 292 292 291 291 290 289 288
293 292 292 292 295 296 295 295 295 295 295 297 295 297 298 300 300 300 300 300 300 299 298 298 298 298 297 291 293 296 296 296 296 295 294 293 292 291 291 291 290 289 288 287
293 292 292 292 293 295 293 293 294 294 295 295 294 296 300 300 300 300 299 300 300 300 299 297 297 297 299 295 297 296 296 295 294 294 294 292 291 290 290 290 289 288 287 286
293 292 292 291 292 293 294 294 294 295 295 295 290 294 300 300 300 300 300 300 299 299 299 297 296 297 296 291 295 295 295 294 293 293 293 293 290 289 289 288 287 286 285 284
293 292 291 291 292 294 295 295 294 295 295 294 293 295 296 300 299 298 298 298 296 296 295 296 296 291 297 292 296 295 294 294 292 291 290 289 288 287 286 286 285 284 282 282
292 291 290 290 292 294 295 295 295 295 295 295 295 296 298 299 297 295 296 297 296 296 295 297 293 297 290 291 292 292 292 292 292 291 287 287 287 286 285 284 283 282 281 280
291 290 291 292 294 294 293 293 293 294 295 294 295 295 297 299 294 294 296 297 298 298 297 296 293 293 290 289 290 290 290 290 290 290 289 287 286 285 284 283 282 281 280 280
290 291 293 294 293 292 289 290 293 294 295 294 294 294 296 299 299 296 297 298 298 299 297 298 293 286 287 288 288 288 287 287 287 286 286 285 284 284 283 282 281 280 279 279
292 292 292 291 291 287 289 291 294 294 294 294 294 292 297 299 298 296 297 298 297 296 297 293 289 287 286 287 287 286 285 285 284 284 283 283 283 282 281 281 280 279 279 279
290 291 288 286 290 290 288 292 293 294 295 295 297 296 299 299 294 288 289 292 296 298 298 292 284 286 287 287 286 286 285 284 283 283 282 282 281 281 281 280 280 278 278 278
290 290 284 287 290 293 294 295 294 295 296 296 298 297 298 292 293 296 293 294 292 292 291 286 288 288 287 286 286 285 284 283 283 282 282 281 281 281 281 280 279 278 278 277
291 290 289 290 288 289 293 294 294 296 297 297 298 293 289 293 291 297 296 296 291 288 284 291 289 288 288 287 286 285 283 283 282 281 281 281 280 280 279 279 278 277 277 276
290 289 289 289 290 291 293 293 295 297 297 298 297 293 294 294 297 296 297 290 286 292 293 291 290 290 288 287 285 284 283 282 282 281 281 280 279 279 278 278 277 277 277 276

GFSNW_850_thetae_132.txt.gz
Theta_e
299 300 301 309 303 300 299 300 302 299 301 303 304 305 304 302 303 303 304 305 305 304 304 304 304 306 305 304 303 305 306 307 308 307 307 309 309 309 311 314 316 315 316 312
299 299 297 299 300 299 299 300 299 300 302 305 305 305 303 303 303 303 304 304 304 304 304 304 304 305 304 302 303 306 307 309 309 309 310 310 309 308 308 310 312 316 317 312
298 297 297 298 299 299 301 301 302 300 301 302 304 304 303 303 302 303 304 304 304 304 303 303 304 303 303 303 303 302 305 308 308 309 309 309 310 307 308 309 314 313 308 307
297 296 295 299 299 299 299 301 301 300 303 303 305 304 303 303 302 302 302 303 303 303 303 302 302 302 303 303 304 305 305 307 307 308 308 308 309 307 306 307 309 311 306 304
296 295 296 298 300 300 300 299 301 301 302 303 304 303 304 303 302 303 303 303 303 302 302 302 303 303 305 305 304 305 305 308 307 309 309 309 308 307 305 305 305 306 307 305
296 296 298 299 300 300 300 299 300 302 303 304 304 304 304 303 303 302 302 303 302 302 302 302 302 302 303 304 305 307 307 308 309 309 308 310 310 305 305 304 303 304 304 302
296 297 298 298 299 300 300 300 300 304 303 304 303 303 303 303 303 303 302 302 302 302 302 302 302 303 303 304 304 305 307 307 307 309 310 312 305 302 304 303 301 301 302 301
294 295 297 298 300 301 300 300 301 303 305 303 302 303 303 303 303 304 303 302 302 301 303 305 307 308 308 307 307 307 306 307 308 309 309 308 305 302 302 304 302 299 299 299
294 295 297 298 301 300 300 300 300 303 303 303 302 303 303 303 303 303 302 300 299 302 304 306 307 308 308 309 307 306 306 306 308 308 308 309 306 301 299 301 306 298 298 298
294 295 297 300 301 301 300 301 301 302 302 301 302 303 303 302 303 303 302 301 301 302 306 308 307 307 307 308 307 306 306 306 307 306 308 306 301 300 300 307 303 297 297 296
295 296 298 300 301 299 299 300 301 301 302 300 302 301 301 301 302 303 301 301 301 303 306 306 307 307 307 307 306 306 306 307 306 305 306 307 299 301 304 298 297 296 295 295
294 296 298 299 299 299 299 300 301 301 301 300 299 300 299 300 299 301 299 301 302 302 305 305 305 306 306 306 307 305 305 305 306 305 305 299 298 297 296 295 295 294 294 293
293 296 297 298 298 298 298 300 301 301 300 300 300 299 299 298 298 298 301 300 301 301 301 303 304 306 305 306 306 305 302 301 303 302 299 298 297 295 295 294 293 292 292 291
293 294 296 297 298 298 298 299 299 300 301 302 299 299 299 299 299 298 298 300 299 299 301 302 303 304 302 304 304 304 303 302 302 301 299 297 296 295 294 293 292 291 289 289
294 295 296 297 297 297 297 297 298 298 301 302 300 299 299 299 300 299 299 299 300 300 301 302 303 301 302 302 302 303 301 302 301 303 299 298 296 294 293 292 291 290 290 288
294 295 297 297 296 296 296 296 297 299 300 300 302 298 299 299 299 300 300 300 300 300 301 301 300 299 301 302 302 300 299 299 298 297 295 295 293 292 292 291 289 289 288 287
294 296 297 297 296 295 294 296 297 299 298 300 301 301 299 299 299 300 301 301 301 301 300 300 300 300 301 301 301 300 298 297 296 295 294 292 292 291 289 288 287 286 285 284
293 295 296 296 296 292 294 295 296 297 297 299 302 301 300 300 300 300 299 300 300 299 300 299 300 300 300 301 299 298 297 296 295 294 294 294 290 288 287 286 286 285 285 284
292 294 295 294 292 294 294 294 295 295 296 299 301 302 303 300 300 300 300 299 300 298 300 300 300 301 301 301 298 297 296 296 294 292 291 290 289 287 286 286 285 285 283 282
292 292 292 294 294 294 294 293 294 295 296 297 300 299 301 300 300 299 299 299 300 300 300 299 300 301 296 296 298 297 296 294 292 292 290 289 288 287 286 285 284 283 282 281
290 291 293 294 294 293 294 296 297 296 297 297 297 300 300 299 301 300 299 299 298 299 301 300 301 302 297 294 294 294 294 293 293 292 292 290 289 286 285 283 282 281 280 280
291 295 294 293 293 293 296 296 296 297 298 296 299 300 300 298 299 300 298 298 299 301 299 301 302 302 293 292 290 292 292 291 290 290 289 288 286 285 283 282 281 281 281 281
294 293 292 293 292 294 295 295 296 297 296 295 297 299 299 299 299 298 299 299 301 300 300 300 303 295 291 291 289 289 289 289 289 287 287 287 286 284 283 283 282 281 281 280
291 293 292 293 293 293 294 296 297 295 296 295 298 297 300 299 299 298 299 299 299 300 300 301 302 294 290 289 288 287 288 288 287 287 286 285 284 283 282 282 281 281 280 280
291 292 293 293 291 293 293 293 295 294 295 296 298 299 300 300 299 299 298 298 299 300 301 302 298 292 289 288 287 288 289 287 286 285 285 284 283 283 282 281 281 280 280 279
291 291 293 291 294 295 294 294 295 295 295 297 299 300 301 300 300 299 299 299 300 302 301 297 293 291 289 289 289 289 287 286 285 284 284 283 283 282 282 281 280 279 279 278
291 291 291 292 293 293 293 294 294 295 297 300 300 300 300 299 299 299 299 300 301 299 296 294 293 293 291 291 290 288 287 285 284 284 283 282 282 281 280 280 280 279 278 278

GFSNW_850_thetae_135.txt.gz
Theta_e
305 308 314 311 306 304 306 300 301 300 300 303 303 309 309 305 306 306 307 307 307 308 307 307 306 308 308 306 305 307 309 310 311 309 309 310 311 311 310 314 315 318 316 311
301 300 300 300 302 305 303 299 300 299 301 307 307 307 307 305 306 306 306 307 308 308 307 306 306 308 307 305 305 308 309 311 312 311 311 310 311 310 309 310 311 315 318 311
300 299 298 299 300 300 301 300 302 300 300 304 305 306 306 305 304 305 305 307 307 307 307 306 306 307 305 304 304 304 306 310 311 311 311 310 309 310 309 310 314 317 311 309
299 299 299 301 300 300 302 302 303 302 303 307 306 306 305 305 305 305 305 305 306 306 306 306 306 305 305 304 304 304 309 310 309 309 308 310 310 309 308 309 310 311 308 307
297 298 298 299 299 300 302 302 303 303 304 304 306 306 305 305 304 304 304 304 304 305 305 305 305 304 305 307 306 308 308 311 309 309 309 311 310 309 308 307 307 307 307 306
297 297 298 299 299 300 301 302 302 303 304 304 306 305 304 304 304 303 304 305 305 304 304 304 304 305 306 307 308 309 310 310 310 311 310 311 311 308 307 305 304 305 306 303
297 297 298 299 300 300 302 301 303 303 304 304 304 304 305 304 305 305 304 304 304 304 304 304 304 305 305 306 307 308 310 309 309 310 313 313 306 306 305 305 302 303 302 301
297 297 298 299 300 300 302 301 304 303 307 304 305 305 305 304 304 305 304 304 304 303 304 306 306 306 307 308 308 309 309 309 310 310 310 309 306 305 305 306 304 301 301 300
295 296 297 298 301 300 300 300 303 305 306 306 304 305 304 306 306 306 304 303 304 303 306 308 307 308 308 309 308 309 308 309 310 310 309 311 307 304 303 303 307 300 299 299
294 295 296 298 301 299 300 301 304 307 305 305 304 305 306 304 305 305 304 303 303 304 307 309 309 309 309 310 309 309 309 308 309 309 308 309 304 303 303 306 305 299 299 297
294 296 297 299 300 300 300 301 304 305 305 305 305 305 304 304 304 305 303 303 303 304 308 309 308 309 309 309 309 309 309 309 309 308 308 309 302 303 305 301 299 298 297 296
294 297 299 300 301 300 300 302 302 304 305 303 302 302 302 303 304 305 303 304 303 305 308 308 308 308 309 309 309 307 309 308 310 308 307 302 301 300 298 298 297 296 296 295
295 297 299 299 300 299 300 302 303 303 303 303 303 302 300 299 301 302 303 303 304 304 306 307 308 308 309 308 310 307 305 304 306 305 303 301 300 298 297 296 295 294 294 294
295 297 298 298 298 298 300 302 303 303 303 303 301 301 300 301 300 301 303 303 303 303 304 305 307 307 306 307 308 308 306 304 304 303 302 300 299 297 296 294 293 292 292 292
294 296 297 298 298 297 299 300 302 303 304 303 302 301 301 301 301 301 302 302 302 302 304 306 305 304 305 305 305 307 304 305 304 306 301 301 299 296 295 294 293 292 292 291
294 296 297 297 297 297 299 300 297 301 302 302 303 301 301 301 301 301 301 302 302 302 303 304 303 302 305 305 305 303 302 301 301 300 299 299 296 296 294 293 292 291 290 289
295 296 296 296 296 296 298 300 300 301 302 302 302 302 301 301 301 302 302 302 302 302 302 303 303 302 303 304 305 302 300 299 299 298 296 295 295 294 292 291 290 289 288 287
296 296 296 296 296 294 297 298 297 298 302 303 304 302 301 302 301 301 301 302 302 302 302 302 303 302 303 304 302 300 299 298 297 296 296 296 293 291 290 290 289 289 288 286
296 296 296 294 295 298 297 295 296 296 302 303 303 303 304 302 302 301 301 301 302 300 302 302 303 304 304 303 301 299 299 297 296 296 295 293 292 290 290 289 289 288 287 286
295 294 293 293 294 294 294 294 296 300 299 301 304 303 303 302 302 301 301 300 301 301 302 301 302 304 302 301 300 299 299 298 296 295 294 293 292 291 290 289 288 287 286 285
292 292 295 294 294 297 297 298 299 298 300 300 301 301 302 301 303 302 301 301 300 302 303 301 303 304 301 300 300 298 298 296 296 296 295 294 292 291 289 287 286 285 284 283
293 294 294 293 296 297 300 299 298 299 300 299 301 301 301 301 302 301 300 300 300 303 302 301 304 305 299 299 298 297 296 296 295 294 294 293 291 289 288 286 284 283 282 283
294 294 292 297 295 298 298 297 298 300 298 298 300 302 301 301 300 300 301 301 303 301 302 302 305 300 298 297 295 294 294 294 293 292 290 289 288 287 285 284 283 284 283 282
295 295 295 297 296 296 297 299 300 297 298 299 300 300 301 301 300 300 300 302 301 301 302 304 305 298 297 295 293 293 292 291 289 289 288 288 288 286 285 284 284 283 282 282
294 295 296 295 294 295 294 296 297 296 297 299 301 301 301 302 300 301 300 300 301 302 303 305 302 297 295 293 292 291 289 290 289 288 288 287 286 285 284 283 283 282 281 281
293 294 294 294 296 296 295 296 296 296 298 299 300 301 302 302 301 301 301 301 302 304 304 302 297 294 293 291 290 289 290 290 288 287 286 286 285 284 283 283 282 281 281 280
294 294 294 295 296 295 295 296 295 295 298 302 300 301 301 301 301 301 301 303 304 303 300 299 296 294 292 291 289 290 290 288 287 286 285 284 283 283 282 282 281 281 280 280